[[{"header":{"parameterUnit":"m.s-1","parameterCategory":1,"la1":31.0,"la2":29.5877,"lo1":-88.7671,"lo2":-86.6584,"dy":0.0162,"dx":0.0185,"nx":115,"ny":88,"refTime":"2023-06-02T18:00:00:Z","depth":0,"parameterNumber":2,"parameterNumberName":"U-component_of_WINDS"},"data":[0.0,0.0,0.0,0.0,0.0,0.0,0.0,0.0,0.0,0.0,0.0,0.0,0.0,0.0,0.0,0.0,0.0,0.0,0.0,0.0,0.0,0.0,0.0,0.0,0.0,0.0,0.0,0.0,0.0,0.0,0.0,0.0,0.0,0.0,0.0,0.0,0.0,0.0,0.0,0.0,0.0,0.0,0.0,0.0,0.0,0.0,0.0,0.0,0.0,0.0,0.0,0.0,0.0,0.0,0.0,0.0,0.0,0.0,0.0,0.0,0.0,0.0,0.0,0.0,0.0,0.0,0.0,0.0,0.0,0.0,0.0,0.0,0.0,0.0,0.0,0.0,0.0,0.0,0.0,0.0,0.0,0.0,0.0,0.0,0.0,0.0,0.0,0.0,0.0,0.0,0.0,0.0,0.0,0.0,0.0,0.0,0.0,0.0,0.0,0.0,0.0,0.0,0.0,0.0,0.0,0.0,0.0,0.0,0.0,0.0,0.0,0.0,0.0,0.0,0.0,0.0,0.0,0.0,0.0,0.0,0.0,0.0,0.0,0.0,0.0,0.0,0.0,0.0,0.0,0.0,0.0,0.0,0.0,0.0,0.0,0.0,0.0,0.0,0.0,0.0,0.0,0.0,0.0,0.0,0.0,0.0,0.0,0.0,0.0,0.0,0.0,0.0,0.0,0.0,0.0,0.0,0.0,0.0,0.0,0.0,0.0,0.0,0.0,0.0,0.0,0.0,0.0,0.0,0.0,0.0,0.0,0.0,0.0,0.0,0.0,0.0,0.0,0.0,0.0,0.0,0.0,0.0,0.0,0.0,0.0,0.0,0.0,0.0,0.0,0.0,0.0,0.0,0.0,0.0,0.0,0.0,0.0,0.0,0.0,0.0,0.0,0.0,0.0,0.0,0.0,0.0,0.0,0.0,0.0,0.0,0.0,0.0,0.0,0.0,0.0,0.0,0.0,0.0,0.0,0.0,0.0,0.0,0.0,0.0,0.0,0.0,0.0,0.0,0.0,0.0,0.0,0.0,0.0,0.0,0.0,0.0,0.0,0.0,0.0,0.0,0.0,0.0,0.0,0.0,0.0,0.0,0.0,0.0,0.0,0.0,0.0,0.0,0.0,0.0,0.0,0.0,0.0,0.0,0.0,0.0,0.0,0.0,0.0,0.0,0.0,0.0,0.0,0.0,0.0,0.0,0.0,0.0,0.0,0.0,0.0,0.0,0.0,0.0,0.0,0.0,0.0,0.0,0.0,0.0,0.0,0.0,0.0,0.0,0.0,0.0,0.0,0.0,0.0,0.0,0.0,0.0,0.0,0.0,0.0,0.0,0.0,0.0,0.0,0.0,0.0,0.0,0.0,0.0,0.0,0.0,0.0,0.0,0.0,0.0,0.0,0.0,0.0,0.0,0.0,0.0,0.0,0.0,0.0,0.0,0.0,0.0,0.0,0.0,0.0,0.0,0.0,0.0,0.0,0.0,0.0,0.0,0.0,0.0,0.0,0.0,0.0,0.0,0.0,0.0,0.0,0.0,0.0,0.0,0.0,0.0,0.0,0.0,0.0,0.0,0.0,0.0,0.0,0.0,0.0,0.0,0.0,0.0,0.0,0.0,0.0,0.0,0.0,0.0,0.0,0.0,0.0,0.0,0.0,0.0,0.0,0.0,0.0,0.0,0.0,0.0,0.0,0.0,0.0,0.0,0.0,0.0,0.0,0.0,0.0,0.0,0.0,0.0,0.0,0.0,0.0,0.0,0.0,0.0,0.0,0.0,0.0,0.0,0.0,0.0,0.0,0.0,0.0,0.0,0.0,0.0,0.0,0.0,0.0,0.0,0.0,0.0,0.0,0.0,0.0,0.0,0.0,0.0,0.0,0.0,0.0,0.0,0.0,0.0,0.0,0.0,0.0,0.0,0.0,0.0,0.0,0.0,0.0,0.0,0.0,0.0,0.0,0.0,0.0,0.0,0.0,0.0,0.0,0.0,0.0,0.0,0.0,0.0,0.0,0.0,0.0,0.0,0.0,0.0,0.0,0.0,0.0,0.0,0.0,0.0,0.0,0.0,0.0,0.0,0.0,0.0,0.0,0.0,0.0,0.0,0.0,0.0,0.0,0.0,0.0,0.0,0.0,0.0,0.0,0.0,0.0,0.0,0.0,0.0,0.0,0.0,0.0,0.0,0.0,0.0,0.0,0.0,0.0,0.0,0.0,0.0,0.0,0.0,0.0,0.0,0.0,0.0,0.0,0.0,0.0,0.0,0.0,0.0,0.0,0.0,0.0,0.0,0.0,0.0,0.0,0.0,0.0,0.0,0.0,0.0,0.0,0.0,0.0,0.0,0.0,0.0,0.0,0.0,0.0,0.0,0.0,0.0,0.0,0.0,0.0,0.0,0.0,0.0,0.0,0.0,0.0,0.0,0.0,0.0,0.0,0.0,0.0,0.0,0.0,0.0,0.0,0.0,0.0,0.0,0.0,0.0,0.0,0.0,0.0,0.0,0.0,0.0,0.0,0.0,0.0,0.0,0.0,0.0,0.0,0.0,0.0,0.0,0.0,0.0,0.0,0.0,0.0,0.0,0.0,0.0,0.0,0.0,0.0,0.0,0.0,0.0,0.0,0.0,0.0,0.0,0.0,0.0,0.0,0.0,0.0,0.0,0.0,0.0,0.0,0.0,0.0,0.0,0.0,0.0,0.0,0.0,0.0,0.0,0.0,0.0,0.0,0.0,0.0,0.0,0.0,0.0,0.0,0.0,0.0,0.0,0.0,0.0,0.0,0.0,0.0,0.0,0.0,0.0,0.0,0.0,0.0,0.0,0.0,0.0,0.0,0.0,0.0,0.0,0.0,0.0,0.0,0.0,0.0,0.0,0.0,0.0,0.0,0.0,0.0,0.0,0.0,0.0,0.0,0.0,0.0,0.0,0.0,0.0,0.0,0.0,0.0,0.0,0.0,0.0,0.0,0.0,0.0,0.0,0.0,0.0,0.0,0.0,0.0,0.0,0.0,0.0,0.0,0.0,0.0,0.0,0.0,0.0,0.0,0.0,0.0,0.0,0.0,0.0,0.0,0.0,0.0,0.0,0.0,0.0,0.0,0.0,0.0,0.0,0.0,0.0,0.0,0.0,0.0,0.0,0.0,0.0,0.0,0.0,0.0,0.0,0.0,0.0,0.0,0.0,0.0,0.0,0.0,0.0,0.0,0.0,0.0,0.0,0.0,0.0,0.0,0.0,0.0,0.0,0.0,0.0,0.0,0.0,0.0,0.0,0.0,0.0,0.0,0.0,0.0,0.0,0.0,0.0,0.0,0.0,0.0,0.0,0.0,0.0,0.0,0.0,0.0,0.0,0.0,0.0,0.0,0.0,0.0,0.0,0.0,0.0,0.0,0.0,0.0,0.0,0.0,0.0,0.0,0.0,0.0,0.0,0.0,0.0,0.0,0.0,0.0,0.0,0.0,0.0,0.0,0.0,0.0,0.0,0.0,0.0,0.0,0.0,0.0,0.0,0.0,0.0,0.0,0.0,0.0,0.0,0.0,0.0,0.0,0.0,0.0,0.0,0.0,0.0,0.0,0.0,0.0,0.0,0.0,0.0,0.0,0.0,0.0,0.0,0.0,0.0,0.0,0.0,0.0,0.0,0.0,0.0,0.0,0.0,0.0,0.0,0.0,0.0,0.0,0.0,0.0,0.0,0.0,0.0,0.0,0.0,0.0,0.0,0.0,0.0,0.0,0.0,0.0,0.0,0.0,0.0,0.0,0.0,0.0,0.0,0.0,0.0,0.0,0.0,0.0,0.0,0.0,0.0,0.0,0.0,0.0,0.0,0.0,0.0,0.0,0.0,0.0,0.0,0.0,0.0,0.0,0.0,0.0,0.0,0.0,0.0,0.0,0.0,0.0,0.0,0.0,0.0,0.0,0.0,0.0,0.0,0.0,0.0,0.0,0.0,0.0,0.0,0.0,0.0,0.0,0.0,0.0,0.0,0.0,0.0,0.0,0.0,0.0,0.0,0.0,0.0,0.0,0.0,0.0,0.0,0.0,0.0,0.0,0.0,0.0,0.0,0.0,0.0,0.0,0.0,0.0,0.0,0.0,0.0,0.0,0.0,0.0,0.0,0.0,0.0,0.0,0.0,0.0,0.0,0.0,0.0,0.0,0.0,0.0,0.0,0.0,0.0,0.0,0.0,0.0,0.0,0.0,0.0,0.0,0.0,0.0,0.0,0.0,0.0,0.0,0.0,0.0,0.0,0.0,0.0,0.0,0.0,0.0,0.0,3.124,0.0,0.0,0.0,0.0,0.0,0.0,0.0,0.0,0.0,0.0,0.0,0.0,0.0,0.0,0.0,0.0,0.0,0.0,0.0,0.0,0.0,0.0,0.0,0.0,0.0,0.0,0.0,0.0,0.0,0.0,0.0,0.0,0.0,0.0,0.0,0.0,0.0,0.0,0.0,0.0,0.0,0.0,0.0,0.0,0.0,0.0,0.0,0.0,0.0,0.0,0.0,0.0,0.0,0.0,0.0,0.0,0.0,0.0,0.0,0.0,0.0,0.0,0.0,0.0,0.0,0.0,0.0,0.0,0.0,0.0,0.0,0.0,0.0,0.0,0.0,0.0,0.0,0.0,0.0,0.0,0.0,0.0,0.0,0.0,0.0,0.0,0.0,0.0,0.0,0.0,0.0,0.0,0.0,0.0,0.0,0.0,0.0,0.0,0.0,0.0,0.0,0.0,0.0,0.0,0.0,0.0,0.0,0.0,0.0,0.0,3.0402,3.056,3.0506,3.0303,2.9928,0.0,0.0,0.0,0.0,0.0,0.0,0.0,0.0,0.0,0.0,0.0,0.0,0.0,0.0,0.0,0.0,0.0,0.0,0.0,0.0,0.0,0.0,0.0,0.0,0.0,0.0,0.0,0.0,0.0,0.0,0.0,0.0,0.0,0.0,0.0,0.0,0.0,0.0,0.0,0.0,0.0,0.0,0.0,0.0,0.0,0.0,0.0,0.0,0.0,0.0,0.0,0.0,0.0,0.0,0.0,0.0,0.0,0.0,0.0,0.0,0.0,0.0,0.0,0.0,0.0,0.0,0.0,0.0,0.0,0.0,0.0,0.0,0.0,0.0,0.0,0.0,0.0,0.0,0.0,0.0,0.0,0.0,0.0,0.0,0.0,0.0,0.0,0.0,0.0,0.0,0.0,0.0,0.0,0.0,0.0,0.0,0.0,0.0,0.0,0.0,0.0,0.0,0.0,0.0,0.0,0.0,0.0,0.0,0.0,0.0,0.0,0.0,2.8599,2.8526,2.8003,0.0,0.0,0.0,0.0,0.0,0.0,0.0,0.0,0.0,0.0,0.0,0.0,0.0,0.0,0.0,0.0,0.0,0.0,0.0,0.0,0.0,0.0,0.0,0.0,0.0,0.0,0.0,0.0,0.0,0.0,0.0,0.0,0.0,0.0,0.0,0.0,0.0,0.0,0.0,0.0,0.0,0.0,0.0,0.0,0.0,0.0,0.0,0.0,0.0,0.0,0.0,0.0,0.0,0.0,0.0,0.0,0.0,0.0,0.0,0.0,0.0,0.0,0.0,0.0,0.0,0.0,0.0,0.0,0.0,0.0,0.0,0.0,0.0,0.0,0.0,0.0,0.0,0.0,0.0,0.0,0.0,0.0,0.0,0.0,0.0,0.0,0.0,0.0,0.0,0.0,0.0,0.0,0.0,0.0,0.0,0.0,0.0,0.0,0.0,0.0,0.0,0.0,0.0,0.0,0.0,0.0,0.0,0.0,0.0,0.0,2.6574,2.5759,2.6393,0.0,2.5337,0.0,0.0,0.0,0.0,0.0,0.0,0.0,0.0,0.0,0.0,0.0,0.0,0.0,0.0,0.0,0.0,0.0,0.0,0.0,0.0,0.0,0.0,0.0,0.0,0.0,0.0,0.0,0.0,0.0,0.0,0.0,0.0,0.0,0.0,0.0,0.0,0.0,0.0,0.0,0.0,0.0,0.0,0.0,0.0,0.0,0.0,0.0,0.0,0.0,0.0,0.0,0.0,0.0,0.0,0.0,0.0,0.0,0.0,0.0,0.0,0.0,0.0,0.0,0.0,0.0,0.0,0.0,0.0,0.0,0.0,0.0,0.0,0.0,0.0,0.0,0.0,0.0,0.0,0.0,0.0,0.0,0.0,0.0,0.0,0.0,0.0,0.0,0.0,0.0,0.0,0.0,0.0,0.0,0.0,0.0,0.0,0.0,0.0,0.0,0.0,0.0,0.0,0.0,0.0,0.0,0.0,0.0,0.0,0.0,0.0,2.3912,2.3143,2.3238,2.3154,0.0,0.0,0.0,0.0,0.0,0.0,0.0,0.0,0.0,0.0,0.0,0.0,0.0,0.0,0.0,0.0,0.0,0.0,0.0,0.0,0.0,0.0,0.0,0.0,0.0,0.0,0.0,0.0,0.0,0.0,0.0,0.0,0.0,0.0,0.0,0.0,0.0,0.0,0.0,0.0,0.0,0.0,0.0,0.0,0.0,0.0,0.0,0.0,0.0,0.0,0.0,0.0,0.0,0.0,0.0,0.0,0.0,0.0,0.0,0.0,0.0,0.0,0.0,0.0,0.0,0.0,0.0,0.0,0.0,0.0,0.0,0.0,0.0,0.0,0.0,0.0,0.0,0.0,0.0,0.0,0.0,0.0,0.0,0.0,0.0,0.0,0.0,0.0,0.0,0.0,0.0,0.0,0.0,0.0,0.0,0.0,0.0,0.0,0.0,0.0,0.0,0.0,0.0,0.0,0.0,0.0,0.0,0.0,0.0,0.0,2.1969,2.1158,2.0302,1.9805,1.9672,1.9732,0.0,0.0,0.0,0.0,0.0,0.0,0.0,0.0,0.0,0.0,0.0,0.0,0.0,0.0,0.0,0.0,0.0,0.0,0.0,0.0,0.0,0.0,0.0,0.0,0.0,0.0,0.0,0.0,0.0,0.0,0.0,0.0,0.0,0.0,0.0,0.0,0.0,0.0,0.0,0.0,0.0,0.0,0.0,0.0,0.0,0.0,0.0,0.0,0.0,0.0,0.0,0.0,0.0,0.0,0.0,0.0,0.0,0.0,0.0,0.0,0.0,0.0,0.0,0.0,0.0,0.0,0.0,0.0,0.0,0.0,0.0,0.0,0.0,0.0,0.0,0.0,0.0,0.0,0.0,0.0,0.0,0.0,0.0,0.0,0.0,0.0,0.0,0.0,0.0,0.0,0.0,0.0,0.0,0.0,0.0,0.0,0.0,0.0,0.0,0.0,0.0,0.0,0.0,0.0,0.0,0.0,0.0,0.0,2.0682,1.9691,1.8423,1.6927,1.6272,1.5761,0.0,0.0,0.0,0.0,0.0,0.0,0.0,0.0,0.0,0.0,0.0,0.0,0.0,0.0,0.0,0.0,0.0,0.0,0.0,0.0,0.0,0.0,0.0,0.0,0.0,0.0,0.0,0.0,0.0,0.0,0.0,0.0,0.0,0.0,0.0,0.0,0.0,0.0,0.0,0.0,0.0,0.0,0.0,0.0,0.0,0.0,0.0,0.0,0.0,0.0,0.0,0.0,0.0,0.0,0.0,0.0,0.0,0.0,0.0,0.0,0.0,0.0,0.0,0.0,0.0,0.0,0.0,0.0,0.0,0.0,0.0,0.0,0.0,0.0,0.0,0.0,0.0,0.0,0.0,0.0,0.0,0.0,0.0,0.0,0.0,0.0,0.0,0.0,0.0,0.0,0.0,0.0,0.0,0.0,0.0,0.0,0.0,0.0,0.0,0.0,0.0,0.0,0.0,0.0,0.0,0.0,0.0,0.0,0.0,1.7666,1.5473,1.3687,1.2601,1.1984,1.1622,0.0,0.0,0.0,0.0,0.0,0.0,0.0,0.0,0.0,0.0,0.0,0.0,0.0,0.0,0.0,0.0,0.0,0.0,0.0,0.0,0.0,0.0,0.0,0.0,0.0,0.0,0.0,0.0,0.0,0.0,0.0,0.0,0.0,0.0,0.0,0.0,0.0,0.0,0.0,0.0,0.0,0.0,0.0,0.0,0.0,0.0,0.0,0.0,0.0,0.0,0.0,0.0,0.0,0.0,0.0,0.0,0.0,0.0,0.0,0.0,0.0,0.0,0.0,0.0,0.0,0.0,0.0,0.0,0.0,0.0,0.0,0.0,0.0,0.0,0.0,0.0,0.0,0.0,0.0,0.0,0.0,0.0,0.0,0.0,0.0,0.0,0.0,0.0,0.0,0.0,0.0,0.0,0.0,0.0,0.0,0.0,0.0,0.0,0.0,0.0,0.0,0.0,0.0,0.0,0.0,0.0,0.0,0.0,0.0,1.3542,0.0,0.9269,0.8235,0.7707,0.7602,0.0,0.0,0.0,0.0,0.0,0.0,0.0,0.0,0.0,0.0,0.0,0.0,0.0,0.0,0.0,0.0,0.0,0.0,0.0,0.0,0.0,0.0,0.0,0.0,0.0,0.0,0.0,0.0,0.0,0.0,0.0,0.0,0.0,0.0,0.0,0.0,0.0,0.0,0.0,0.0,0.0,0.0,0.0,0.0,0.0,0.0,0.0,0.0,0.0,0.0,0.0,0.0,0.0,0.0,0.0,0.0,0.0,0.0,0.0,0.0,0.0,0.0,0.0,0.0,0.0,0.0,0.0,0.0,0.0,0.0,0.0,0.0,0.0,0.0,0.0,0.0,0.0,0.0,0.0,0.0,0.0,0.0,0.0,0.0,0.0,0.0,0.0,0.0,0.0,0.0,0.0,0.0,0.0,0.0,0.0,0.0,0.0,0.0,0.0,0.0,0.0,0.0,0.0,0.0,0.0,0.0,0.0,0.0,1.2056,0.8312,0.6589,0.5117,0.4048,0.3545,0.3606,0.0,0.0,0.0,0.0,0.0,0.0,0.0,0.0,0.0,0.0,0.0,0.0,0.0,0.0,0.0,0.0,0.0,0.0,0.0,0.0,0.0,0.0,0.0,0.0,0.0,0.0,0.0,0.0,0.0,0.0,0.0,0.0,0.0,0.0,0.0,0.0,0.0,0.0,0.0,0.0,0.0,0.0,0.0,0.0,0.0,0.0,0.0,0.0,0.0,0.0,0.0,0.0,0.0,0.0,0.0,0.0,0.0,0.0,0.0,0.0,0.0,0.0,0.0,0.0,0.0,0.0,0.0,0.0,0.0,0.0,0.0,0.0,0.0,0.0,0.0,0.0,0.0,0.0,0.0,0.0,0.0,0.0,0.0,0.0,0.0,0.0,0.0,0.0,0.0,0.0,0.0,0.0,0.0,0.0,0.0,0.0,0.0,0.0,0.0,0.0,0.0,0.0,0.0,0.0,0.0,0.0,0.0,0.0,0.0,0.3518,0.1577,-0.0075,-0.1309,-0.1361,-0.091,0.0,0.0,0.0,0.0,0.0,0.0,0.0,0.0,0.0,0.0,0.0,0.0,0.0,0.0,0.0,0.0,0.0,0.0,0.0,0.0,0.0,0.0,0.0,0.0,0.0,0.0,0.0,0.0,0.0,0.0,0.0,0.0,0.0,0.0,0.0,0.0,0.0,0.0,0.0,0.0,0.0,0.0,0.0,0.0,0.0,0.0,0.0,0.0,0.0,0.0,0.0,0.0,0.0,0.0,0.0,0.0,0.0,0.0,0.0,0.0,0.0,0.0,0.0,0.0,0.0,0.0,0.0,0.0,0.0,0.0,0.0,0.0,0.0,0.0,0.0,0.0,0.0,0.0,0.0,0.0,0.0,0.0,0.0,0.0,0.0,0.0,0.0,0.0,0.0,0.0,0.0,0.0,0.0,0.0,0.0,0.0,0.0,0.0,0.0,0.0,0.0,0.0,0.0,0.0,0.0,0.0,0.0,0.0,0.0,-0.3298,-0.4052,-0.5032,-0.6234,-0.5951,-0.5111,-0.3557,0.0,0.0,0.0,0.0,0.0,0.0,0.0,0.0,0.0,0.0,0.0,0.0,0.0,0.0,0.0,0.0,0.0,0.0,0.0,0.0,0.0,0.0,0.0,0.0,0.0,0.0,0.0,0.0,0.0,0.0,0.0,0.0,0.0,0.0,0.0,0.0,0.0,0.0,0.0,0.0,0.0,0.0,0.0,0.0,0.0,0.0,0.0,0.0,0.0,0.0,0.0,0.0,0.0,0.0,0.0,0.0,0.0,0.0,0.0,0.0,0.0,0.0,0.0,0.0,0.0,0.0,0.0,0.0,0.0,0.0,0.0,0.0,0.0,0.0,0.0,0.0,0.0,0.0,0.0,0.0,0.0,0.0,0.0,0.0,0.0,0.0,0.0,0.0,0.0,0.0,0.0,0.0,0.0,0.0,0.0,0.0,0.0,0.0,0.0,0.0,0.0,0.0,0.0,0.0,0.0,0.0,0.0,0.0,-1.1533,-1.0204,-0.9919,-1.0744,-1.0323,-0.904,0.0,0.0,0.0,0.0,0.0,0.0,0.0,0.0,0.0,0.0,0.0,0.0,0.0,0.0,0.0,0.0,0.0,0.0,0.0,0.0,0.0,0.0,0.0,0.0,0.0,0.0,0.0,0.0,0.0,0.0,0.0,0.0,0.0,0.0,0.0,0.0,0.0,0.0,0.0,0.0,0.0,0.0,0.0,0.0,0.0,0.0,0.0,0.0,0.0,0.0,0.0,0.0,0.0,0.0,0.0,0.0,0.0,0.0,0.0,0.0,0.0,0.0,0.0,0.0,0.0,0.0,0.0,0.0,0.0,0.0,0.0,0.0,0.0,0.0,0.0,0.0,0.0,0.0,0.0,0.0,0.0,0.0,0.0,0.0,0.0,0.0,0.0,0.0,0.0,0.0,0.0,0.0,0.0,0.0,0.0,0.0,0.0,0.0,0.0,0.0,0.0,0.0,0.0,0.0,0.0,0.0,0.0,0.0,0.0,-1.4739,-1.674,-1.7025,-1.5648,-1.4632,-1.3058,0.0,0.0,0.0,0.0,0.0,0.0,0.0,0.0,0.0,0.0,0.0,0.0,0.0,0.0,0.0,0.0,0.0,0.0,0.0,0.0,0.0,0.0,0.0,0.0,0.0,0.0,0.0,0.0,0.0,0.0,0.0,0.0,0.0,0.0,0.0,0.0,0.0,0.0,0.0,0.0,0.0,0.0,0.0,0.0,0.0,0.0,0.0,0.0,0.0,0.0,0.0,0.0,0.0,0.0,0.0,0.0,0.0,0.0,0.0,0.0,0.0,0.0,0.0,0.0,0.0,0.0,0.0,0.0,0.0,0.0,0.0,0.0,0.0,0.0,0.0,0.0,0.0,0.0,0.0,0.0,0.0,0.0,0.0,0.0,0.0,0.0,0.0,0.0,0.0,0.0,0.0,0.0,0.0,0.0,0.0,0.0,0.0,0.0,0.0,0.0,0.0,0.0,0.0,0.0,0.0,0.0,0.0,0.0,-1.4609,-1.8246,-2.1223,-2.2493,-2.178,-1.934,-1.708,0.0,0.0,0.0,0.0,0.0,0.0,0.0,0.0,0.0,0.0,0.0,0.0,0.0,0.0,0.0,0.0,0.0,0.0,0.0,0.0,0.0,0.0,0.0,0.0,0.0,0.0,0.0,0.0,0.0,0.0,0.0,0.0,0.0,0.0,0.0,0.0,0.0,0.0,0.0,0.0,0.0,0.0,0.0,0.0,0.0,0.0,0.0,0.0,0.0,0.0,0.0,0.0,0.0,0.0,0.0,0.0,0.0,0.0,0.0,0.0,0.0,0.0,0.0,0.0,0.0,0.0,0.0,0.0,0.0,0.0,0.0,0.0,0.0,0.0,0.0,0.0,0.0,0.0,0.0,0.0,0.0,0.0,0.0,0.0,0.0,0.0,0.0,0.0,0.0,0.0,0.0,0.0,0.0,0.0,0.0,0.0,0.0,0.0,0.0,0.0,0.0,0.0,0.0,0.0,0.0,0.0,0.0,0.0,-1.8046,-2.1525,-2.4431,-2.6574,-2.7845,-2.4005,-2.0967,0.0,0.0,0.0,0.0,0.0,0.0,0.0,0.0,0.0,0.0,0.0,0.0,0.0,0.0,0.0,0.0,0.0,0.0,0.0,0.0,0.0,0.0,0.0,0.0,0.0,0.0,0.0,0.0,0.0,0.0,0.0,0.0,0.0,0.0,0.0,0.0,0.0,0.0,0.0,0.0,0.0,0.0,0.0,0.0,0.0,0.0,0.0,0.0,0.0,0.0,0.0,0.0,0.0,0.0,0.0,0.0,0.0,0.0,0.0,0.0,0.0,0.0,0.0,0.0,0.0,0.0,0.0,0.0,0.0,0.0,0.0,0.0,0.0,0.0,0.0,0.0,0.0,0.0,0.0,0.0,0.0,0.0,0.0,0.0,0.0,0.0,0.0,0.0,0.0,0.0,0.0,0.0,0.0,0.0,0.0,0.0,0.0,0.0,0.0,0.0,0.0,0.0,0.0,0.0,0.0,0.0,0.0,0.0,-2.0652,-2.3625,-2.6701,-2.8716,-2.9484,-2.6641,-2.4417,0.0,0.0,0.0,0.0,0.0,0.0,0.0,0.0,0.0,0.0,0.0,0.0,0.0,0.0,0.0,0.0,0.0,0.0,0.0,0.0,0.0,0.0,0.0,0.0,0.0,0.0,0.0,0.0,0.0,0.0,0.0,0.0,0.0,0.0,0.0,0.0,0.0,0.0,0.0,0.0,0.0,0.0,0.0,0.0,0.0,0.0,0.0,0.0,0.2381,0.0,0.0,0.0,0.0,0.0,0.0,0.0,0.0,0.0,0.0,0.0,0.0,0.0,0.0,0.0,0.0,0.0,0.0,0.0,0.0,0.0,0.0,0.0,0.0,0.0,0.0,0.0,0.0,0.0,0.0,0.0,0.0,0.0,0.0,0.0,0.0,0.0,0.0,0.0,0.0,0.0,0.0,0.0,0.0,0.0,0.0,0.0,0.0,0.0,0.0,0.0,0.0,0.0,0.0,0.0,0.0,0.0,0.0,0.0,-2.3203,-2.57,-2.8739,-3.0553,-3.1003,-2.9603,-2.7931,0.0,0.0,0.0,0.0,0.0,0.0,0.0,0.0,0.0,0.0,0.0,0.0,0.0,0.0,0.0,0.0,0.0,0.0,0.0,0.0,0.0,0.0,0.0,0.0,0.0,0.0,0.0,0.0,0.0,0.0,0.0,0.0,0.0,0.0,0.0,0.0,0.0,0.0,0.0,0.0,0.0,0.0,0.0,0.0,0.0,0.0,0.0,0.0,0.0,0.0,0.0,0.0,0.0,0.0,0.0,0.0,0.0,0.0,0.0,0.0,0.0,0.0,0.0,0.0,0.0,0.0,0.0,0.0,0.0,0.0,0.0,0.0,0.0,0.0,0.0,0.0,0.0,0.0,0.0,0.0,0.0,0.0,0.0,0.0,0.0,0.0,0.0,0.0,0.0,0.0,0.0,0.0,0.0,0.0,0.0,0.0,0.0,0.0,0.0,0.0,0.0,0.0,0.0,0.0,0.0,0.0,0.0,-2.2592,-2.5459,-2.7635,-3.0352,-3.1971,-3.2284,-3.2117,-3.0811,-2.8259,0.0,0.0,0.0,0.0,0.0,0.0,0.0,0.0,0.0,0.0,0.0,0.0,0.0,0.0,0.0,0.0,0.0,0.0,0.0,0.0,0.0,0.0,0.0,0.0,0.0,0.0,0.0,0.0,0.0,0.0,0.0,0.0,0.0,0.0,0.0,0.0,0.0,0.0,-1.0246,-1.45,0.0,0.0,0.0,0.0,0.0,0.0,0.0,0.0,-0.935,0.0,0.0,0.0,0.0,0.0,0.0,0.0,0.0,0.0,0.0,0.0,0.0,0.0,0.0,0.0,0.0,0.0,0.0,0.0,0.0,0.0,0.0,0.0,0.0,0.0,0.0,0.0,0.0,0.0,0.0,0.0,0.0,0.0,0.0,0.0,0.0,0.0,0.0,0.0,0.0,0.0,0.0,0.0,0.0,0.0,0.0,0.0,0.0,0.0,0.0,0.0,0.0,0.0,0.0,0.0,0.0,-2.2073,-2.4471,-2.6841,-2.9266,-3.1191,-3.2236,-3.2321,-3.2484,-3.164,-2.963,0.0,0.0,0.0,0.0,0.0,0.0,0.0,0.0,0.0,0.0,0.0,0.0,0.0,0.0,0.0,0.0,0.0,0.0,0.0,0.0,0.0,0.0,0.0,0.0,0.0,0.0,0.0,0.0,0.0,0.0,0.0,0.0,0.0,0.0,0.0,0.0,0.0,0.0,0.0,-2.0287,-2.2218,0.0,0.0,0.0,0.0,0.0,0.0,0.0,0.0,-1.3336,0.0,0.0,0.0,0.0,0.0,0.0,0.0,0.0,0.0,0.0,0.0,0.0,0.0,0.0,0.0,0.0,0.0,0.0,0.0,0.0,0.0,0.0,0.0,0.0,0.0,0.0,0.0,0.0,0.0,0.0,0.0,0.0,0.0,0.0,0.0,0.0,0.0,0.0,0.0,0.0,0.0,0.0,0.0,0.0,0.0,0.0,0.0,0.0,0.0,0.0,0.0,0.0,0.0,0.0,0.0,-2.4493,-2.6395,-2.8366,-3.0468,-3.2095,-3.2828,-3.2628,-3.2713,-3.1773,0.0,0.0,0.0,0.0,0.0,0.0,0.0,0.0,0.0,0.0,0.0,0.0,0.0,0.0,0.0,0.0,0.0,0.0,0.0,0.0,0.0,0.0,0.0,0.0,0.0,0.0,0.0,0.0,0.0,0.0,0.0,0.0,0.0,0.0,0.0,0.0,0.0,0.0,0.0,0.0,-2.3939,-2.5499,-2.6269,0.0,0.0,0.0,0.0,0.0,0.0,-2.1488,-1.9547,0.0,0.0,0.0,0.0,0.0,0.0,0.0,0.0,0.0,0.0,0.0,0.0,0.0,0.0,0.0,0.0,0.0,0.0,0.0,0.0,0.0,0.0,0.0,0.0,0.0,0.0,0.0,0.0,0.0,0.0,0.0,0.0,0.0,0.0,0.0,0.0,0.0,0.0,0.0,0.0,0.0,0.0,0.0,0.0,0.0,0.0,0.0,0.0,0.0,0.0,0.0,0.0,0.0,0.0,0.0,-2.6275,-2.7897,-2.9617,-3.1453,-3.2727,-3.3225,-3.2947,-3.2842,-3.1698,0.0,0.0,0.0,0.0,0.0,0.0,0.0,0.0,0.0,0.0,0.0,0.0,0.0,0.0,0.0,0.0,0.0,0.0,0.0,0.0,0.0,0.0,0.0,0.0,0.0,0.0,0.0,0.0,0.0,0.0,0.0,0.0,0.0,0.0,0.0,0.0,0.0,0.0,0.0,0.0,0.0,-2.8224,-2.8817,-2.9159,0.0,0.0,0.0,0.0,-2.7454,-2.6078,0.0,0.0,0.0,0.0,0.0,0.0,0.0,0.0,0.0,0.0,0.0,0.0,0.0,0.0,0.0,0.0,0.0,0.0,0.0,0.0,0.0,0.0,0.0,0.0,0.0,0.0,0.0,0.0,0.0,0.0,0.0,0.0,0.0,0.0,0.0,0.0,0.0,0.0,0.0,0.0,0.0,0.0,0.0,0.0,0.0,0.0,0.0,0.0,0.0,0.0,0.0,0.0,0.0,0.0,0.0,0.0,-2.7073,-2.8371,-3.0113,-3.2168,-3.2716,-3.3005,-3.3066,-3.2843,-3.1604,0.0,0.0,0.0,0.0,0.0,0.0,0.0,0.0,0.0,0.0,0.0,0.0,0.0,0.0,0.0,0.0,0.0,0.0,0.0,0.0,0.0,0.0,0.0,0.0,0.0,0.0,0.0,0.0,0.0,0.0,0.0,0.0,0.0,0.0,0.0,0.0,0.0,0.0,0.0,0.0,0.0,-3.0465,-3.0894,-3.168,-3.2179,0.0,0.0,-3.0676,-3.0347,-2.9254,0.0,0.0,0.0,0.0,0.0,0.0,0.0,0.0,0.0,0.0,0.0,0.0,0.0,0.0,0.0,0.0,0.0,0.0,0.0,0.0,0.0,0.0,0.0,0.0,0.0,0.0,0.0,0.0,0.0,0.0,0.0,0.0,0.0,0.0,0.0,0.0,0.0,0.0,0.0,0.0,0.0,0.0,0.0,0.0,0.0,0.0,0.0,0.0,0.0,0.0,0.0,0.0,0.0,0.0,0.0,-2.7362,-2.8726,-2.987,-3.121,-3.2701,-3.3399,-3.3535,-3.306,-3.2755,-3.1478,0.0,0.0,0.0,0.0,0.0,0.0,0.0,0.0,0.0,0.0,0.0,0.0,0.0,0.0,0.0,0.0,0.0,0.0,0.0,0.0,0.0,0.0,0.0,0.0,0.0,0.0,0.0,0.0,0.0,0.0,0.0,0.0,0.0,0.0,0.0,0.0,0.0,0.0,0.0,0.0,0.0,0.0,-3.2067,-3.2444,0.0,0.0,0.0,-3.1612,-3.1076,0.0,0.0,0.0,0.0,0.0,0.0,0.0,0.0,0.0,0.0,0.0,0.0,0.0,0.0,0.0,0.0,0.0,0.0,0.0,0.0,0.0,0.0,0.0,0.0,0.0,0.0,0.0,0.0,0.0,0.0,0.0,0.0,0.0,0.0,0.0,0.0,0.0,0.0,0.0,0.0,0.0,0.0,0.0,0.0,0.0,0.0,0.0,0.0,0.0,0.0,0.0,0.0,0.0,0.0,0.0,0.0,0.0,-2.9687,-3.092,-3.2019,-3.2973,-3.3901,-3.3989,-3.325,-3.2712,0.0,0.0,0.0,0.0,0.0,0.0,0.0,0.0,0.0,0.0,0.0,0.0,0.0,0.0,0.0,0.0,0.0,0.0,0.0,0.0,0.0,0.0,0.0,0.0,0.0,0.0,0.0,-2.4464,0.0,0.0,0.0,0.0,0.0,0.0,0.0,0.0,0.0,0.0,0.0,0.0,0.0,0.0,-3.2306,-3.2915,-3.3037,-3.2996,0.0,0.0,-3.2181,-3.1596,-3.1174,-3.0664,0.0,0.0,0.0,0.0,0.0,0.0,0.0,0.0,0.0,0.0,0.0,0.0,0.0,0.0,0.0,0.0,0.0,0.0,0.0,0.0,0.0,0.0,0.0,0.0,0.0,0.0,0.0,0.0,0.0,0.0,0.0,0.0,0.0,0.0,0.0,0.0,0.0,0.0,0.0,0.0,0.0,0.0,0.0,0.0,0.0,0.0,0.0,0.0,0.0,0.0,0.0,0.0,0.0,0.0,-2.8162,-2.9168,-3.0825,-3.2124,-3.2994,-3.3854,-3.4168,-3.384,-3.2787,-3.1541,0.0,0.0,0.0,0.0,0.0,0.0,0.0,0.0,0.0,0.0,0.0,0.0,0.0,0.0,0.0,0.0,0.0,0.0,0.0,0.0,0.0,0.0,0.0,0.0,0.0,0.0,0.0,0.0,0.0,0.0,0.0,0.0,0.0,0.0,0.0,0.0,0.0,0.0,0.0,0.0,0.0,-3.3683,-3.357,-3.3961,-3.4226,0.0,-3.3278,-3.2646,-3.259,-3.139,-3.0452,-3.0425,0.0,0.0,0.0,0.0,0.0,0.0,0.0,0.0,0.0,0.0,0.0,0.0,0.0,0.0,0.0,0.0,0.0,0.0,0.0,0.0,0.0,0.0,0.0,0.0,0.0,0.0,0.0,0.0,0.0,0.0,0.0,0.0,0.0,0.0,0.0,0.0,0.0,0.0,0.0,0.0,0.0,0.0,0.0,0.0,0.0,0.0,0.0,0.0,0.0,0.0,0.0,0.0,0.0,-2.8568,-2.9602,-3.1361,-3.2435,-3.2822,-3.4108,-3.4467,-3.3786,-3.2637,-3.1432,0.0,0.0,0.0,0.0,0.0,0.0,0.0,0.0,0.0,0.0,0.0,0.0,0.0,0.0,0.0,0.0,0.0,0.0,0.0,0.0,0.0,0.0,0.0,0.0,0.0,0.0,0.0,0.0,-2.6579,-2.6814,-2.6885,0.0,0.0,0.0,0.0,0.0,0.0,0.0,0.0,0.0,0.0,-3.3789,-3.4496,-3.4507,0.0,0.0,-3.3826,-3.3164,-3.2169,-3.1547,-3.1045,-3.0619,-3.0099,0.0,0.0,0.0,0.0,0.0,0.0,0.0,0.0,0.0,0.0,0.0,0.0,0.0,0.0,0.0,0.0,0.0,0.0,0.0,0.0,0.0,0.0,0.0,0.0,0.0,0.0,0.0,0.0,0.0,0.0,0.0,0.0,0.0,0.0,0.0,0.0,0.0,0.0,0.0,0.0,0.0,0.0,0.0,0.0,0.0,0.0,0.0,0.0,0.0,0.0,0.0,0.0,-2.8683,-2.9975,-3.1565,-3.2542,-3.2832,-3.4198,-3.4585,-3.3884,-3.2793,-3.1708,0.0,0.0,0.0,0.0,0.0,0.0,0.0,0.0,0.0,0.0,0.0,0.0,0.0,0.0,0.0,0.0,0.0,0.0,0.0,0.0,0.0,0.0,0.0,0.0,0.0,0.0,0.0,0.0,-2.7042,-2.738,-2.7789,0.0,0.0,0.0,0.0,0.0,0.0,0.0,0.0,0.0,0.0,-3.4039,-3.475,-3.4709,-3.449,-3.4278,-3.3931,-3.3281,-3.2203,-3.1685,-3.1217,-3.0724,0.0,0.0,0.0,0.0,0.0,0.0,0.0,0.0,0.0,0.0,0.0,0.0,0.0,0.0,0.0,0.0,0.0,0.0,0.0,0.0,0.0,0.0,0.0,0.0,0.0,0.0,0.0,0.0,0.0,0.0,-2.3495,0.0,0.0,0.0,0.0,0.0,0.0,0.0,0.0,0.0,0.0,0.0,0.0,0.0,0.0,0.0,0.0,0.0,0.0,0.0,0.0,0.0,0.0,-2.8352,-3.0172,-3.1323,-3.2327,-3.3154,-3.4038,-3.4442,-3.4242,-3.3356,-3.2354,-3.1279,0.0,0.0,0.0,0.0,0.0,0.0,0.0,0.0,0.0,0.0,0.0,0.0,0.0,0.0,0.0,0.0,0.0,0.0,0.0,0.0,0.0,0.0,0.0,0.0,0.0,0.0,-2.6098,-2.69,-2.7879,0.0,0.0,0.0,0.0,0.0,0.0,0.0,0.0,0.0,0.0,-3.4048,-3.4613,-3.4222,-3.4479,-3.4619,-3.4451,-3.3636,-3.3,-3.2931,-3.1685,-3.0733,0.0,0.0,0.0,0.0,0.0,0.0,0.0,0.0,0.0,0.0,0.0,0.0,0.0,0.0,0.0,0.0,0.0,0.0,0.0,0.0,0.0,0.0,0.0,0.0,0.0,0.0,0.0,-2.5682,-2.5621,0.0,0.0,0.0,0.0,0.0,0.0,0.0,0.0,0.0,0.0,0.0,-2.6621,-2.6992,0.0,0.0,0.0,0.0,0.0,0.0,0.0,0.0,0.0,0.0,0.0,0.0,-2.8691,-2.9646,-3.1206,-3.2236,-3.2656,-3.3593,-3.4105,-3.408,-3.3229,-3.2047,-3.0483,0.0,0.0,0.0,0.0,0.0,0.0,0.0,0.0,0.0,0.0,0.0,0.0,0.0,0.0,0.0,0.0,0.0,0.0,0.0,0.0,0.0,0.0,0.0,0.0,0.0,-2.7211,0.0,0.0,0.0,0.0,0.0,0.0,0.0,0.0,0.0,0.0,0.0,-3.3138,-3.3821,-3.4025,-3.4288,-3.4796,-3.4952,-3.4869,0.0,0.0,0.0,0.0,0.0,0.0,0.0,0.0,0.0,0.0,0.0,0.0,0.0,0.0,-2.2476,-1.9253,-1.5842,-1.2762,-1.0509,0.0,0.0,0.0,0.0,0.0,0.0,0.0,0.0,0.0,0.0,0.0,0.0,0.0,0.0,-2.6366,0.0,-2.6031,0.0,0.0,0.0,0.0,0.0,0.0,0.0,0.0,-2.6458,-2.6895,-2.7137,-2.7416,-2.7607,0.0,-2.7987,-2.7729,0.0,0.0,0.0,0.0,0.0,0.0,0.0,0.0,-2.8882,-2.9867,-3.1208,-3.2148,-3.2665,-3.3378,-3.3788,-3.3895,-3.3096,-3.199,-3.0527,-2.9655,-2.9077,0.0,0.0,0.0,0.0,0.0,0.0,0.0,0.0,0.0,0.0,0.0,0.0,0.0,0.0,0.0,0.0,0.0,0.0,0.0,0.0,0.0,0.0,0.0,-2.7814,0.0,0.0,0.0,0.0,0.0,0.0,0.0,0.0,0.0,-3.2453,-3.2763,-3.3169,-3.3844,-3.4005,-3.4269,-3.4915,0.0,0.0,0.0,0.0,0.0,0.0,0.0,-3.1269,-3.1196,-3.0789,-3.0362,-2.99,-2.8816,-2.7816,-2.7131,0.0,0.0,-2.1081,-1.8562,-1.6311,-1.4734,-1.3933,-1.3646,-1.4037,-1.4477,-1.4866,0.0,0.0,0.0,0.0,0.0,0.0,0.0,0.0,-2.7339,-2.7161,0.0,-2.624,0.0,0.0,0.0,0.0,0.0,-2.5894,0.0,0.0,-2.6516,-2.6738,-2.7044,-2.7087,-2.7243,-2.7522,-2.772,-2.7802,-2.7737,-2.7333,0.0,0.0,0.0,0.0,0.0,0.0,-2.8939,-3.0785,-3.1323,-3.2063,-3.3136,-3.3386,-3.3549,-3.3662,-3.2983,-3.2247,-3.1439,-3.0632,-2.9843,-2.9108,-2.9035,0.0,0.0,0.0,0.0,0.0,0.0,0.0,0.0,0.0,0.0,0.0,0.0,0.0,0.0,0.0,0.0,0.0,0.0,0.0,0.0,-2.7367,0.0,0.0,0.0,0.0,0.0,0.0,0.0,0.0,0.0,0.0,-3.1666,-3.2805,-3.3547,-3.326,0.0,0.0,0.0,0.0,-3.5274,-3.5224,-3.4035,-3.3125,-3.3127,-3.1892,-3.0952,-3.0975,0.0,0.0,-2.951,-2.8306,-2.7238,-2.6378,-2.5476,-2.414,-2.2392,-2.0256,-1.8441,-1.7312,-1.6566,-1.6212,-1.6134,-1.6097,-1.6087,-2.3208,0.0,0.0,0.0,0.0,-2.6497,-2.71,-2.7775,-2.7743,-2.7765,-2.7701,-2.7259,0.0,0.0,0.0,0.0,0.0,0.0,-2.6778,-2.6995,-2.7674,-2.8031,-2.8171,-2.84,-2.8521,-2.8672,-2.8894,-2.9026,-2.9081,-2.8472,-2.794,-2.7534,0.0,0.0,0.0,0.0,-2.9671,-3.0537,-3.1516,-3.2276,-3.283,-3.3165,-3.3481,-3.3698,-3.3018,-3.258,-3.2323,-3.1065,-3.0263,-3.0064,-2.951,0.0,0.0,0.0,0.0,0.0,0.0,0.0,0.0,0.0,0.0,0.0,0.0,0.0,0.0,0.0,0.0,0.0,0.0,0.0,-2.7611,-2.7629,-2.7725,0.0,0.0,0.0,0.0,0.0,0.0,0.0,0.0,0.0,-3.1489,-3.2205,-3.2963,0.0,0.0,-3.423,-3.4438,-3.4814,-3.4811,-3.4343,-3.3506,0.0,0.0,-3.1532,-3.0871,-3.0814,-3.0568,-3.0208,-2.9686,-2.8946,-2.82,-2.7433,-2.6115,-2.4779,-2.3526,-2.1732,-2.0137,-1.9356,-1.8661,-1.8023,-1.7556,-1.7286,-1.689,-2.3587,-2.4642,-2.4973,-2.5664,-2.6685,-2.709,-2.7587,-2.8167,-2.8111,-2.8069,-2.7955,-2.764,-2.7214,-2.6707,-2.6657,0.0,0.0,0.0,-2.743,-2.7542,-2.8211,-2.8525,-2.8621,-2.8858,-2.8998,-2.9029,-2.9321,-2.9502,-2.9608,-2.9219,-2.8871,-2.8547,0.0,0.0,-2.8549,-2.9291,-3.009,-3.0817,-3.1669,-3.23,-3.2784,-3.3196,-3.3491,-3.3643,-3.333,-3.3029,-3.2723,-3.1584,-3.0843,-3.059,-2.9813,-2.939,0.0,0.0,0.0,0.0,0.0,0.0,0.0,0.0,0.0,0.0,0.0,-2.777,-2.737,0.0,0.0,0.0,-2.7218,-2.7443,-2.7662,-2.7572,0.0,0.0,0.0,0.0,0.0,0.0,0.0,-2.9667,-3.0029,-3.0488,-3.0973,-3.132,-3.2039,-3.3436,-3.3787,-3.4037,-3.4399,0.0,-3.4067,-3.3746,-3.2945,-3.222,-3.1959,-3.1274,-3.0692,-3.0626,-3.0316,-3.0017,-2.9681,-2.9152,-2.8463,-2.762,-2.6476,-2.5236,-2.4311,-2.2827,-2.1427,-2.0415,-1.9584,-1.8948,-1.8353,-1.7804,-1.7168,-2.3929,-2.5402,-2.62,-2.6814,-2.7398,-2.7958,-2.8449,-2.8776,-2.8423,-2.8198,-2.7955,-2.7554,-2.7335,-2.7181,-2.7167,0.0,-2.7233,-2.7755,-2.8005,-2.802,-2.8266,-2.8444,-2.8573,-2.8747,-2.8826,-2.892,-2.9152,-2.935,-2.9518,-2.9653,-2.9786,-2.9886,-2.8589,-2.8314,-2.9198,-2.9468,-3.0224,-3.1449,-3.1841,-3.2283,-3.2916,-3.3357,-3.3587,-3.3633,-3.3807,-3.3615,-3.2952,-3.227,-3.1582,-3.0828,-3.0051,-2.9587,-2.9531,0.0,0.0,0.0,0.0,0.0,0.0,0.0,0.0,0.0,0.0,0.0,0.0,0.0,0.0,-2.7296,-2.7016,0.0,-2.7303,-2.738,0.0,0.0,0.0,-2.912,-2.938,-2.9589,-2.9661,-2.9589,0.0,0.0,-3.0259,-3.0307,-3.0991,-3.274,-3.3403,-3.3772,-3.4038,-3.3389,-3.2999,-3.331,-3.2319,-3.155,-3.1615,-3.1024,-3.0501,-3.0417,-3.0205,-2.993,-2.9531,-2.8982,-2.8255,-2.7449,-2.6467,-2.5481,-2.4667,-2.3585,-2.2406,-2.0723,-1.9863,-1.9193,-1.8742,-1.8016,-1.7241,-2.466,-2.6408,-2.7577,-2.8284,-2.8621,-2.8972,-2.9155,-2.9078,-2.9112,-2.871,-2.797,-2.7604,-2.7248,-2.7055,-2.713,-2.7248,-2.7401,-2.7806,-2.8005,-2.8005,-2.825,-2.8411,-2.8444,-2.87,-2.8794,-2.8826,-2.9167,-2.9366,-2.9518,-2.9653,-2.9786,-2.9973,-2.9717,-2.9763,-3.0095,-3.0368,-3.0796,-3.1504,-3.1912,-3.2506,-3.3201,-3.3462,-3.3661,-3.3753,-3.3895,-3.3931,-3.3852,-3.3143,-3.2471,-3.1794,-3.0954,-3.0225,-2.9683,-2.9664,0.0,0.0,0.0,0.0,0.0,0.0,0.0,0.0,0.0,-2.8344,-2.8254,0.0,-2.7207,0.0,-2.6641,-2.6542,-2.695,-2.7009,0.0,0.0,-2.7947,-2.8352,-2.8701,-2.8935,-2.9074,-2.9074,-2.8997,-2.9187,-2.9684,-2.9793,-3.0139,-3.1087,-3.1639,-3.2013,-3.2078,-3.2096,-3.2028,-3.1847,-3.156,-3.1221,-3.0907,-3.0659,-3.0485,-3.0401,-3.0274,-2.9973,-2.9425,-2.8997,-2.8367,-2.7348,-2.6414,-2.5508,-2.4654,-2.3662,-2.2555,-2.1507,-2.0705,-1.9976,-1.9059,-1.8386,-1.7624,-2.5426,-2.7072,-2.863,-2.9647,-3.0221,-3.0152,-3.0008,-2.9827,-2.9504,-2.8947,-2.8152,-2.769,-2.735,-2.7093,-2.7284,-2.7423,-2.7488,-2.789,-2.8103,-2.8088,-2.8314,-2.846,-2.8493,-2.87,-2.8842,-2.892,-2.9167,-2.9412,-2.9563,-2.971,-2.9826,-3.0017,-3.0231,-3.0443,-3.0593,-3.0804,-3.1162,-3.16,-3.2214,-3.282,-3.3322,-3.3491,-3.3671,-3.3807,-3.3921,-3.4074,-3.4179,-3.351,-3.2817,-3.2137,-3.1314,-3.049,-2.9757,-2.9701,-2.9701,0.0,0.0,0.0,0.0,0.0,0.0,0.0,0.0,0.0,0.0,0.0,-2.6972,-2.6404,-2.6031,-2.5907,-2.5983,-2.6187,-2.6467,-2.6834,-2.7195,-2.7665,-2.814,-2.8398,-2.8527,-2.859,-2.851,-2.8616,-2.8839,-2.8935,-2.9107,-2.9593,-2.9969,-3.056,-3.1245,-3.1326,-3.1193,-3.1307,-3.1008,-3.081,-3.0559,-3.0609,-3.0435,-3.0013,-2.9781,-2.9404,-2.8519,-2.7994,-2.7411,-2.6451,-2.5543,-2.4771,-2.3903,-2.2961,-2.2046,-2.1188,-2.0519,-1.9843,-1.9179,-1.8446,-1.7476,-2.6302,-2.7841,-2.9462,-3.0793,-3.1667,-3.1287,-3.0944,-3.0608,-2.9825,-2.9061,-2.8348,-2.7825,-2.7488,-2.7284,-2.7524,-2.7625,-2.7725,-2.8088,-2.8235,-2.8235,-2.8396,-2.8508,-2.8621,-2.8779,-2.892,-2.9075,-2.9305,-2.947,-2.9726,-2.9826,-2.9957,-3.006,-3.0401,-3.0658,-3.0885,-3.1106,-3.1397,-3.1823,-3.2621,-3.3152,-3.3393,-3.3549,-3.3671,-3.3815,-3.3947,-3.4074,-3.4203,-3.3687,-3.3013,-3.2159,-3.1447,-3.064,-2.9756,-2.9682,-2.9664,0.0,-2.9588,0.0,0.0,0.0,0.0,0.0,0.0,0.0,0.0,-2.7044,-2.6628,-2.5356,-2.519,-2.505,-2.4754,-2.5161,-2.5618,-2.6122,-2.6549,-2.7019,-2.7625,-2.775,-2.7868,-2.8073,-2.8061,-2.7981,-2.797,-2.8054,-2.825,-2.8473,-2.8621,-2.9281,-3.0593,-3.0639,-3.0583,-3.1095,-3.0576,-3.0219,-3.0285,-3.0325,-3.0085,-2.9417,-2.9099,-2.8501,-2.7508,-2.6882,-2.6274,-2.5379,-2.4597,-2.3761,-2.2937,-2.2115,-2.1281,-2.0519,-1.9889,-1.9421,-1.9062,-1.8247,-1.7304,-2.7486,-2.9185,-3.0586,-3.1429,-3.1856,-3.2147,-3.1839,-3.1011,-3.0335,-2.9339,-2.825,-2.789,-2.774,-2.769,-2.774,-2.789,-2.8088,-2.8299,-2.8444,-2.8525,-2.8652,-2.8747,-2.8794,-2.8951,-2.9091,-2.9121,-2.9515,-2.9722,-2.9782,-3.013,-3.0316,-3.0426,-3.0733,-3.0998,-3.1201,0.0,0.0,0.0,-3.2848,-3.3226,-3.3462,-3.3633,-3.378,-3.3947,-3.4049,0.0,-3.434,-3.4345,-3.3663,-3.2276,-3.2032,0.0,0.0,0.0,0.0,0.0,0.0,0.0,0.0,0.0,0.0,0.0,-2.7225,-2.7179,-2.6693,-2.5992,-2.508,-2.4013,-2.3891,-2.3917,-2.3859,-2.4266,-2.4738,-2.5328,-2.5825,-2.6365,-2.7034,-2.6781,-2.6812,-2.7464,-2.716,-2.704,-2.7455,-2.7806,-2.8073,-2.8176,-2.8124,-2.8275,-2.8905,-2.9483,-2.9948,-3.031,-2.9972,-2.953,-2.907,-2.9054,-2.9087,-2.8688,-2.8477,-2.8094,-2.74,-2.6828,-2.6198,-2.5275,-2.4447,-2.3575,-2.2897,-2.2076,-2.1182,-2.0435,-1.9784,-1.9213,-1.8537,-1.7895,-1.7101,-2.8716,0.0,-3.1087,-3.1751,0.0,-3.1983,-3.1644,-3.1196,-3.0608,-2.9627,-2.8462,-2.8284,-2.8137,-2.8103,-2.8137,-2.8284,-2.8381,-2.8541,-2.8621,-2.8732,-2.8811,-2.8905,-2.9045,-2.9213,-2.9335,-2.9454,-2.9722,-2.9957,-3.0087,-3.0359,-3.0526,-3.0658,-3.0982,-3.1274,-3.1542,-3.2004,-3.24,-3.2734,-3.3086,-3.3345,-3.3549,-3.3671,-3.3834,-3.3998,0.0,0.0,0.0,0.0,0.0,0.0,0.0,0.0,0.0,0.0,0.0,-2.9409,-2.916,-2.885,-2.8478,-2.7929,-2.7199,-2.6284,-2.544,-2.5163,-2.557,-2.4587,-2.3546,-2.2628,-2.2665,-2.2687,-2.2618,-2.3109,-2.3581,-2.3986,-2.4502,-2.5047,-2.5523,-2.5602,-2.5742,-2.6169,-2.6124,-2.6147,-2.6475,-2.6844,-2.7177,-2.7396,-2.7514,-2.7676,-2.8009,-2.842,-2.8832,-2.9206,-2.9264,-2.9113,-2.88,-2.8699,-2.8531,-2.8169,-2.7827,-2.7316,-2.6495,-2.5869,-2.5216,-2.4371,-2.3531,-2.2705,-2.1987,-2.1224,-2.0436,-1.978,-1.9179,-1.8554,-1.7802,-1.7322,-1.688,-2.9693,-3.0979,-3.1374,-3.1832,-3.2321,-3.1567,-3.1204,-3.115,0.0,0.0,0.0,-2.8716,-2.8621,-2.8556,-2.8621,-2.8716,-2.8716,-2.8826,-2.8951,-2.8997,-2.9013,-2.9152,-2.9396,-2.9515,-2.9613,-2.9675,-2.9864,-2.9969,-3.0063,-3.017,-3.0332,-3.0555,-3.0963,-3.1459,-3.1965,-3.2488,-3.283,-3.3006,-3.3286,-3.3481,-3.3615,-3.3753,-3.3887,-3.4005,-3.4148,-3.4269,-3.4386,-3.4364,-3.366,-3.2296,-3.2013,-3.1242,-2.9814,-2.9569,-2.9431,-2.9262,-2.8998,-2.8626,-2.8156,-2.7507,-2.6656,-2.5567,-2.3777,-2.3094,-2.4032,-2.3089,-2.2128,-2.1295,-2.1493,-2.1498,-2.1461,-2.1985,-2.2424,-2.2711,-2.3266,-2.3812,-2.4255,-2.4488,-2.4767,-2.5014,-2.521,-2.5339,-2.5597,-2.597,-2.6258,-2.6673,-2.6945,-2.7134,-2.7413,-2.7729,-2.8069,-2.8279,-2.8494,-2.8558,-2.8443,-2.8376,-2.8171,-2.7509,-2.7155,-2.6536,-2.5532,-2.4791,-2.4162,-2.3555,-2.2586,-2.1835,-2.1118,-2.0436,-1.9656,-1.9093,-1.8518,-1.7854,-1.7211,-1.6806,-1.6417,-3.0211,-3.1167,-3.152,-3.1643,-3.1609,-3.1676,-3.1314,-3.0549,-3.0048,-2.9582,-2.9213,-2.9075,-2.9029,-2.8982,-2.9045,-2.9075,-2.9213,-2.9213,-2.9321,0.0,-2.9502,-2.9592,-2.9653,-2.9989,-2.9776,-2.9279,-2.9494,-2.9403,-2.8898,-2.9055,-2.9225,-2.9547,-3.0328,-3.1359,-3.2506,-3.2884,-3.3183,-3.3436,-3.3452,-3.3577,-3.378,-3.3842,-3.3947,-3.4074,-3.4203,-3.4316,-3.4386,-3.3904,-3.318,-3.2258,-3.1525,-3.0716,-2.9777,-2.9492,-2.933,-2.9152,-2.8815,-2.8404,-2.7904,-2.7224,-2.6217,-2.4691,-2.3203,-2.228,-2.2111,-2.1398,-2.0686,-2.0062,-2.0275,-2.0475,-2.074,-2.1312,-2.1933,-2.2537,-2.3016,-2.3513,-2.4134,-2.394,-2.4053,-2.482,-2.4702,-2.4771,-2.539,-2.5925,-2.6284,-2.6635,-2.6659,-2.6525,-2.6688,-2.7465,-2.803,-2.7931,-2.7906,-2.7758,-2.7505,-2.7216,-2.7148,-2.6791,-2.6564,-2.6188,-2.5442,-2.4751,-2.412,-2.3436,-2.2526,-2.1698,-2.1091,-2.0346,-1.9643,-1.9093,-1.8398,-1.7733,-1.7112,-1.6472,-1.583,-3.0622,-3.1476,-3.1577,-3.1665,-3.1757,-3.15,-3.1115,-3.0675,-3.0359,-3.0,-2.971,-2.956,-2.9454,-2.9422,-2.9054,-2.8922,-2.895,-2.8613,-2.848,-2.8592,-2.8709,-2.8835,-2.8918,-2.9189,-2.9128,-2.887,-2.9104,-2.9147,-2.8938,-2.9013,-2.9193,-2.9506,-3.0208,-3.0885,-3.1538,-3.1828,-3.2079,-3.2311,-3.3195,-3.3698,-3.3788,-3.3497,-3.3401,-3.3451,-3.3227,-3.3075,-3.3097,-3.2852,-3.237,-3.1523,-3.111,-3.0489,-2.9587,-2.9372,-2.92,-2.8952,-2.8594,-2.8183,-2.7713,-2.659,-2.5362,-2.4011,-2.2869,-2.1907,-2.1238,-2.0773,-2.0299,-1.9895,-2.0053,-2.0203,-2.0423,-2.0926,-2.1388,-2.1821,-2.2173,-2.2622,-2.3062,-2.323,-2.3378,-2.3795,-2.3909,-2.4104,-2.4671,-2.5096,-2.5524,-2.5907,-2.6138,-2.6356,-2.6467,-2.7039,-2.7463,-2.7249,-2.7284,-2.7283,-2.7043,-2.6942,-2.6826,-2.6657,-2.6399,-2.5937,-2.5362,-2.4735,-2.412,-2.3407,-2.2586,-2.1841,-2.114,-2.0396,-1.9695,-1.8999,-1.8344,-1.7689,-1.6899,-1.5921,-1.5001,-3.0925,-3.1759,-3.1543,-3.1675,-3.1962,-3.1371,-3.1061,-3.0925,-3.0838,-3.051,-3.0002,-2.9783,-2.974,-2.9632,-2.8932,-2.8607,-2.8558,-2.8103,-2.7859,-2.7947,-2.8083,-2.8217,-2.8318,-2.8586,-2.8652,-2.8538,-2.8687,-2.8798,-2.8784,-2.8802,-2.9092,-2.9542,-2.9991,-3.035,-3.0657,-3.0948,-3.1156,-3.1411,-3.2676,-3.3353,-3.3316,-3.2878,-3.2659,-3.2627,-3.2244,-3.2014,-3.2016,-3.1894,-3.1541,-3.0921,-3.0657,-3.0167,-2.9429,-2.9286,-2.9067,-2.8785,-2.8414,-2.7933,-2.7303,-2.6038,-2.48,-2.3691,-2.2772,-2.1941,-2.1158,-2.0699,-2.0342,-2.0053,-2.0058,-2.0169,-2.0378,-2.0752,-2.1055,-2.1282,-2.165,-2.2099,-2.2324,-2.2709,-2.3024,-2.3068,-2.3421,-2.3797,-2.4094,-2.4467,-2.5013,-2.5589,-2.603,-2.6453,-2.6708,-2.6859,-2.6892,-2.6842,-2.6925,-2.7057,-2.7057,-2.6992,-2.6859,-2.6674,-2.6382,-2.5921,-2.5346,-2.4759,-2.4147,-2.3436,-2.2678,-2.1935,-2.1153,-2.0446,-1.9747,-1.8999,-1.829,-1.7512,-1.6446,-1.541,-1.441,-3.1108,-3.1563,-3.1426,-3.1453,-3.1661,-3.1593,-3.1411,-3.124,-3.1157,-3.0667,-2.9889,-2.9596,-2.9402,-2.9336,-2.8652,-2.8322,-2.8322,-2.8256,-2.819,-2.8196,-2.8455,-2.8531,-2.854,-2.8924,-2.8764,-2.8254,-2.8356,-2.8178,-2.7705,-2.773,-2.8194,-2.9077,-2.9447,-2.9996,-3.0785,-3.1109,-3.1327,-3.1477,-3.1811,-3.1974,-3.189,-3.1839,-3.1867,-3.1998,-3.1971,-3.2035,-3.1946,-3.1408,-3.0959,-3.0769,-3.0113,-2.9586,-2.9351,-2.9246,-2.9067,-2.8718,-2.8388,-2.7713,-2.6641,-2.5872,-2.5028,-2.3948,-2.3187,-2.2498,-2.1921,-2.1442,-2.0753,-2.0153,-1.9999,-2.0219,-2.0373,-2.0828,-2.126,-2.163,-2.203,-2.2449,-2.2663,-2.3038,-2.3304,-2.3523,-2.3782,-2.4109,-2.44,-2.4831,-2.5362,-2.6046,-2.6435,-2.6708,-2.6859,-2.699,-2.707,-2.7053,-2.7085,-2.7152,-2.7201,-2.7105,-2.6909,-2.6708,-2.64,-2.5937,-2.5346,-2.4759,-2.4162,-2.3451,-2.2737,-2.1969,-2.1188,-2.0446,-1.9747,-1.8934,-1.8116,-1.7268,-1.5921,-1.5001,-1.435,-3.1182,-3.1608,-3.172,-3.1839,-3.1965,-3.1929,-3.156,-3.1018,-3.0871,-3.0316,-2.951,-2.8887,-2.8736,-2.8876,-2.8194,-2.7881,-2.7938,-2.7484,-2.732,-2.7358,-2.7568,-2.7638,-2.769,-2.8047,-2.8038,-2.7794,-2.7917,-2.7866,-2.7694,-2.7824,-2.8184,-2.8647,-2.89,-2.929,-2.9708,-2.9965,-3.0088,-3.0206,-3.0312,-3.0376,-3.0453,-3.0863,-3.1145,-3.115,-3.082,-3.0579,-3.06,-3.032,-3.0152,-3.0075,-2.9718,-2.9471,-2.9307,-2.9156,-2.8952,-2.8637,-2.8101,-2.743,-2.659,-2.5997,-2.5351,-2.4542,-2.3906,-2.3348,-2.277,-2.242,-2.1974,-2.1486,-2.1064,-2.0988,-2.1267,-2.154,-2.1888,-2.2296,-2.2618,-2.2904,-2.3098,-2.3465,-2.3754,-2.3909,-2.4162,-2.4467,-2.4815,-2.5329,-2.5868,-2.6417,-2.6725,-2.6909,-2.7023,-2.7152,-2.7264,-2.7279,-2.7264,-2.7264,-2.7282,-2.7122,-2.6925,-2.6708,-2.6435,-2.5974,-2.5346,-2.4839,-2.4245,-2.3451,-2.2799,-2.2049,-2.1175,-2.051,-1.9862,-1.8869,-1.7567,-1.6549,-1.5584,-1.4942,-1.4282,-3.147,-3.1823,-3.1952,-3.1969,-3.1934,-3.1672,-3.1185,-3.0578,-3.0334,-2.9833,-2.9042,-2.8442,-2.8168,-2.8142,-2.7599,-2.7415,-2.7418,-2.6962,-2.6742,-2.6825,-2.7055,-2.7137,-2.7169,-2.7465,-2.7647,-2.7677,-2.7777,-2.7893,-2.7979,-2.8164,-2.8327,-2.851,-2.8712,-2.8863,-2.904,-2.9218,-2.931,-2.9392,-2.9454,-2.9512,-2.9643,-3.0131,-3.043,-3.0334,-2.9868,-2.9607,-2.9626,-2.9664,-2.9683,-2.9588,-2.9531,-2.9431,-2.9283,-2.9108,-2.8834,-2.8414,-2.7836,-2.723,-2.6624,-2.612,-2.561,-2.4997,-2.4517,-2.4021,-2.3537,-2.3246,-2.3068,-2.283,-2.236,-2.2183,-2.2204,-2.2426,-2.2709,-2.3068,-2.3246,-2.3421,-2.3653,-2.3967,-2.4204,-2.4313,-2.4614,-2.4974,-2.54,-2.5905,-2.6365,-2.6691,-2.6942,-2.7087,-2.7215,-2.7359,-2.7438,-2.7421,-2.7438,-2.7407,-2.7313,-2.7137,-2.6925,-2.6708,-2.64,-2.5974,-2.5362,-2.4895,-2.4313,-2.3508,-2.292,-2.2175,-2.1224,-2.056,-1.9708,-1.8525,-1.7279,-1.6104,-1.5468,-1.4824,-1.4231,-3.1985,-3.2315,-3.1841,-3.1523,-3.1405,-3.0607,-3.0127,-2.9962,-2.981,-2.9277,-2.8587,-2.8418,-2.7956,-2.7373,-2.7177,-2.7043,-2.7043,-2.7072,-2.7053,-2.7117,-2.7355,-2.7496,-2.7496,-2.7824,-2.7968,-2.7968,-2.8091,-2.8228,-2.8371,-2.838,-2.851,-2.8804,-2.8929,-2.9089,-2.9262,-2.9392,-2.9512,-2.9569,-2.9645,-2.9682,-2.9701,-2.9757,-2.9776,-2.972,-2.9645,-2.9626,-2.9664,-2.9701,-2.9645,-2.9512,-2.9511,-2.9412,-2.9222,-2.9067,-2.8676,-2.801,-2.7672,-2.723,-2.6674,-2.6225,-2.5738,-2.5169,-2.4815,-2.4426,-2.4009,-2.3839,-2.3739,-2.3696,-2.3595,-2.3406,-2.3039,-2.3157,-2.3363,-2.3551,-2.3852,-2.4063,-2.4261,-2.441,-2.4655,-2.4879,-2.5169,-2.5589,-2.6137,-2.6434,-2.6708,-2.6973,-2.7135,-2.7261,-2.7386,-2.7465,-2.7496,-2.7478,-2.7478,-2.7465,-2.739,-2.7029,-2.6821,-2.6556,-2.6184,-2.5911,-2.546,-2.495,-2.4256,-2.3565,-2.2905,-2.2175,-2.1286,-2.0346,-1.9371,-1.8244,-1.7045,-1.6046,-1.541,-1.4715,-1.4061,-3.1462,-3.1392,-3.1219,-3.1094,-3.0916,-3.0558,-3.0064,-2.947,-2.9374,-2.8842,-2.8119,-2.7971,-2.7783,-2.7522,-2.7478,-2.7386,-2.7279,-2.7324,-2.7386,-2.7465,-2.7707,-2.7824,-2.7853,-2.8109,-2.8246,-2.8273,-2.8388,-2.851,-2.8587,-2.8637,-2.8761,-2.8975,-2.9112,-2.9283,-2.9431,-2.9531,-2.9589,-2.9645,-2.9774,-2.981,-2.9774,-2.9754,-2.9736,-2.9664,-2.9645,-2.9683,-2.9701,-2.9701,-2.9645,-2.9511,-2.9453,-2.9372,-2.92,-2.8905,-2.85,-2.7954,-2.7659,-2.7261,-2.6725,-2.6365,-2.601,-2.5551,-2.5224,-2.4871,-2.4533,-2.4328,-2.4219,-2.4177,-2.4245,-2.4162,-2.4078,-2.3979,-2.4036,-2.4204,-2.441,-2.4614,-2.4791,-2.495,-2.5146,-2.5422,-2.5758,-2.6191,-2.6521,-2.6791,-2.7006,-2.723,-2.7355,-2.7434,-2.7496,-2.7509,-2.7557,-2.747,-2.7156,-2.6842,-2.677,-2.6554,-2.6302,-2.6078,-2.5749,-2.5287,-2.4855,-2.4752,-2.4189,-2.3445,-2.2818,-2.2081,-2.1175,-1.9888,-1.8951,-1.8038,-1.6832,-1.5989,-1.5352,-1.4656,-1.4061,-3.1182,-3.0921,-3.0704,-3.055,-3.0441,-3.0096,-2.9561,-2.8966,-2.8845,-2.8504,-2.8003,-2.7876,-2.7876,-2.7876,-2.7876,-2.7789,-2.7659,-2.7677,-2.7677,-2.7766,-2.7996,-2.8154,-2.8182,-2.8406,-2.8528,-2.8536,-2.8662,-2.8761,-2.8815,-2.8905,-2.9021,-2.92,-2.9326,-2.9451,-2.9551,-2.9644,-2.9716,-2.977,-2.9878,-2.9895,-2.9842,-2.9842,-2.9808,-2.9754,-2.9719,-2.9682,-2.9683,-2.9701,-2.9626,-2.9531,-2.9433,-2.931,-2.9093,-2.8785,-2.8414,-2.7971,-2.7672,-2.731,-2.6842,-2.6504,-2.6189,-2.5791,-2.5546,-2.524,-2.4934,-2.4751,-2.467,-2.463,-2.467,-2.4775,-2.4831,-2.4791,-2.4766,-2.4831,-2.4974,-2.513,-2.5323,-2.5416,-2.5626,-2.5977,-2.6349,-2.6708,-2.6956,-2.7117,-2.7307,-2.7509,-2.7569,-2.76,-2.7647,-2.7677,-2.7537,-2.7309,-2.6889,-2.6428,-2.6057,-2.5634,-2.5485,-2.5258,-2.5092,-2.4646,-2.4359,-2.4322,-2.4039,-2.3351,-2.2627,-2.1918,-2.0855,-1.9567,-1.859,-1.7831,-1.6888,-1.5931,-1.5294,-1.4656,-1.4061,-3.1162,-3.0976,-3.033,-2.9977,-2.9879,-2.9083,-2.8557,-2.8496,-2.8398,-2.8327,-2.8201,-2.8174,-2.8174,-2.8174,-2.8174,-2.8174,-2.8146,-2.8063,-2.8025,-2.8042,-2.8273,-2.838,-2.8406,-2.8662,-2.8785,-2.881,-2.8947,-2.9021,-2.9089,-2.9156,-2.9246,-2.9392,-2.9511,-2.9626,-2.9699,-2.9803,-2.9888,-2.9924,-2.9975,-2.9975,-2.9907,-2.991,-2.9822,-2.9713,-2.9641,-2.9568,-2.957,-2.9645,-2.9626,-2.9512,-2.9433,-2.9246,-2.8842,-2.8585,-2.8386,-2.7913,-2.7672,-2.7317,-2.6888,-2.6455,-2.6011,-2.5724,-2.5631,-2.5319,-2.5041,-2.5005,-2.5068,-2.5052,-2.5084,-2.5185,-2.5339,-2.547,-2.5448,-2.5333,-2.5416,-2.5659,-2.5807,-2.5881,-2.6118,-2.6556,-2.6859,-2.712,-2.7404,-2.7526,-2.76,-2.773,-2.7789,-2.7765,-2.7752,-2.7688,-2.7465,-2.6873,-2.6335,-2.583,-2.525,-2.4714,-2.4557,-2.4415,-2.4312,-2.4032,-2.3764,-2.3622,-2.3383,-2.2787,-2.2101,-2.1387,-2.0683,-1.9436,-1.8548,-1.7733,-1.6786,-1.5941,-1.5294,-1.4706,-1.4061,-3.0365,-2.9861,-2.9572,-2.9457,-2.9393,-2.8955,-2.8737,-2.8662,-2.8612,-2.8518,-2.8414,-2.8414,-2.838,-2.8353,-2.8362,-2.8414,-2.8414,-2.844,-2.8388,-2.8309,-2.851,-2.8637,-2.8712,-2.8905,-2.9044,-2.9134,-2.9181,-2.9206,-2.9249,-2.9351,-2.9451,-2.955,-2.9682,-2.9754,-2.982,-2.9886,-2.9934,-3.0038,-3.0072,-3.0038,-2.9972,-2.9975,-2.9642,-2.9047,-2.8955,-2.8678,-2.8139,-2.91,-2.9608,-2.9474,-2.9394,-2.8926,-2.815,-2.7828,-2.7309,-2.6561,-2.6176,-2.5837,-2.5466,-2.5188,-2.4979,-2.4711,-2.4814,-2.4843,-2.4772,-2.5013,-2.5214,-2.5285,-2.5365,-2.5529,-2.5621,-2.586,-2.5828,-2.5605,-2.5754,-2.5954,-2.6115,-2.633,-2.6641,-2.6989,-2.723,-2.7478,-2.7736,-2.7824,-2.7893,-2.7989,-2.8017,-2.7865,-2.7404,-2.7234,-2.6843,-2.6109,-2.5614,-2.5139,-2.4568,-2.4043,-2.3725,-2.3665,-2.3592,-2.3393,-2.3129,-2.2978,-2.2696,-2.2214,-2.1583,-2.0914,-2.0165,-1.9384,-1.8548,-1.7689,-1.6853,-1.6046,-1.5352,-1.4706,-1.4112,-2.9834,-2.9453,-2.9351,-2.9328,-2.9286,-2.9112,-2.8998,-2.8929,-2.8834,-2.8718,-2.8644,-2.8637,-2.8587,-2.8562,-2.8569,-2.8619,-2.8644,-2.8743,-2.8743,-2.8694,-2.8761,-2.8858,-2.897,-2.9112,-2.9283,-2.937,-2.9433,-2.9434,-2.9453,-2.9551,-2.9645,-2.9738,-2.9825,-2.9907,-2.9969,-2.9996,-3.0045,-3.0113,-3.0147,-2.9965,-2.9654,-2.9566,-2.9137,-2.8335,-2.8171,-2.7878,-2.742,-2.8308,-2.8745,-2.8614,-2.8459,-2.7954,-2.721,-2.6946,-2.65,-2.5893,-2.5482,-2.5199,-2.4854,-2.47,-2.4353,-2.4149,-2.4264,-2.4339,-2.4297,-2.456,-2.4802,-2.5146,-2.5248,-2.5484,-2.5815,-2.5799,-2.5754,-2.5617,-2.5969,-2.626,-2.6503,-2.6825,-2.7085,-2.7324,-2.7557,-2.7795,-2.8014,-2.8109,-2.8164,-2.8228,-2.7969,-2.7674,-2.7032,-2.6659,-2.6046,-2.5463,-2.4978,-2.4486,-2.3978,-2.344,-2.2955,-2.2907,-2.2898,-2.2651,-2.2388,-2.2404,-2.2254,-2.1598,-2.0992,-2.0462,-1.9782,-1.9157,-1.8387,-1.7623,-1.6866,-1.6161,-1.541,-1.4883,-1.43,-2.9589,-2.9701,-2.9569,-2.9493,-2.9492,-2.9289,-2.9222,-2.9178,-2.9021,-2.8929,-2.8905,-2.8858,-2.8828,-2.881,-2.8828,-2.8858,-2.8905,-2.8929,-2.9026,-2.9112,-2.9112,-2.9112,-2.9222,-2.9368,-2.947,-2.9569,-2.9608,-2.9645,-2.9682,-2.9754,-2.9823,-2.9912,-2.9975,-3.0034,-3.0056,-3.0133,-3.0013,-3.0008,-2.9956,-2.9503,-2.885,-2.8774,-2.8297,-2.7466,-2.7369,-2.7214,-2.6997,-2.7064,-2.715,-2.7083,-2.706,-2.6801,-2.6388,-2.6154,-2.5907,-2.5515,-2.5385,-2.5003,-2.481,-2.4377,-2.4154,-2.3844,-2.3834,-2.3869,-2.3719,-2.3832,-2.4159,-2.4669,-2.4802,-2.5153,-2.5638,-2.5529,-2.5263,-2.5446,-2.5832,-2.6303,-2.677,-2.6974,-2.7087,-2.739,-2.7765,-2.8017,-2.812,-2.8201,-2.8192,-2.8118,-2.7615,-2.7061,-2.6659,-2.6047,-2.5419,-2.4846,-2.4329,-2.4042,-2.3587,-2.3375,-2.2902,-2.279,-2.2658,-2.2336,-2.1892,-2.1793,-2.163,-2.0965,-2.0412,-1.9932,-1.9436,-1.879,-1.8248,-1.7508,-1.6772,-1.6156,-1.5526,-1.501,-1.4538,-2.9771,-2.9841,-2.9754,-2.9737,-2.9701,-2.9492,-2.9412,-2.9392,-2.9262,-2.9175,-2.913,-2.9044,-2.9017,-2.897,-2.9017,-2.9044,-2.9112,-2.9156,-2.9265,-2.9392,-2.9392,-2.9431,-2.9491,-2.9569,-2.9645,-2.97,-2.977,-2.9841,-2.9861,-2.9891,-2.9972,-3.0076,-3.0022,-3.008,-3.0122,-2.957,-2.9334,-2.9219,-2.8638,-2.8326,-2.8089,-2.7954,-2.748,-2.6721,-2.6593,-2.6218,-2.5582,-2.5383,-2.5905,-2.6861,-2.6797,-2.63,-2.5582,-2.5339,-2.4959,-2.4337,-2.3961,-2.3701,-2.3457,-2.3247,-2.3005,-2.2866,-2.3143,-2.3237,-2.3125,-2.3572,-2.3918,-2.4199,-2.4264,-2.4447,-2.4696,-2.4719,-2.4802,-2.5026,-2.5183,-2.532,-2.5631,-2.5721,-2.6142,-2.6894,-2.7165,-2.7584,-2.8011,-2.7969,-2.7694,-2.7622,-2.7055,-2.6278,-2.5883,-2.5434,-2.4801,-2.42,-2.3714,-2.3555,-2.3353,-2.3197,-2.2977,-2.2799,-2.2586,-2.2316,-2.1697,-2.1149,-2.0783,-2.0274,-1.981,-1.9306,-1.8892,-1.8388,-1.7851,-1.7269,-1.6675,-1.6038,-1.5623,-1.5128,-1.4775,-2.9975,-3.0019,-2.9959,-2.9926,-2.991,-2.97,-2.9626,-2.9589,-2.9451,-2.9349,-2.931,-2.9243,-2.9141,-2.9138,-2.916,-2.9246,-2.9328,-2.937,-2.9453,-2.957,-2.9645,-2.9682,-2.9719,-2.9757,-2.9792,-2.9822,-2.9886,-2.9953,-2.9991,-3.0053,-2.9927,-2.9646,-2.9664,-2.9513,-2.9079,-2.8797,-2.8502,-2.8413,-2.7961,-2.7611,-2.723,-2.7135,-2.6625,-2.5969,-2.5753,-2.5394,-2.4869,-2.4726,-2.5066,-2.5671,-2.5725,-2.5383,-2.478,-2.4541,-2.415,-2.3539,-2.3336,-2.3112,-2.2868,-2.2703,-2.2487,-2.2406,-2.2593,-2.2622,-2.2598,-2.2903,-2.3152,-2.3599,-2.3732,-2.3978,-2.4252,-2.4271,-2.4179,-2.4067,-2.4078,-2.4375,-2.5087,-2.5417,-2.5773,-2.632,-2.6634,-2.6867,-2.7562,-2.7229,-2.7095,-2.6904,-2.6336,-2.5687,-2.5167,-2.4699,-2.4325,-2.3845,-2.3539,-2.3465,-2.3372,-2.3217,-2.3045,-2.2868,-2.249,-2.2203,-2.1584,-2.0845,-2.0303,-1.9876,-1.9272,-1.8733,-1.8351,-1.7955,-1.7529,-1.6969,-1.6449,-1.6012,-1.5601,-1.5313,-1.4951,-2.999,-2.995,-2.988,-2.9851,-2.9745,-2.9626,-2.9372,-2.947,-2.9195,-2.9139,-2.9101,-2.9077,-2.8851,-2.9093,-2.8795,-2.906,-2.9157,-2.9008,-2.9176,-2.9245,-2.9366,-2.9399,-2.9347,-2.9765,-2.991,-2.995,-2.9954,-2.9865,-2.9785,-2.9865,-2.9505,-2.9028,-2.8861,-2.8521,-2.8153,-2.7819,-2.7673,-2.7635,-2.7374,-2.6929,-2.6462,-2.6293,-2.5919,-2.54,-2.5196,-2.5072,-2.4846,-2.4723,-2.4703,-2.4444,-2.4339,-2.4337,-2.4091,-2.391,-2.3739,-2.3603,-2.3378,-2.3144,-2.2944,-2.279,-2.2623,-2.2439,-2.2355,-2.2237,-2.2219,-2.2308,-2.2526,-2.2999,-2.3199,-2.3545,-2.3909,-2.387,-2.3594,-2.3319,-2.3235,-2.394,-2.4908,-2.5409,-2.5579,-2.5883,-2.6007,-2.6118,-2.6295,-2.6326,-2.6293,-2.6286,-2.5677,-2.5069,-2.466,-2.4339,-2.4053,-2.3829,-2.3634,-2.3539,-2.3424,-2.3313,-2.3119,-2.2919,-2.2419,-2.2027,-2.1524,-2.0845,-2.0174,-1.9612,-1.9052,-1.8467,-1.7861,-1.7467,-1.7118,-1.6672,-1.6106,-1.5846,-1.5578,-1.5429,-1.5069,-2.888,-2.8315,-2.8255,-2.8218,-2.8192,-2.8051,-2.8013,-2.8036,-2.7897,-2.7928,-2.7782,-2.7713,-2.7734,-2.7716,-2.7809,-2.7693,-2.7894,-2.7945,-2.7837,-2.7964,-2.8061,-2.8117,-2.846,-2.9326,-2.9973,-2.9865,-2.9383,-2.918,-2.9136,-2.874,-2.8241,-2.8115,-2.8049,-2.7975,-2.7748,-2.7142,-2.6911,-2.6756,-2.6245,-2.5887,-2.5691,-2.5562,-2.5421,-2.5101,-2.5044,-2.495,-2.4827,-2.4719,-2.4626,-2.4495,-2.4393,-2.4303,-2.4113,-2.3955,-2.3789,-2.3611,-2.3453,-2.3265,-2.307,-2.2893,-2.2738,-2.2623,-2.2515,-2.2432,-2.2349,-2.236,-2.2428,-2.2587,-2.2643,-2.2897,-2.3189,-2.3135,-2.3153,-2.3197,-2.3336,-2.3588,-2.3988,-2.4172,-2.4563,-2.5055,-2.5346,-2.5692,-2.6307,-2.5816,-2.5672,-2.5566,-2.5104,-2.444,-2.4196,-2.4024,-2.3907,-2.381,-2.3703,-2.3611,-2.3539,-2.3383,-2.3144,-2.2876,-2.2446,-2.1936,-2.1446,-2.0893,-2.0243,-1.9536,-1.8879,-1.8234,-1.7636,-1.6953,-1.6586,-1.6131,-1.576,-1.5571,-1.5386,-1.5298,-1.5216,-2.8266,-2.7894,-2.7804,-2.7783,-2.78,-2.7668,-2.7625,-2.7586,-2.7471,-2.7433,-2.7441,-2.7343,-2.7349,-2.7352,-2.7365,-2.7396,-2.7422,-2.7433,-2.7504,-2.7624,-2.7682,-2.7701,-2.7807,-2.8492,-2.9021,-2.8938,-2.8605,-2.8449,-2.8326,-2.8049,-2.7725,-2.7305,-2.7267,-2.6988,-2.6766,-2.6332,-2.6091,-2.5996,-2.563,-2.5332,-2.5253,-2.5231,-2.5176,-2.5094,-2.5038,-2.4959,-2.4903,-2.4798,-2.4707,-2.4594,-2.4478,-2.4358,-2.419,-2.4016,-2.3852,-2.37,-2.3494,-2.3336,-2.3144,-2.2995,-2.2842,-2.2712,-2.2632,-2.2569,-2.2487,-2.2504,-2.2487,-2.2497,-2.2569,-2.2676,-2.285,-2.302,-2.3151,-2.3365,-2.3531,-2.3689,-2.3813,-2.3852,-2.3982,-2.4504,-2.4695,-2.4959,-2.5127,-2.5167,-2.5038,-2.491,-2.4892,-2.4301,-2.4261,-2.4091,-2.3974,-2.3894,-2.381,-2.3725,-2.3634,-2.3453,-2.3168,-2.285,-2.2446,-2.201,-2.1538,-2.0926,-2.0311,-1.9609,-1.895,-1.8121,-1.7468,-1.6773,-1.6194,-1.5799,-1.5524,-1.5321,-1.5144,-1.5109,-1.5064,-2.77,-2.7628,-2.7554,-2.7537,-2.7528,-2.7421,-2.73,-2.7282,-2.728,-2.702,-2.7204,-2.7184,-2.6909,-2.7081,-2.7037,-2.7159,-2.7166,-2.7135,-2.6993,-2.7071,-2.7064,-2.7108,-2.7236,-2.7351,-2.7467,-2.7475,-2.7574,-2.7642,-2.7662,-2.7537,-2.6978,-2.6601,-2.6504,-2.6243,-2.5605,-2.5432,-2.5528,-2.5539,-2.5483,-2.5389,-2.5303,-2.5262,-2.5179,-2.5106,-2.5044,-2.5012,-2.4977,-2.4889,-2.4798,-2.4707,-2.4578,-2.4428,-2.4247,-2.4094,-2.3935,-2.3786,-2.3585,-2.3383,-2.3241,-2.3095,-2.2944,-2.2764,-2.2738,-2.2685,-2.2579,-2.2596,-2.2623,-2.2676,-2.2738,-2.2893,-2.3119,-2.3289,-2.343,-2.3616,-2.375,-2.3917,-2.4036,-2.4075,-2.419,-2.4226,-2.4431,-2.4654,-2.4635,-2.4598,-2.4432,-2.4321,-2.4303,-2.4284,-2.4247,-2.419,-2.4094,-2.3996,-2.3894,-2.3765,-2.3652,-2.341,-2.3129,-2.2807,-2.2449,-2.2051,-2.1582,-2.1039,-2.0429,-1.9732,-1.8997,-1.8173,-1.738,-1.6635,-1.6071,-1.5635,-1.5279,-1.5033,-1.4924,-1.4955,-1.4835,-2.6563,-2.5906,-2.5912,-2.5904,-2.5909,-2.5835,-2.5888,-2.5764,-2.5852,-2.5686,-2.574,-2.5691,-2.5746,-2.5707,-2.568,-2.5702,-2.5915,-2.5983,-2.5928,-2.5967,-2.5996,-2.6023,-2.6127,-2.6193,-2.6083,-2.6072,-2.6472,-2.6852,-2.6724,-2.6268,-2.6102,-2.579,-2.577,-2.5584,-2.5541,-2.5471,-2.5488,-2.5484,-2.5468,-2.5434,-2.5361,-2.5293,-2.5252,-2.5172,-2.5113,-2.5051,-2.5037,-2.4977,-2.4875,-2.4723,-2.4698,-2.4512,-2.4191,-2.4025,-2.385,-2.3699,-2.3526,-2.3293,-2.3024,-2.3028,-2.3035,-2.297,-2.2737,-2.2781,-2.2747,-2.2799,-2.2721,-2.2893,-2.3003,-2.3151,-2.3265,-2.3481,-2.366,-2.3792,-2.3939,-2.4116,-2.4284,-2.4393,-2.441,-2.4375,-2.4409,-2.4444,-2.4444,-2.4462,-2.4464,-2.441,-2.4375,-2.4375,-2.4321,-2.4266,-2.419,-2.4094,-2.3996,-2.3828,-2.3652,-2.3351,-2.3053,-2.2743,-2.2399,-2.2085,-2.1639,-2.115,-2.0545,-1.9803,-1.9035,-1.8212,-1.7366,-1.6552,-1.5885,-1.5383,-1.5045,-1.475,-1.4622,-1.4614,-1.4576,-2.5937,-2.5546,-2.5551,-2.556,-2.5543,-2.5525,-2.5485,-2.5441,-2.5406,-2.5401,-2.5406,-2.5407,-2.5379,-2.5379,-2.5379,-2.5397,-2.5415,-2.5404,-2.541,-2.5449,-2.5456,-2.5483,-2.5531,-2.555,-2.5557,-2.5667,-2.5939,-2.6125,-2.6112,-2.5802,-2.5531,-2.5531,-2.5511,-2.5511,-2.5511,-2.5511,-2.5505,-2.5503,-2.5507,-2.5484,-2.5397,-2.5361,-2.5292,-2.5239,-2.5172,-2.5144,-2.5095,-2.5004,-2.4704,-2.4285,-2.4103,-2.3755,-2.3386,-2.3141,-2.3051,-2.3129,-2.307,-2.27,-2.2225,-2.2,-2.1873,-2.1779,-2.1825,-2.1986,-2.2223,-2.2372,-2.2621,-2.301,-2.3277,-2.3435,-2.3508,-2.3707,-2.3876,-2.3999,-2.4173,-2.432,-2.4478,-2.4629,-2.4626,-2.4578,-2.4594,-2.461,-2.4613,-2.4615,-2.4582,-2.4549,-2.4462,-2.4428,-2.4393,-2.4229,-2.41,-2.3766,-2.3579,-2.3256,-2.3034,-2.274,-2.2592,-2.2373,-2.2211,-2.1921,-2.1619,-2.1118,-2.0514,-1.9818,-1.902,-1.8226,-1.7421,-1.6607,-1.5844,-1.5142,-1.484,-1.4564,-1.437,-1.4242,-1.4236,-2.5628,-2.5621,-2.5605,-2.5601,-2.5604,-2.56,-2.5571,-2.5531,-2.5499,-2.5525,-2.5529,-2.551,-2.551,-2.551,-2.551,-2.5517,-2.5531,-2.5511,-2.5531,-2.5511,-2.5517,-2.5549,-2.5593,-2.5604,-2.5615,-2.5639,-2.5658,-2.561,-2.5701,-2.5613,-2.5568,-2.5543,-2.5517,-2.5531,-2.5544,-2.5544,-2.5538,-2.5525,-2.5531,-2.5522,-2.5476,-2.5397,-2.5313,-2.5244,-2.5094,-2.4897,-2.4824,-2.4448,-2.4037,-2.3561,-2.3272,-2.2932,-2.2256,-2.1985,-2.2022,-2.219,-2.2195,-2.1744,-2.1331,-2.1082,-2.1154,-2.1065,-2.0868,-2.112,-2.1523,-2.1966,-2.2341,-2.3012,-2.3486,-2.3664,-2.3792,-2.3958,-2.4115,-2.4248,-2.4391,-2.4526,-2.4636,-2.476,-2.4847,-2.4818,-2.4808,-2.4779,-2.4749,-2.4707,-2.4695,-2.4631,-2.4564,-2.4497,-2.4407,-2.4002,-2.3748,-2.3327,-2.2977,-2.2571,-2.2233,-2.1857,-2.1771,-2.1697,-2.1668,-2.1535,-2.1305,-2.1037,-2.0403,-1.9803,-1.9035,-1.8226,-1.7421,-1.665,-1.5901,-1.5289,-1.4789,-1.4403,-1.4222,-1.4028,-1.3949,-2.5687,-2.5696,-2.5696,-2.569,-2.5684,-2.5616,-2.5598,-2.56,-2.5595,-2.5586,-2.5571,-2.5571,-2.5571,-2.559,-2.559,-2.5576,-2.5576,-2.5595,-2.5605,-2.5576,-2.56,-2.5604,-2.5613,-2.5613,-2.5644,-2.5681,-2.5665,-2.5652,-2.5617,-2.5609,-2.56,-2.5576,-2.5586,-2.56,-2.5576,-2.559,-2.5609,-2.5574,-2.5576,-2.5525,-2.5422,-2.5335,-2.5263,-2.4986,-2.4562,-2.4109,-2.3998,-2.3542,-2.2932,-2.2665,-2.2495,-2.2332,-2.21,-2.1967,-2.143,-2.1168,-2.1134,-2.1375,-2.1001,-2.0791,-2.0732,-2.0615,-2.0721,-2.0968,-2.118,-2.1702,-2.2189,-2.2522,-2.3231,-2.3803,-2.4001,-2.4228,-2.4375,-2.4497,-2.4626,-2.4746,-2.4861,-2.4896,-2.4994,-2.5043,-2.5019,-2.4942,-2.4907,-2.4823,-2.4768,-2.4726,-2.466,-2.4559,-2.4251,-2.3735,-2.3243,-2.2773,-2.2227,-2.1808,-2.1424,-2.1056,-2.0927,-2.0921,-2.0921,-2.1002,-2.0969,-2.0763,-2.042,-1.9758,-1.8991,-1.8212,-1.7421,-1.668,-1.5957,-1.539,-1.4846,-1.443,-1.4089,-1.3915,-1.3759,-2.5701,-2.5697,-2.5698,-2.5697,-2.5694,-2.567,-2.5659,-2.5668,-2.5642,-2.5655,-2.5648,-2.5648,-2.5668,-2.5648,-2.5648,-2.5648,-2.5675,-2.5655,-2.5658,-2.5645,-2.5665,-2.5668,-2.5651,-2.5651,-2.5679,-2.5683,-2.5705,-2.5687,-2.5659,-2.5648,-2.5655,-2.5644,-2.5636,-2.5652,-2.5609,-2.5609,-2.56,-2.5605,-2.5565,-2.5323,-2.4956,-2.474,-2.449,-2.3998,-2.355,-2.3352,-2.3151,-2.2976,-2.2321,-2.1966,-2.1713,-2.1356,-2.0891,-2.0615,-2.0314,-1.9953,-1.9951,-1.9993,-1.9845,-1.984,-1.9834,-1.9722,-1.9777,-1.987,-2.0446,-2.122,-2.2021,-2.2641,-2.3029,-2.3528,-2.4082,-2.4408,-2.4578,-2.4723,-2.4842,-2.4934,-2.5019,-2.508,-2.5138,-2.5171,-2.5212,-2.5145,-2.5056,-2.4981,-2.4921,-2.4823,-2.458,-2.426,-2.3752,-2.3023,-2.2553,-2.2105,-2.1544,-2.0984,-2.0607,-2.0228,-2.0075,-2.0026,-1.9928,-2.006,-2.0505,-2.0378,-2.0059,-1.9667,-1.9006,-1.8198,-1.7407,-1.6667,-1.6001,-1.5435,-1.4903,-1.4581,-1.4197,-1.3879,-1.3693,-2.5675,-2.5682,-2.5702,-2.5703,-2.5703,-2.5703,-2.5702,-2.5697,-2.5693,-2.5689,-2.5707,-2.5705,-2.5705,-2.5707,-2.5687,-2.5691,-2.5693,-2.5693,-2.5693,-2.5694,-2.5694,-2.5694,-2.5694,-2.5694,-2.5696,-2.5698,-2.5699,-2.57,-2.57,-2.5696,-2.5685,-2.5707,-2.5684,-2.5681,-2.5655,-2.5593,-2.5512,-2.5048,-2.4875,-2.4521,-2.4067,-2.3933,-2.3547,-2.3081,-2.2678,-2.2532,-2.2474,-2.2114,-2.1589,-2.1194,-2.0948,-2.058,-2.007,-1.9916,-1.974,-1.9497,-1.9468,-1.9319,-1.9164,-1.904,-1.8752,-1.8698,-1.8752,-1.9273,-1.9813,-2.0606,-2.1296,-2.2045,-2.2501,-2.3155,-2.3882,-2.4251,-2.452,-2.4761,-2.5019,-2.5111,-2.5201,-2.5224,-2.5264,-2.5332,-2.5341,-2.5322,-2.5243,-2.516,-2.5068,-2.4955,-2.4596,-2.4007,-2.3172,-2.2264,-2.1689,-2.1208,-2.0797,-2.0278,-1.9999,-1.9647,-1.9434,-1.929,-1.9169,-1.9192,-1.9638,-1.9847,-1.9732,-1.9301,-1.889,-1.8238,-1.7449,-1.671,-1.6044,-1.5513,-1.5074,-1.4708,-1.4384,-1.3999,-1.3668,-2.5597,-2.5613,-2.5681,-2.5691,-2.5696,-2.5696,-2.5698,-2.5702,-2.5703,-2.5703,-2.5703,-2.5703,-2.5703,-2.5703,-2.5703,-2.5703,-2.5702,-2.5703,-2.5703,-2.5703,-2.5703,-2.5703,-2.5703,-2.5703,-2.5703,-2.5703,-2.5703,-2.5703,-2.5703,-2.5703,-2.5702,-2.5694,-2.5689,-2.5707,-2.5527,-2.5269,-2.4793,-2.4235,-2.3813,-2.3467,-2.3173,-2.3062,-2.2926,-2.2662,-2.2139,-2.1733,-2.1652,-2.1093,-2.0691,-2.0412,-2.0336,-2.0224,-1.9892,-1.9751,-1.9601,-1.9409,-1.9323,-1.9198,-1.9082,-1.8965,-1.8895,-1.8895,-1.8949,-1.9054,-1.9443,-2.0057,-2.0596,-2.1074,-2.1742,-2.2514,-2.3224,-2.3779,-2.4258,-2.4662,-2.4996,-2.5234,-2.5303,-2.5348,-2.5393,-2.5456,-2.5437,-2.5363,-2.5087,-2.4918,-2.4818,-2.4686,-2.3582,-2.298,-2.2139,-2.1274,-2.0686,-2.0224,-1.994,-1.9631,-1.9473,-1.9295,-1.9218,-1.9087,-1.8962,-1.8802,-1.8835,-1.899,-1.9311,-1.9045,-1.8643,-1.8057,-1.7517,-1.6879,-1.6262,-1.5691,-1.5244,-1.4834,-1.4373,-1.3952,-1.361,-2.4808,-2.4861,-2.5405,-2.5644,-2.5626,-2.5632,-2.5634,-2.564,-2.5685,-2.5687,-2.5689,-2.5689,-2.5689,-2.567,-2.5689,-2.5687,-2.5705,-2.5687,-2.5648,-2.5689,-2.5689,-2.5691,-2.5691,-2.5693,-2.5693,-2.5693,-2.5694,-2.5696,-2.5696,-2.5618,-2.5677,-2.5702,-2.5566,-2.5271,-2.5016,-2.4427,-2.3696,-2.3281,-2.2981,-2.2873,-2.2315,-2.2211,-2.1998,-2.1396,-2.1255,-2.0939,-2.083,-2.056,-2.033,-2.0164,-2.0021,-1.9887,-1.9744,-1.9656,-1.9518,-1.9346,-1.9247,-1.9158,-1.912,-1.9063,-1.9052,-1.9084,-1.9119,-1.9184,-1.9323,-1.97,-2.023,-2.0718,-2.1148,-2.1857,-2.2704,-2.3446,-2.4075,-2.4513,-2.4831,-2.5095,-2.5287,-2.5265,-2.5312,-2.5266,-2.5299,-2.5292,-2.4955,-2.4597,-2.4475,-2.4298,-2.3061,-2.1938,-2.1199,-2.0627,-2.0169,-1.9897,-1.9675,-1.9532,-1.9398,-1.923,-1.9087,-1.8931,-1.8766,-1.8567,-1.8434,-1.8663,-1.8858,-1.8654,-1.847,-1.8093,-1.7599,-1.7089,-1.6509,-1.5869,-1.5322,-1.4869,-1.4408,-1.3847,-1.3515,-2.3894,-2.3952,-2.4548,-2.5107,-2.5561,-2.5609,-2.5609,-2.5613,-2.5644,-2.5671,-2.5636,-2.5441,-2.5281,-2.5242,-2.4934,-2.4813,-2.4716,-2.4774,-2.5008,-2.5129,-2.5207,-2.5441,-2.558,-2.5658,-2.5665,-2.5665,-2.5671,-2.5673,-2.5654,-2.5442,-2.5269,-2.5156,-2.5029,-2.4567,-2.4374,-2.3281,-2.2439,-2.2066,-2.2043,-2.2115,-2.1483,-2.1423,-2.1277,-2.0666,-2.06,-2.0329,-2.0172,-1.9904,-1.9683,-1.9437,-1.9257,-1.9248,-1.9181,-1.9103,-1.9025,-1.8914,-1.8803,-1.8735,-1.8691,-1.9044,-1.9164,-1.923,-1.9277,-1.9368,-1.9467,-1.955,-2.0012,-2.0439,-2.0732,-2.1183,-2.2092,-2.269,-2.3265,-2.3604,-2.3983,-2.4277,-2.478,-2.4929,-2.5022,-2.5055,-2.5007,-2.4817,-2.4067,-2.3572,-2.3219,-2.3093,-2.2496,-2.1467,-2.0751,-2.0292,-2.0013,-1.982,-1.9712,-1.9582,-1.9485,-1.9308,-1.9117,-1.8914,-1.8704,-1.8362,-1.8282,-1.8443,-1.8451,-1.8283,-1.8135,-1.8096,-1.7733,-1.7173,-1.6595,-1.6044,-1.5457,-1.4869,-1.4408,-1.3941,-1.3515,-2.2933,-2.2933,-2.301,-2.3999,-2.5343,-2.5582,-2.5543,-2.5543,-2.5496,-2.5434,-2.5231,-2.4652,-2.4336,-2.419,-2.3704,-2.3505,-2.3466,-2.3393,-2.3646,-2.4229,-2.435,-2.4808,-2.5119,-2.526,-2.5046,-2.5498,-2.5312,-2.5141,-2.5336,-2.4721,-2.4452,-2.416,-2.38,-2.3584,-2.4128,-2.267,-2.1482,-2.082,-2.084,-2.0819,-2.0798,-2.0719,-2.0458,-2.0367,-2.0107,-1.972,-1.936,-1.9219,-1.8925,-1.8459,-1.8255,-1.8156,-1.8056,-1.7909,-1.7763,-1.7648,-1.7506,-1.7379,-1.7318,-1.8536,-1.9162,-1.9394,-1.9456,-1.9555,-1.9656,-1.9769,-1.9862,-2.0272,-2.0279,-2.065,-2.1199,-2.1725,-2.2325,-2.2791,-2.3173,-2.3621,-2.4133,-2.4365,-2.4378,-2.4383,-2.4316,-2.405,-2.3166,-2.2411,-2.192,-2.1668,-2.1531,-2.1024,-2.0392,-2.008,-1.99,-1.9842,-1.9782,-1.9681,-1.9555,-1.935,-1.913,-1.8913,-1.8639,-1.8326,-1.804,-1.8029,-1.799,-1.7894,-1.7914,-1.7951,-1.7637,-1.7269,-1.6637,-1.6001,-1.5412,-1.4823,-1.4408,-1.3988,-1.3525,-2.1905,-2.1944,-2.2521,-2.3124,-2.3755,-2.437,-2.4914,-2.5294,-2.4868,-2.4314,-2.3825,-2.3437,-2.3372,-2.3237,-2.3082,-2.2811,-2.2843,-2.294,-2.3256,-2.3314,-2.3379,-2.3502,-2.3825,-2.3993,-2.3902,-2.3836,-2.3847,-2.3994,-2.38,-2.3572,-2.3514,-2.3242,-2.2644,-2.2505,-2.248,-2.1637,-2.0744,-2.0575,-2.0558,-2.0541,-2.0467,-2.0039,-1.9707,-1.9682,-1.9229,-1.8791,-1.8417,-1.8384,-1.808,-1.7704,-1.757,-1.753,-1.75,-1.7396,-1.7386,-1.7359,-1.7317,-1.731,-1.7483,-1.8255,-1.9031,-1.9361,-1.9649,-1.9726,-1.9823,-1.9877,-1.9982,-2.0106,-2.0192,-2.0504,-2.0721,-2.1407,-2.1954,-2.2224,-2.2604,-2.3093,-2.3497,-2.3506,-2.3531,-2.3532,-2.349,-2.3049,-2.231,-2.1744,-2.124,-2.0997,-2.093,-2.0798,-2.0268,-2.0107,-1.995,-1.9915,-1.9866,-1.9757,-1.9641,-1.9438,-1.9227,-1.9017,-1.8678,-1.8301,-1.8059,-1.7814,-1.7745,-1.7745,-1.7793,-1.7828,-1.7595,-1.7227,-1.6565,-1.5913,-1.5367,-1.4869,-1.4466,-1.3999,-1.3478,-2.0929,-2.0996,-2.1512,-2.1953,-2.2345,-2.3225,-2.3962,-2.4309,-2.3848,-2.3289,-2.2874,-2.2566,-2.2373,-2.2315,-2.2076,-2.1933,-2.1914,-2.1914,-2.226,-2.2299,-2.2365,-2.2631,-2.2802,-2.2771,-2.3037,-2.282,-2.2835,-2.2946,-2.2997,-2.2643,-2.2294,-2.1888,-2.1501,-2.1407,-2.1279,-2.0838,-2.0533,-2.0389,-2.0277,-1.9975,-1.977,-1.9366,-1.8844,-1.8691,-1.8359,-1.7907,-1.7644,-1.7474,-1.7343,-1.717,-1.7014,-1.6948,-1.6893,-1.683,-1.6758,-1.6687,-1.661,-1.6659,-1.7018,-1.7292,-1.8151,-1.9228,-1.9632,-1.99,-1.9988,-2.0069,-2.0153,-2.0249,-2.0327,-2.0383,-2.0579,-2.1243,-2.1366,-2.162,-2.1769,-2.2225,-2.2617,-2.2636,-2.2635,-2.2653,-2.2596,-2.2089,-2.1594,-2.1132,-2.0659,-2.0519,-2.0424,-2.0308,-2.0254,-2.0133,-2.005,-2.001,-1.9955,-1.9866,-1.9726,-1.9569,-1.9335,-1.9102,-1.8752,-1.8368,-1.7934,-1.7666,-1.7622,-1.7563,-1.7556,-1.7547,-1.7528,-1.7173,-1.6552,-1.6001,-1.5457,-1.496,-1.4512,-1.3999,-1.3478,-2.0009,-1.9991,-2.0001,-2.0515,-2.1327,-2.2134,-2.2585,-2.2671,-2.2652,-2.2585,-2.2479,-2.1607,-2.1349,-2.1196,-2.0536,-2.0317,-2.0374,-2.0355,-2.0776,-2.1187,-2.1311,-2.179,-2.2144,-2.2307,-2.2124,-2.2355,-2.2373,-2.2045,-2.2401,-2.1776,-2.1054,-2.0592,-2.0534,-2.0535,-2.0481,-2.0282,-2.0182,-1.9996,-1.9749,-1.9393,-1.9055,-1.8366,-1.8007,-1.7821,-1.7593,-1.7167,-1.6875,-1.6637,-1.626,-1.5914,-1.5543,-1.5453,-1.5357,-1.5255,-1.5199,-1.5172,-1.5231,-1.5693,-1.6151,-1.6453,-1.7198,-1.8414,-1.9438,-1.985,-2.0155,-2.0219,-2.0287,-2.0366,-2.0434,-2.0472,-2.0611,-2.063,-2.0681,-2.0723,-2.0701,-2.1124,-2.1602,-2.1733,-2.1728,-2.175,-2.1761,-2.1439,-2.0976,-2.0526,-2.0477,-2.0472,-2.0434,-2.0405,-2.0328,-2.0242,-2.0159,-2.0116,-2.0069,-1.9966,-1.9823,-1.9643,-1.9427,-1.9184,-1.8825,-1.843,-1.7992,-1.7572,-1.7466,-1.736,-1.7272,-1.7234,-1.7204,-1.7016,-1.6595,-1.6076,-1.5546,-1.5017,-1.4523,-1.3999,-1.3478,-1.9801,-1.9794,-1.9794,-1.9945,-2.0183,-2.0457,-2.0932,-2.1495,-2.1563,-2.1278,-2.0614,-2.0375,-2.0348,-2.0224,-1.9993,-1.9899,-1.988,-1.9918,-2.0031,-2.0232,-2.0394,-2.0511,-2.0655,-2.0855,-2.0771,-2.08,-2.0811,-2.0925,-2.0735,-2.0392,-2.0383,-2.0049,-2.0021,-2.0022,-1.984,-1.9547,-1.9495,-1.9302,-1.8988,-1.8668,-1.8123,-1.7404,-1.7128,-1.6929,-1.6553,-1.6174,-1.5989,-1.5876,-1.5605,-1.5466,-1.538,-1.5364,-1.5296,-1.528,-1.5259,-1.5201,-1.5207,-1.5317,-1.5573,-1.6104,-1.6725,-1.7479,-1.8567,-1.9632,-2.0038,-2.0288,-2.0352,-2.0441,-2.0486,-2.0497,-2.0488,-2.0486,-2.0477,-2.0465,-2.0447,-2.0623,-2.1037,-2.1029,-2.102,-2.1033,-2.1052,-2.0996,-2.0529,-2.0504,-2.0508,-2.0501,-2.0501,-2.0471,-2.0415,-2.0334,-2.0265,-2.023,-2.0134,-2.004,-1.9885,-1.972,-1.9481,-1.9214,-1.8895,-1.851,-1.8061,-1.7666,-1.7355,-1.7153,-1.706,-1.6944,-1.6807,-1.6582,-1.6312,-1.6102,-1.5623,-1.5051,-1.4523,-1.3999,-1.3478,-1.9513,-1.9546,-1.9546,-1.9532,-1.9499,-1.9518,-1.9871,-2.0326,-2.0457,-2.0176,-1.9751,-1.9713,-1.9682,-1.972,-1.9688,-1.9676,-1.9676,-1.9676,-1.9732,-1.9745,-1.967,-1.9788,-1.9744,-1.9738,-1.9844,-1.975,-1.9781,-2.0007,-1.975,-1.975,-1.9762,-1.9731,-1.9762,-1.9571,-1.9409,-1.9227,-1.865,-1.8209,-1.7799,-1.7676,-1.7164,-1.6493,-1.6183,-1.6002,-1.5501,-1.5407,-1.5348,-1.5342,-1.5356,-1.5366,-1.539,-1.539,-1.5321,-1.5321,-1.5293,-1.5241,-1.5226,-1.523,-1.5392,-1.5668,-1.6113,-1.6759,-1.7816,-1.8851,-1.9701,-2.0116,-2.032,-2.0487,-2.0488,-2.0503,-2.0467,-2.0441,-2.0437,-2.0409,-2.0381,-2.033,-2.0371,-2.0379,-2.0385,-2.0396,-2.0434,-2.0487,-2.0445,-2.0475,-2.0515,-2.0505,-2.0507,-2.05,-2.0464,-2.0395,-2.034,-2.0313,-2.0211,-2.0116,-1.9941,-1.9797,-1.9572,-1.9316,-1.8996,-1.8607,-1.8132,-1.7679,-1.7274,-1.7036,-1.6869,-1.6705,-1.645,-1.6231,-1.599,-1.5798,-1.554,-1.4991,-1.4471,-1.3999,-1.3478,-1.9193,-1.9259,-1.9259,-1.9227,-1.9178,-1.9162,-1.9216,-1.92,-1.9487,-1.9541,-1.9541,-1.9523,-1.9458,-1.9444,-1.9467,-1.9452,-1.9438,-1.9419,-1.9419,-1.9438,-1.9448,-1.9444,-1.9425,-1.9439,-1.9425,-1.9495,-1.9546,-1.9513,-1.9458,-1.9444,-1.9444,-1.9458,-1.9305,-1.9035,-1.8633,-1.8534,-1.7806,-1.6722,-1.6419,-1.6258,-1.6136,-1.5638,-1.5174,-1.5243,-1.5217,-1.5211,-1.5256,-1.528,-1.5281,-1.5324,-1.5338,-1.5353,-1.5349,-1.5331,-1.5304,-1.5296,-1.5272,-1.5275,-1.5278,-1.5437,-1.5755,-1.6444,-1.7363,-1.8199,-1.896,-2.0,-2.0366,-2.0412,-2.0419,-2.0383,-2.0352,-2.0272,-2.025,-2.023,-2.0188,-2.015,-2.0118,-2.0137,-2.0153,-2.0185,-2.0248,-2.0283,-2.036,-2.039,-2.0448,-2.0475,-2.0515,-2.0507,-2.0484,-2.0428,-2.0409,-2.0383,-2.0301,-2.0219,-2.0079,-1.992,-1.9695,-1.9425,-1.9123,-1.8735,-1.8278,-1.7737,-1.7178,-1.6866,-1.6566,-1.6336,-1.6088,-1.5928,-1.5711,-1.5489,-1.5187,-1.4821,-1.4407,-1.4011,-1.3573,-1.8913,-1.8913,-1.8913,-1.8913,-1.8913,-1.8895,-1.8896,-1.8896,-1.8895,-1.9066,-1.9246,-1.9261,-1.9227,-1.9193,-1.9178,-1.918,-1.913,-1.913,-1.9111,-1.9111,-1.9127,-1.9127,-1.9111,-1.9127,-1.9127,-1.913,-1.9148,-1.9148,-1.9077,-1.9079,-1.9063,-1.8955,-1.8626,-1.8091,-1.7756,-1.7532,-1.6366,-1.5447,-1.5147,-1.5113,-1.513,-1.5147,-1.4973,-1.4988,-1.5023,-1.5018,-1.5075,-1.5124,-1.5182,-1.5221,-1.524,-1.5283,-1.5314,-1.5291,-1.5281,-1.5287,-1.5268,-1.5266,-1.5245,-1.5239,-1.5428,-1.5955,-1.673,-1.7474,-1.8414,-1.9675,-2.0344,-2.0313,-2.0289,-2.0244,-2.0181,-2.0115,-2.0037,-2.0021,-1.9983,-1.9943,-1.9901,-1.9933,-1.9953,-2.0031,-2.0106,-2.0175,-2.0234,-2.0308,-2.0366,-2.0418,-2.0477,-2.0504,-2.0501,-2.0467,-2.0465,-2.0441,-2.0413,-2.0314,-2.0172,-2.0031,-1.9836,-1.9561,-1.9261,-1.884,-1.8397,-1.7738,-1.7071,-1.6552,-1.6172,-1.5966,-1.5845,-1.5721,-1.55,-1.517,-1.489,-1.4547,-1.4359,-1.4011,-1.358,-1.8491,-1.8491,-1.8491,-1.8491,-1.8491,-1.8491,-1.8491,-1.8471,-1.8469,-1.8529,-1.8735,-1.886,-1.8931,-1.8877,-1.8895,-1.886,-1.8825,-1.8789,-1.8789,-1.8771,-1.8771,-1.8771,-1.8789,-1.8771,-1.8771,-1.8789,-1.8735,-1.8698,-1.859,-1.8643,-1.8625,-1.8428,-1.7808,-1.7205,-1.6901,-1.5833,-1.5077,-1.4627,-1.4177,-1.4129,-1.4316,-1.4476,-1.4663,-1.4729,-1.4747,-1.4754,-1.4789,-1.485,-1.4897,-1.4957,-1.4972,-1.5043,-1.5096,-1.5105,-1.5128,-1.5144,-1.5152,-1.5171,-1.5136,-1.51,-1.5077,-1.5537,-1.6529,-1.7413,-1.7704,-1.8904,-1.9957,-2.0,-2.0027,-2.0002,-1.9916,-1.9834,-1.9768,-1.9717,-1.9657,-1.9594,-1.96,-1.9657,-1.9676,-1.9724,-1.9824,-1.9931,-2.0012,-2.0093,-2.0161,-2.0296,-2.0366,-2.0441,-2.0441,-2.0467,-2.0488,-2.0498,-2.0458,-2.039,-2.0269,-2.0129,-1.9992,-1.9693,-1.9407,-1.8839,-1.8303,-1.7603,-1.6949,-1.6511,-1.6097,-1.5679,-1.5552,-1.5435,-1.5114,-1.4773,-1.4534,-1.4325,-1.4144,-1.3961,-1.3598,-1.8005,-1.8005,-1.8005,-1.8005,-1.7988,-1.8005,-1.8005,-1.8005,-1.8005,-1.8005,-1.8069,-1.8333,-1.845,-1.8528,-1.8545,-1.8528,-1.8508,-1.8432,-1.8415,-1.8413,-1.8408,-1.8371,-1.8388,-1.8406,-1.8371,-1.833,-1.829,-1.8139,-1.799,-1.8059,-1.8042,-1.7828,-1.7173,-1.64,-1.5691,-1.5037,-1.4382,-1.3798,-1.3438,-1.3404,-1.366,-1.3989,-1.4241,-1.4361,-1.4384,-1.4378,-1.4397,-1.4412,-1.4455,-1.4538,-1.4569,-1.4643,-1.4692,-1.4714,-1.476,-1.4782,-1.4797,-1.4775,-1.4772,-1.4756,-1.4736,-1.512,-1.6365,-1.709,-1.7323,-1.8118,-1.9194,-1.9519,-1.9562,-1.963,-1.9544,-1.9479,-1.9416,-1.935,-1.9261,-1.9201,-1.925,-1.9298,-1.9339,-1.9397,-1.9513,-1.9619,-1.9724,-1.9842,-1.9955,-2.0084,-2.02,-2.0283,-2.0346,-2.0398,-2.0425,-2.046,-2.0467,-2.0394,-2.0342,-2.0224,-2.0112,-1.9861,-1.9518,-1.8853,-1.8228,-1.7693,-1.7158,-1.6607,-1.6169,-1.5772,-1.5278,-1.4975,-1.4661,-1.441,-1.4262,-1.4138,-1.383,-1.3682,-1.3547,-1.7532,-1.7549,-1.7532,-1.7532,-1.7532,-1.7532,-1.7532,-1.7532,-1.7532,-1.7532,-1.7555,-1.7602,-1.7783,-1.8107,-1.8128,-1.8107,-1.8121,-1.804,-1.8035,-1.8014,-1.7932,-1.7927,-1.7927,-1.791,-1.7888,-1.7822,-1.7755,-1.7641,-1.7432,-1.7449,-1.7176,-1.6569,-1.5813,-1.5048,-1.4321,-1.3743,-1.3229,-1.2827,-1.2811,-1.2796,-1.2921,-1.3273,-1.371,-1.3814,-1.3814,-1.3811,-1.3807,-1.3772,-1.3854,-1.3948,-1.4003,-1.4053,-1.4095,-1.4116,-1.4162,-1.4158,-1.4198,-1.4213,-1.4191,-1.418,-1.4148,-1.4417,-1.5524,-1.6381,-1.6868,-1.7629,-1.8339,-1.8537,-1.8677,-1.8966,-1.8972,-1.8937,-1.8889,-1.8788,-1.8699,-1.8681,-1.8717,-1.8771,-1.8823,-1.8925,-1.9043,-1.9185,-1.935,-1.9465,-1.9638,-1.9779,-1.9963,-2.0039,-2.0165,-2.0263,-2.0336,-2.0391,-2.0423,-2.0487,-2.0464,-2.0351,-2.019,-1.9974,-1.9644,-1.9031,-1.8461,-1.7945,-1.7422,-1.6885,-1.6367,-1.5928,-1.5404,-1.4921,-1.447,-1.4251,-1.4113,-1.3938,-1.3607,-1.3384,-1.3227]},{"header":{"parameterUnit":"m.s-1","parameterCategory":1,"la1":31.0,"la2":29.5877,"lo1":-88.7671,"lo2":-86.6584,"dy":0.0162,"dx":0.0185,"nx":115,"ny":88,"refTime":"2023-06-02T18:00:00:Z","depth":0,"parameterNumber":3,"parameterNumberName":"V-component_of_WINDS"},"data":[0.0,0.0,0.0,0.0,0.0,0.0,0.0,0.0,0.0,0.0,0.0,0.0,0.0,0.0,0.0,0.0,0.0,0.0,0.0,0.0,0.0,0.0,0.0,0.0,0.0,0.0,0.0,0.0,0.0,0.0,0.0,0.0,0.0,0.0,0.0,0.0,0.0,0.0,0.0,0.0,0.0,0.0,0.0,0.0,0.0,0.0,0.0,0.0,0.0,0.0,0.0,0.0,0.0,0.0,0.0,0.0,0.0,0.0,0.0,0.0,0.0,0.0,0.0,0.0,0.0,0.0,0.0,0.0,0.0,0.0,0.0,0.0,0.0,0.0,0.0,0.0,0.0,0.0,0.0,0.0,0.0,0.0,0.0,0.0,0.0,0.0,0.0,0.0,0.0,0.0,0.0,0.0,0.0,0.0,0.0,0.0,0.0,0.0,0.0,0.0,0.0,0.0,0.0,0.0,0.0,0.0,0.0,0.0,0.0,0.0,0.0,0.0,0.0,0.0,0.0,0.0,0.0,0.0,0.0,0.0,0.0,0.0,0.0,0.0,0.0,0.0,0.0,0.0,0.0,0.0,0.0,0.0,0.0,0.0,0.0,0.0,0.0,0.0,0.0,0.0,0.0,0.0,0.0,0.0,0.0,0.0,0.0,0.0,0.0,0.0,0.0,0.0,0.0,0.0,0.0,0.0,0.0,0.0,0.0,0.0,0.0,0.0,0.0,0.0,0.0,0.0,0.0,0.0,0.0,0.0,0.0,0.0,0.0,0.0,0.0,0.0,0.0,0.0,0.0,0.0,0.0,0.0,0.0,0.0,0.0,0.0,0.0,0.0,0.0,0.0,0.0,0.0,0.0,0.0,0.0,0.0,0.0,0.0,0.0,0.0,0.0,0.0,0.0,0.0,0.0,0.0,0.0,0.0,0.0,0.0,0.0,0.0,0.0,0.0,0.0,0.0,0.0,0.0,0.0,0.0,0.0,0.0,0.0,0.0,0.0,0.0,0.0,0.0,0.0,0.0,0.0,0.0,0.0,0.0,0.0,0.0,0.0,0.0,0.0,0.0,0.0,0.0,0.0,0.0,0.0,0.0,0.0,0.0,0.0,0.0,0.0,0.0,0.0,0.0,0.0,0.0,0.0,0.0,0.0,0.0,0.0,0.0,0.0,0.0,0.0,0.0,0.0,0.0,0.0,0.0,0.0,0.0,0.0,0.0,0.0,0.0,0.0,0.0,0.0,0.0,0.0,0.0,0.0,0.0,0.0,0.0,0.0,0.0,0.0,0.0,0.0,0.0,0.0,0.0,0.0,0.0,0.0,0.0,0.0,0.0,0.0,0.0,0.0,0.0,0.0,0.0,0.0,0.0,0.0,0.0,0.0,0.0,0.0,0.0,0.0,0.0,0.0,0.0,0.0,0.0,0.0,0.0,0.0,0.0,0.0,0.0,0.0,0.0,0.0,0.0,0.0,0.0,0.0,0.0,0.0,0.0,0.0,0.0,0.0,0.0,0.0,0.0,0.0,0.0,0.0,0.0,0.0,0.0,0.0,0.0,0.0,0.0,0.0,0.0,0.0,0.0,0.0,0.0,0.0,0.0,0.0,0.0,0.0,0.0,0.0,0.0,0.0,0.0,0.0,0.0,0.0,0.0,0.0,0.0,0.0,0.0,0.0,0.0,0.0,0.0,0.0,0.0,0.0,0.0,0.0,0.0,0.0,0.0,0.0,0.0,0.0,0.0,0.0,0.0,0.0,0.0,0.0,0.0,0.0,0.0,0.0,0.0,0.0,0.0,0.0,0.0,0.0,0.0,0.0,0.0,0.0,0.0,0.0,0.0,0.0,0.0,0.0,0.0,0.0,0.0,0.0,0.0,0.0,0.0,0.0,0.0,0.0,0.0,0.0,0.0,0.0,0.0,0.0,0.0,0.0,0.0,0.0,0.0,0.0,0.0,0.0,0.0,0.0,0.0,0.0,0.0,0.0,0.0,0.0,0.0,0.0,0.0,0.0,0.0,0.0,0.0,0.0,0.0,0.0,0.0,0.0,0.0,0.0,0.0,0.0,0.0,0.0,0.0,0.0,0.0,0.0,0.0,0.0,0.0,0.0,0.0,0.0,0.0,0.0,0.0,0.0,0.0,0.0,0.0,0.0,0.0,0.0,0.0,0.0,0.0,0.0,0.0,0.0,0.0,0.0,0.0,0.0,0.0,0.0,0.0,0.0,0.0,0.0,0.0,0.0,0.0,0.0,0.0,0.0,0.0,0.0,0.0,0.0,0.0,0.0,0.0,0.0,0.0,0.0,0.0,0.0,0.0,0.0,0.0,0.0,0.0,0.0,0.0,0.0,0.0,0.0,0.0,0.0,0.0,0.0,0.0,0.0,0.0,0.0,0.0,0.0,0.0,0.0,0.0,0.0,0.0,0.0,0.0,0.0,0.0,0.0,0.0,0.0,0.0,0.0,0.0,0.0,0.0,0.0,0.0,0.0,0.0,0.0,0.0,0.0,0.0,0.0,0.0,0.0,0.0,0.0,0.0,0.0,0.0,0.0,0.0,0.0,0.0,0.0,0.0,0.0,0.0,0.0,0.0,0.0,0.0,0.0,0.0,0.0,0.0,0.0,0.0,0.0,0.0,0.0,0.0,0.0,0.0,0.0,0.0,0.0,0.0,0.0,0.0,0.0,0.0,0.0,0.0,0.0,0.0,0.0,0.0,0.0,0.0,0.0,0.0,0.0,0.0,0.0,0.0,0.0,0.0,0.0,0.0,0.0,0.0,0.0,0.0,0.0,0.0,0.0,0.0,0.0,0.0,0.0,0.0,0.0,0.0,0.0,0.0,0.0,0.0,0.0,0.0,0.0,0.0,0.0,0.0,0.0,0.0,0.0,0.0,0.0,0.0,0.0,0.0,0.0,0.0,0.0,0.0,0.0,0.0,0.0,0.0,0.0,0.0,0.0,0.0,0.0,0.0,0.0,0.0,0.0,0.0,0.0,0.0,0.0,0.0,0.0,0.0,0.0,0.0,0.0,0.0,0.0,0.0,0.0,0.0,0.0,0.0,0.0,0.0,0.0,0.0,0.0,0.0,0.0,0.0,0.0,0.0,0.0,0.0,0.0,0.0,0.0,0.0,0.0,0.0,0.0,0.0,0.0,0.0,0.0,0.0,0.0,0.0,0.0,0.0,0.0,0.0,0.0,0.0,0.0,0.0,0.0,0.0,0.0,0.0,0.0,0.0,0.0,0.0,0.0,0.0,0.0,0.0,0.0,0.0,0.0,0.0,0.0,0.0,0.0,0.0,0.0,0.0,0.0,0.0,0.0,0.0,0.0,0.0,0.0,0.0,0.0,0.0,0.0,0.0,0.0,0.0,0.0,0.0,0.0,0.0,0.0,0.0,0.0,0.0,0.0,0.0,0.0,0.0,0.0,0.0,0.0,0.0,0.0,0.0,0.0,0.0,0.0,0.0,0.0,0.0,0.0,0.0,0.0,0.0,0.0,0.0,0.0,0.0,0.0,0.0,0.0,0.0,0.0,0.0,0.0,0.0,0.0,0.0,0.0,0.0,0.0,0.0,0.0,0.0,0.0,0.0,0.0,0.0,0.0,0.0,0.0,0.0,0.0,0.0,0.0,0.0,0.0,0.0,0.0,0.0,0.0,0.0,0.0,0.0,0.0,0.0,0.0,0.0,0.0,0.0,0.0,0.0,0.0,0.0,0.0,0.0,0.0,0.0,0.0,0.0,0.0,0.0,0.0,0.0,0.0,0.0,0.0,0.0,0.0,0.0,0.0,0.0,0.0,0.0,0.0,0.0,0.0,0.0,0.0,0.0,0.0,0.0,0.0,0.0,0.0,0.0,0.0,0.0,0.0,0.0,0.0,0.0,0.0,0.0,0.0,0.0,0.0,0.0,0.0,0.0,0.0,0.0,0.0,0.0,0.0,0.0,0.0,0.0,0.0,0.0,0.0,0.0,0.0,0.0,0.0,0.0,0.0,0.0,0.0,0.0,0.0,0.0,0.0,0.0,0.0,0.0,0.0,0.0,0.0,0.0,0.0,0.0,0.0,0.0,0.0,0.0,0.0,0.0,0.0,0.0,0.0,0.0,0.0,0.0,0.0,0.0,0.0,0.0,0.0,0.0,0.0,0.0,0.0,0.0,0.0,0.0,0.0,0.0,0.0,0.0,0.0,0.0,0.0,0.0,0.0,0.0,0.0,0.0,0.0,0.0,0.0,0.0,0.0,0.0,0.0,0.0,0.0,0.0,0.0,0.0,0.0,0.0,1.7765,0.0,0.0,0.0,0.0,0.0,0.0,0.0,0.0,0.0,0.0,0.0,0.0,0.0,0.0,0.0,0.0,0.0,0.0,0.0,0.0,0.0,0.0,0.0,0.0,0.0,0.0,0.0,0.0,0.0,0.0,0.0,0.0,0.0,0.0,0.0,0.0,0.0,0.0,0.0,0.0,0.0,0.0,0.0,0.0,0.0,0.0,0.0,0.0,0.0,0.0,0.0,0.0,0.0,0.0,0.0,0.0,0.0,0.0,0.0,0.0,0.0,0.0,0.0,0.0,0.0,0.0,0.0,0.0,0.0,0.0,0.0,0.0,0.0,0.0,0.0,0.0,0.0,0.0,0.0,0.0,0.0,0.0,0.0,0.0,0.0,0.0,0.0,0.0,0.0,0.0,0.0,0.0,0.0,0.0,0.0,0.0,0.0,0.0,0.0,0.0,0.0,0.0,0.0,0.0,0.0,0.0,0.0,0.0,0.0,0.0,1.5491,1.5739,1.6997,1.7939,1.852,0.0,0.0,0.0,0.0,0.0,0.0,0.0,0.0,0.0,0.0,0.0,0.0,0.0,0.0,0.0,0.0,0.0,0.0,0.0,0.0,0.0,0.0,0.0,0.0,0.0,0.0,0.0,0.0,0.0,0.0,0.0,0.0,0.0,0.0,0.0,0.0,0.0,0.0,0.0,0.0,0.0,0.0,0.0,0.0,0.0,0.0,0.0,0.0,0.0,0.0,0.0,0.0,0.0,0.0,0.0,0.0,0.0,0.0,0.0,0.0,0.0,0.0,0.0,0.0,0.0,0.0,0.0,0.0,0.0,0.0,0.0,0.0,0.0,0.0,0.0,0.0,0.0,0.0,0.0,0.0,0.0,0.0,0.0,0.0,0.0,0.0,0.0,0.0,0.0,0.0,0.0,0.0,0.0,0.0,0.0,0.0,0.0,0.0,0.0,0.0,0.0,0.0,0.0,0.0,0.0,0.0,0.0,0.0,0.0,0.0,0.0,0.0,1.7958,1.897,1.9699,0.0,0.0,0.0,0.0,0.0,0.0,0.0,0.0,0.0,0.0,0.0,0.0,0.0,0.0,0.0,0.0,0.0,0.0,0.0,0.0,0.0,0.0,0.0,0.0,0.0,0.0,0.0,0.0,0.0,0.0,0.0,0.0,0.0,0.0,0.0,0.0,0.0,0.0,0.0,0.0,0.0,0.0,0.0,0.0,0.0,0.0,0.0,0.0,0.0,0.0,0.0,0.0,0.0,0.0,0.0,0.0,0.0,0.0,0.0,0.0,0.0,0.0,0.0,0.0,0.0,0.0,0.0,0.0,0.0,0.0,0.0,0.0,0.0,0.0,0.0,0.0,0.0,0.0,0.0,0.0,0.0,0.0,0.0,0.0,0.0,0.0,0.0,0.0,0.0,0.0,0.0,0.0,0.0,0.0,0.0,0.0,0.0,0.0,0.0,0.0,0.0,0.0,0.0,0.0,0.0,0.0,0.0,0.0,0.0,0.0,1.7673,1.8374,1.9264,0.0,2.164,0.0,0.0,0.0,0.0,0.0,0.0,0.0,0.0,0.0,0.0,0.0,0.0,0.0,0.0,0.0,0.0,0.0,0.0,0.0,0.0,0.0,0.0,0.0,0.0,0.0,0.0,0.0,0.0,0.0,0.0,0.0,0.0,0.0,0.0,0.0,0.0,0.0,0.0,0.0,0.0,0.0,0.0,0.0,0.0,0.0,0.0,0.0,0.0,0.0,0.0,0.0,0.0,0.0,0.0,0.0,0.0,0.0,0.0,0.0,0.0,0.0,0.0,0.0,0.0,0.0,0.0,0.0,0.0,0.0,0.0,0.0,0.0,0.0,0.0,0.0,0.0,0.0,0.0,0.0,0.0,0.0,0.0,0.0,0.0,0.0,0.0,0.0,0.0,0.0,0.0,0.0,0.0,0.0,0.0,0.0,0.0,0.0,0.0,0.0,0.0,0.0,0.0,0.0,0.0,0.0,0.0,0.0,0.0,0.0,0.0,1.9537,2.0206,2.1387,2.2555,0.0,0.0,0.0,0.0,0.0,0.0,0.0,0.0,0.0,0.0,0.0,0.0,0.0,0.0,0.0,0.0,0.0,0.0,0.0,0.0,0.0,0.0,0.0,0.0,0.0,0.0,0.0,0.0,0.0,0.0,0.0,0.0,0.0,0.0,0.0,0.0,0.0,0.0,0.0,0.0,0.0,0.0,0.0,0.0,0.0,0.0,0.0,0.0,0.0,0.0,0.0,0.0,0.0,0.0,0.0,0.0,0.0,0.0,0.0,0.0,0.0,0.0,0.0,0.0,0.0,0.0,0.0,0.0,0.0,0.0,0.0,0.0,0.0,0.0,0.0,0.0,0.0,0.0,0.0,0.0,0.0,0.0,0.0,0.0,0.0,0.0,0.0,0.0,0.0,0.0,0.0,0.0,0.0,0.0,0.0,0.0,0.0,0.0,0.0,0.0,0.0,0.0,0.0,0.0,0.0,0.0,0.0,0.0,0.0,0.0,2.1308,2.2006,2.2746,2.3919,2.4732,2.5256,0.0,0.0,0.0,0.0,0.0,0.0,0.0,0.0,0.0,0.0,0.0,0.0,0.0,0.0,0.0,0.0,0.0,0.0,0.0,0.0,0.0,0.0,0.0,0.0,0.0,0.0,0.0,0.0,0.0,0.0,0.0,0.0,0.0,0.0,0.0,0.0,0.0,0.0,0.0,0.0,0.0,0.0,0.0,0.0,0.0,0.0,0.0,0.0,0.0,0.0,0.0,0.0,0.0,0.0,0.0,0.0,0.0,0.0,0.0,0.0,0.0,0.0,0.0,0.0,0.0,0.0,0.0,0.0,0.0,0.0,0.0,0.0,0.0,0.0,0.0,0.0,0.0,0.0,0.0,0.0,0.0,0.0,0.0,0.0,0.0,0.0,0.0,0.0,0.0,0.0,0.0,0.0,0.0,0.0,0.0,0.0,0.0,0.0,0.0,0.0,0.0,0.0,0.0,0.0,0.0,0.0,0.0,0.0,2.3583,2.4316,2.5242,2.6315,2.6816,2.6758,0.0,0.0,0.0,0.0,0.0,0.0,0.0,0.0,0.0,0.0,0.0,0.0,0.0,0.0,0.0,0.0,0.0,0.0,0.0,0.0,0.0,0.0,0.0,0.0,0.0,0.0,0.0,0.0,0.0,0.0,0.0,0.0,0.0,0.0,0.0,0.0,0.0,0.0,0.0,0.0,0.0,0.0,0.0,0.0,0.0,0.0,0.0,0.0,0.0,0.0,0.0,0.0,0.0,0.0,0.0,0.0,0.0,0.0,0.0,0.0,0.0,0.0,0.0,0.0,0.0,0.0,0.0,0.0,0.0,0.0,0.0,0.0,0.0,0.0,0.0,0.0,0.0,0.0,0.0,0.0,0.0,0.0,0.0,0.0,0.0,0.0,0.0,0.0,0.0,0.0,0.0,0.0,0.0,0.0,0.0,0.0,0.0,0.0,0.0,0.0,0.0,0.0,0.0,0.0,0.0,0.0,0.0,0.0,0.0,2.5825,2.7487,2.8375,2.8469,2.8755,2.8587,0.0,0.0,0.0,0.0,0.0,0.0,0.0,0.0,0.0,0.0,0.0,0.0,0.0,0.0,0.0,0.0,0.0,0.0,0.0,0.0,0.0,0.0,0.0,0.0,0.0,0.0,0.0,0.0,0.0,0.0,0.0,0.0,0.0,0.0,0.0,0.0,0.0,0.0,0.0,0.0,0.0,0.0,0.0,0.0,0.0,0.0,0.0,0.0,0.0,0.0,0.0,0.0,0.0,0.0,0.0,0.0,0.0,0.0,0.0,0.0,0.0,0.0,0.0,0.0,0.0,0.0,0.0,0.0,0.0,0.0,0.0,0.0,0.0,0.0,0.0,0.0,0.0,0.0,0.0,0.0,0.0,0.0,0.0,0.0,0.0,0.0,0.0,0.0,0.0,0.0,0.0,0.0,0.0,0.0,0.0,0.0,0.0,0.0,0.0,0.0,0.0,0.0,0.0,0.0,0.0,0.0,0.0,0.0,0.0,2.8877,0.0,3.1293,3.0469,3.0627,3.021,0.0,0.0,0.0,0.0,0.0,0.0,0.0,0.0,0.0,0.0,0.0,0.0,0.0,0.0,0.0,0.0,0.0,0.0,0.0,0.0,0.0,0.0,0.0,0.0,0.0,0.0,0.0,0.0,0.0,0.0,0.0,0.0,0.0,0.0,0.0,0.0,0.0,0.0,0.0,0.0,0.0,0.0,0.0,0.0,0.0,0.0,0.0,0.0,0.0,0.0,0.0,0.0,0.0,0.0,0.0,0.0,0.0,0.0,0.0,0.0,0.0,0.0,0.0,0.0,0.0,0.0,0.0,0.0,0.0,0.0,0.0,0.0,0.0,0.0,0.0,0.0,0.0,0.0,0.0,0.0,0.0,0.0,0.0,0.0,0.0,0.0,0.0,0.0,0.0,0.0,0.0,0.0,0.0,0.0,0.0,0.0,0.0,0.0,0.0,0.0,0.0,0.0,0.0,0.0,0.0,0.0,0.0,0.0,2.9654,3.273,3.3897,3.3735,3.2385,3.2365,3.1651,0.0,0.0,0.0,0.0,0.0,0.0,0.0,0.0,0.0,0.0,0.0,0.0,0.0,0.0,0.0,0.0,0.0,0.0,0.0,0.0,0.0,0.0,0.0,0.0,0.0,0.0,0.0,0.0,0.0,0.0,0.0,0.0,0.0,0.0,0.0,0.0,0.0,0.0,0.0,0.0,0.0,0.0,0.0,0.0,0.0,0.0,0.0,0.0,0.0,0.0,0.0,0.0,0.0,0.0,0.0,0.0,0.0,0.0,0.0,0.0,0.0,0.0,0.0,0.0,0.0,0.0,0.0,0.0,0.0,0.0,0.0,0.0,0.0,0.0,0.0,0.0,0.0,0.0,0.0,0.0,0.0,0.0,0.0,0.0,0.0,0.0,0.0,0.0,0.0,0.0,0.0,0.0,0.0,0.0,0.0,0.0,0.0,0.0,0.0,0.0,0.0,0.0,0.0,0.0,0.0,0.0,0.0,0.0,0.0,3.3468,3.4397,3.4355,3.3314,3.2804,3.2077,0.0,0.0,0.0,0.0,0.0,0.0,0.0,0.0,0.0,0.0,0.0,0.0,0.0,0.0,0.0,0.0,0.0,0.0,0.0,0.0,0.0,0.0,0.0,0.0,0.0,0.0,0.0,0.0,0.0,0.0,0.0,0.0,0.0,0.0,0.0,0.0,0.0,0.0,0.0,0.0,0.0,0.0,0.0,0.0,0.0,0.0,0.0,0.0,0.0,0.0,0.0,0.0,0.0,0.0,0.0,0.0,0.0,0.0,0.0,0.0,0.0,0.0,0.0,0.0,0.0,0.0,0.0,0.0,0.0,0.0,0.0,0.0,0.0,0.0,0.0,0.0,0.0,0.0,0.0,0.0,0.0,0.0,0.0,0.0,0.0,0.0,0.0,0.0,0.0,0.0,0.0,0.0,0.0,0.0,0.0,0.0,0.0,0.0,0.0,0.0,0.0,0.0,0.0,0.0,0.0,0.0,0.0,0.0,0.0,3.349,3.4234,3.4182,3.3229,3.2506,3.1819,3.1224,0.0,0.0,0.0,0.0,0.0,0.0,0.0,0.0,0.0,0.0,0.0,0.0,0.0,0.0,0.0,0.0,0.0,0.0,0.0,0.0,0.0,0.0,0.0,0.0,0.0,0.0,0.0,0.0,0.0,0.0,0.0,0.0,0.0,0.0,0.0,0.0,0.0,0.0,0.0,0.0,0.0,0.0,0.0,0.0,0.0,0.0,0.0,0.0,0.0,0.0,0.0,0.0,0.0,0.0,0.0,0.0,0.0,0.0,0.0,0.0,0.0,0.0,0.0,0.0,0.0,0.0,0.0,0.0,0.0,0.0,0.0,0.0,0.0,0.0,0.0,0.0,0.0,0.0,0.0,0.0,0.0,0.0,0.0,0.0,0.0,0.0,0.0,0.0,0.0,0.0,0.0,0.0,0.0,0.0,0.0,0.0,0.0,0.0,0.0,0.0,0.0,0.0,0.0,0.0,0.0,0.0,0.0,0.0,3.2797,3.3377,3.3219,3.2344,3.1537,3.1014,0.0,0.0,0.0,0.0,0.0,0.0,0.0,0.0,0.0,0.0,0.0,0.0,0.0,0.0,0.0,0.0,0.0,0.0,0.0,0.0,0.0,0.0,0.0,0.0,0.0,0.0,0.0,0.0,0.0,0.0,0.0,0.0,0.0,0.0,0.0,0.0,0.0,0.0,0.0,0.0,0.0,0.0,0.0,0.0,0.0,0.0,0.0,0.0,0.0,0.0,0.0,0.0,0.0,0.0,0.0,0.0,0.0,0.0,0.0,0.0,0.0,0.0,0.0,0.0,0.0,0.0,0.0,0.0,0.0,0.0,0.0,0.0,0.0,0.0,0.0,0.0,0.0,0.0,0.0,0.0,0.0,0.0,0.0,0.0,0.0,0.0,0.0,0.0,0.0,0.0,0.0,0.0,0.0,0.0,0.0,0.0,0.0,0.0,0.0,0.0,0.0,0.0,0.0,0.0,0.0,0.0,0.0,0.0,0.0,3.0557,3.0046,3.0245,3.1045,3.0001,2.9676,0.0,0.0,0.0,0.0,0.0,0.0,0.0,0.0,0.0,0.0,0.0,0.0,0.0,0.0,0.0,0.0,0.0,0.0,0.0,0.0,0.0,0.0,0.0,0.0,0.0,0.0,0.0,0.0,0.0,0.0,0.0,0.0,0.0,0.0,0.0,0.0,0.0,0.0,0.0,0.0,0.0,0.0,0.0,0.0,0.0,0.0,0.0,0.0,0.0,0.0,0.0,0.0,0.0,0.0,0.0,0.0,0.0,0.0,0.0,0.0,0.0,0.0,0.0,0.0,0.0,0.0,0.0,0.0,0.0,0.0,0.0,0.0,0.0,0.0,0.0,0.0,0.0,0.0,0.0,0.0,0.0,0.0,0.0,0.0,0.0,0.0,0.0,0.0,0.0,0.0,0.0,0.0,0.0,0.0,0.0,0.0,0.0,0.0,0.0,0.0,0.0,0.0,0.0,0.0,0.0,0.0,0.0,0.0,2.9141,2.823,2.7165,2.6688,2.6896,2.6989,2.7466,0.0,0.0,0.0,0.0,0.0,0.0,0.0,0.0,0.0,0.0,0.0,0.0,0.0,0.0,0.0,0.0,0.0,0.0,0.0,0.0,0.0,0.0,0.0,0.0,0.0,0.0,0.0,0.0,0.0,0.0,0.0,0.0,0.0,0.0,0.0,0.0,0.0,0.0,0.0,0.0,0.0,0.0,0.0,0.0,0.0,0.0,0.0,0.0,0.0,0.0,0.0,0.0,0.0,0.0,0.0,0.0,0.0,0.0,0.0,0.0,0.0,0.0,0.0,0.0,0.0,0.0,0.0,0.0,0.0,0.0,0.0,0.0,0.0,0.0,0.0,0.0,0.0,0.0,0.0,0.0,0.0,0.0,0.0,0.0,0.0,0.0,0.0,0.0,0.0,0.0,0.0,0.0,0.0,0.0,0.0,0.0,0.0,0.0,0.0,0.0,0.0,0.0,0.0,0.0,0.0,0.0,0.0,0.0,2.7264,2.5766,2.4431,2.2898,2.127,2.308,2.455,0.0,0.0,0.0,0.0,0.0,0.0,0.0,0.0,0.0,0.0,0.0,0.0,0.0,0.0,0.0,0.0,0.0,0.0,0.0,0.0,0.0,0.0,0.0,0.0,0.0,0.0,0.0,0.0,0.0,0.0,0.0,0.0,0.0,0.0,0.0,0.0,0.0,0.0,0.0,0.0,0.0,0.0,0.0,0.0,0.0,0.0,0.0,0.0,0.0,0.0,0.0,0.0,0.0,0.0,0.0,0.0,0.0,0.0,0.0,0.0,0.0,0.0,0.0,0.0,0.0,0.0,0.0,0.0,0.0,0.0,0.0,0.0,0.0,0.0,0.0,0.0,0.0,0.0,0.0,0.0,0.0,0.0,0.0,0.0,0.0,0.0,0.0,0.0,0.0,0.0,0.0,0.0,0.0,0.0,0.0,0.0,0.0,0.0,0.0,0.0,0.0,0.0,0.0,0.0,0.0,0.0,0.0,0.0,2.4942,2.2715,2.1525,1.9736,1.7367,1.9356,2.0671,0.0,0.0,0.0,0.0,0.0,0.0,0.0,0.0,0.0,0.0,0.0,0.0,0.0,0.0,0.0,0.0,0.0,0.0,0.0,0.0,0.0,0.0,0.0,0.0,0.0,0.0,0.0,0.0,0.0,0.0,0.0,0.0,0.0,0.0,0.0,0.0,0.0,0.0,0.0,0.0,0.0,0.0,0.0,0.0,0.0,0.0,0.0,0.0,2.4729,0.0,0.0,0.0,0.0,0.0,0.0,0.0,0.0,0.0,0.0,0.0,0.0,0.0,0.0,0.0,0.0,0.0,0.0,0.0,0.0,0.0,0.0,0.0,0.0,0.0,0.0,0.0,0.0,0.0,0.0,0.0,0.0,0.0,0.0,0.0,0.0,0.0,0.0,0.0,0.0,0.0,0.0,0.0,0.0,0.0,0.0,0.0,0.0,0.0,0.0,0.0,0.0,0.0,0.0,0.0,0.0,0.0,0.0,0.0,2.2505,1.9989,1.8574,1.6589,1.3966,1.3647,1.4232,0.0,0.0,0.0,0.0,0.0,0.0,0.0,0.0,0.0,0.0,0.0,0.0,0.0,0.0,0.0,0.0,0.0,0.0,0.0,0.0,0.0,0.0,0.0,0.0,0.0,0.0,0.0,0.0,0.0,0.0,0.0,0.0,0.0,0.0,0.0,0.0,0.0,0.0,0.0,0.0,0.0,0.0,0.0,0.0,0.0,0.0,0.0,0.0,0.0,0.0,0.0,0.0,0.0,0.0,0.0,0.0,0.0,0.0,0.0,0.0,0.0,0.0,0.0,0.0,0.0,0.0,0.0,0.0,0.0,0.0,0.0,0.0,0.0,0.0,0.0,0.0,0.0,0.0,0.0,0.0,0.0,0.0,0.0,0.0,0.0,0.0,0.0,0.0,0.0,0.0,0.0,0.0,0.0,0.0,0.0,0.0,0.0,0.0,0.0,0.0,0.0,0.0,0.0,0.0,0.0,0.0,0.0,2.1817,1.998,1.7436,1.5716,1.3406,1.049,0.7785,0.7113,0.864,0.0,0.0,0.0,0.0,0.0,0.0,0.0,0.0,0.0,0.0,0.0,0.0,0.0,0.0,0.0,0.0,0.0,0.0,0.0,0.0,0.0,0.0,0.0,0.0,0.0,0.0,0.0,0.0,0.0,0.0,0.0,0.0,0.0,0.0,0.0,0.0,0.0,0.0,2.3424,2.2651,0.0,0.0,0.0,0.0,0.0,0.0,0.0,0.0,2.2574,0.0,0.0,0.0,0.0,0.0,0.0,0.0,0.0,0.0,0.0,0.0,0.0,0.0,0.0,0.0,0.0,0.0,0.0,0.0,0.0,0.0,0.0,0.0,0.0,0.0,0.0,0.0,0.0,0.0,0.0,0.0,0.0,0.0,0.0,0.0,0.0,0.0,0.0,0.0,0.0,0.0,0.0,0.0,0.0,0.0,0.0,0.0,0.0,0.0,0.0,0.0,0.0,0.0,0.0,0.0,0.0,2.0404,1.9119,1.7265,1.4751,1.284,1.0319,0.7165,0.4349,0.1589,-0.1035,0.0,0.0,0.0,0.0,0.0,0.0,0.0,0.0,0.0,0.0,0.0,0.0,0.0,0.0,0.0,0.0,0.0,0.0,0.0,0.0,0.0,0.0,0.0,0.0,0.0,0.0,0.0,0.0,0.0,0.0,0.0,0.0,0.0,0.0,0.0,0.0,0.0,0.0,0.0,1.9677,1.8643,0.0,0.0,0.0,0.0,0.0,0.0,0.0,0.0,2.0053,0.0,0.0,0.0,0.0,0.0,0.0,0.0,0.0,0.0,0.0,0.0,0.0,0.0,0.0,0.0,0.0,0.0,0.0,0.0,0.0,0.0,0.0,0.0,0.0,0.0,0.0,0.0,0.0,0.0,0.0,0.0,0.0,0.0,0.0,0.0,0.0,0.0,0.0,0.0,0.0,0.0,0.0,0.0,0.0,0.0,0.0,0.0,0.0,0.0,0.0,0.0,0.0,0.0,0.0,0.0,1.739,1.6175,1.4453,1.2233,1.0119,0.7579,0.4586,0.1643,-0.1665,0.0,0.0,0.0,0.0,0.0,0.0,0.0,0.0,0.0,0.0,0.0,0.0,0.0,0.0,0.0,0.0,0.0,0.0,0.0,0.0,0.0,0.0,0.0,0.0,0.0,0.0,0.0,0.0,0.0,0.0,0.0,0.0,0.0,0.0,0.0,0.0,0.0,0.0,0.0,0.0,1.592,1.4426,1.2883,0.0,0.0,0.0,0.0,0.0,0.0,1.4838,1.6113,0.0,0.0,0.0,0.0,0.0,0.0,0.0,0.0,0.0,0.0,0.0,0.0,0.0,0.0,0.0,0.0,0.0,0.0,0.0,0.0,0.0,0.0,0.0,0.0,0.0,0.0,0.0,0.0,0.0,0.0,0.0,0.0,0.0,0.0,0.0,0.0,0.0,0.0,0.0,0.0,0.0,0.0,0.0,0.0,0.0,0.0,0.0,0.0,0.0,0.0,0.0,0.0,0.0,0.0,0.0,1.4192,1.3009,1.1517,0.9616,0.7405,0.4965,0.2304,-0.0788,-0.4032,0.0,0.0,0.0,0.0,0.0,0.0,0.0,0.0,0.0,0.0,0.0,0.0,0.0,0.0,0.0,0.0,0.0,0.0,0.0,0.0,0.0,0.0,0.0,0.0,0.0,0.0,0.0,0.0,0.0,0.0,0.0,0.0,0.0,0.0,0.0,0.0,0.0,0.0,0.0,0.0,0.0,0.9995,0.8127,0.7135,0.0,0.0,0.0,0.0,0.892,0.9945,0.0,0.0,0.0,0.0,0.0,0.0,0.0,0.0,0.0,0.0,0.0,0.0,0.0,0.0,0.0,0.0,0.0,0.0,0.0,0.0,0.0,0.0,0.0,0.0,0.0,0.0,0.0,0.0,0.0,0.0,0.0,0.0,0.0,0.0,0.0,0.0,0.0,0.0,0.0,0.0,0.0,0.0,0.0,0.0,0.0,0.0,0.0,0.0,0.0,0.0,0.0,0.0,0.0,0.0,0.0,0.0,1.046,0.9631,0.8351,0.6764,0.4525,0.2308,0.0072,-0.2873,-0.5786,0.0,0.0,0.0,0.0,0.0,0.0,0.0,0.0,0.0,0.0,0.0,0.0,0.0,0.0,0.0,0.0,0.0,0.0,0.0,0.0,0.0,0.0,0.0,0.0,0.0,0.0,0.0,0.0,0.0,0.0,0.0,0.0,0.0,0.0,0.0,0.0,0.0,0.0,0.0,0.0,0.0,0.5715,0.352,0.2215,0.1335,0.0,0.0,0.2011,0.2722,0.4176,0.0,0.0,0.0,0.0,0.0,0.0,0.0,0.0,0.0,0.0,0.0,0.0,0.0,0.0,0.0,0.0,0.0,0.0,0.0,0.0,0.0,0.0,0.0,0.0,0.0,0.0,0.0,0.0,0.0,0.0,0.0,0.0,0.0,0.0,0.0,0.0,0.0,0.0,0.0,0.0,0.0,0.0,0.0,0.0,0.0,0.0,0.0,0.0,0.0,0.0,0.0,0.0,0.0,0.0,0.0,0.6506,0.6764,0.6009,0.5083,0.387,0.197,0.0073,-0.1733,-0.4385,-0.6906,0.0,0.0,0.0,0.0,0.0,0.0,0.0,0.0,0.0,0.0,0.0,0.0,0.0,0.0,0.0,0.0,0.0,0.0,0.0,0.0,0.0,0.0,0.0,0.0,0.0,0.0,0.0,0.0,0.0,0.0,0.0,0.0,0.0,0.0,0.0,0.0,0.0,0.0,0.0,0.0,0.0,0.0,-0.042,-0.1913,0.0,0.0,0.0,-0.3044,-0.2446,0.0,0.0,0.0,0.0,0.0,0.0,0.0,0.0,0.0,0.0,0.0,0.0,0.0,0.0,0.0,0.0,0.0,0.0,0.0,0.0,0.0,0.0,0.0,0.0,0.0,0.0,0.0,0.0,0.0,0.0,0.0,0.0,0.0,0.0,0.0,0.0,0.0,0.0,0.0,0.0,0.0,0.0,0.0,0.0,0.0,0.0,0.0,0.0,0.0,0.0,0.0,0.0,0.0,0.0,0.0,0.0,0.0,0.3055,0.2433,0.1818,0.1007,-0.0592,-0.2228,-0.3715,-0.5915,0.0,0.0,0.0,0.0,0.0,0.0,0.0,0.0,0.0,0.0,0.0,0.0,0.0,0.0,0.0,0.0,0.0,0.0,0.0,0.0,0.0,0.0,0.0,0.0,0.0,0.0,0.0,0.1175,0.0,0.0,0.0,0.0,0.0,0.0,0.0,0.0,0.0,0.0,0.0,0.0,0.0,0.0,-0.1552,-0.3896,-0.5528,-0.6713,0.0,0.0,-0.743,-0.7005,-0.606,-0.4788,0.0,0.0,0.0,0.0,0.0,0.0,0.0,0.0,0.0,0.0,0.0,0.0,0.0,0.0,0.0,0.0,0.0,0.0,0.0,0.0,0.0,0.0,0.0,0.0,0.0,0.0,0.0,0.0,0.0,0.0,0.0,0.0,0.0,0.0,0.0,0.0,0.0,0.0,0.0,0.0,0.0,0.0,0.0,0.0,0.0,0.0,0.0,0.0,0.0,0.0,0.0,0.0,0.0,0.0,-0.1106,-0.0827,-0.0942,-0.1262,-0.1874,-0.3185,-0.4574,-0.6043,-0.7494,-0.9044,0.0,0.0,0.0,0.0,0.0,0.0,0.0,0.0,0.0,0.0,0.0,0.0,0.0,0.0,0.0,0.0,0.0,0.0,0.0,0.0,0.0,0.0,0.0,0.0,0.0,0.0,0.0,0.0,0.0,0.0,0.0,0.0,0.0,0.0,0.0,0.0,0.0,0.0,0.0,0.0,0.0,-0.4659,-0.683,-0.8546,-0.9814,0.0,-1.0652,-1.0765,-1.0747,-0.9822,-0.8804,-0.7868,0.0,0.0,0.0,0.0,0.0,0.0,0.0,0.0,0.0,0.0,0.0,0.0,0.0,0.0,0.0,0.0,0.0,0.0,0.0,0.0,0.0,0.0,0.0,0.0,0.0,0.0,0.0,0.0,0.0,0.0,0.0,0.0,0.0,0.0,0.0,0.0,0.0,0.0,0.0,0.0,0.0,0.0,0.0,0.0,0.0,0.0,0.0,0.0,0.0,0.0,0.0,0.0,0.0,-0.4781,-0.4226,-0.4198,-0.427,-0.4613,-0.5631,-0.6622,-0.7413,-0.8517,-0.9685,0.0,0.0,0.0,0.0,0.0,0.0,0.0,0.0,0.0,0.0,0.0,0.0,0.0,0.0,0.0,0.0,0.0,0.0,0.0,0.0,0.0,0.0,0.0,0.0,0.0,0.0,0.0,0.0,-0.4926,-0.4247,-0.348,0.0,0.0,0.0,0.0,0.0,0.0,0.0,0.0,0.0,0.0,-0.7491,-0.9648,-1.1295,0.0,0.0,-1.341,-1.3484,-1.3079,-1.2586,-1.1995,-1.1296,-0.9563,0.0,0.0,0.0,0.0,0.0,0.0,0.0,0.0,0.0,0.0,0.0,0.0,0.0,0.0,0.0,0.0,0.0,0.0,0.0,0.0,0.0,0.0,0.0,0.0,0.0,0.0,0.0,0.0,0.0,0.0,0.0,0.0,0.0,0.0,0.0,0.0,0.0,0.0,0.0,0.0,0.0,0.0,0.0,0.0,0.0,0.0,0.0,0.0,0.0,0.0,0.0,0.0,-0.7954,-0.7335,-0.7142,-0.7066,-0.7204,-0.7895,-0.8463,-0.8921,-0.9636,-1.0303,0.0,0.0,0.0,0.0,0.0,0.0,0.0,0.0,0.0,0.0,0.0,0.0,0.0,0.0,0.0,0.0,0.0,0.0,0.0,0.0,0.0,0.0,0.0,0.0,0.0,0.0,0.0,0.0,-0.801,-0.7465,-0.6736,0.0,0.0,0.0,0.0,0.0,0.0,0.0,0.0,0.0,0.0,-1.0244,-1.222,-1.3672,-1.4818,-1.5351,-1.5642,-1.5696,-1.5188,-1.4775,-1.4391,-1.3921,0.0,0.0,0.0,0.0,0.0,0.0,0.0,0.0,0.0,0.0,0.0,0.0,0.0,0.0,0.0,0.0,0.0,0.0,0.0,0.0,0.0,0.0,0.0,0.0,0.0,0.0,0.0,0.0,0.0,0.0,-2.0067,0.0,0.0,0.0,0.0,0.0,0.0,0.0,0.0,0.0,0.0,0.0,0.0,0.0,0.0,0.0,0.0,0.0,0.0,0.0,0.0,0.0,0.0,-1.0389,-1.0095,-0.9576,-0.9422,-0.9585,-0.976,-1.0121,-1.0714,-1.0919,-1.1141,-1.1539,0.0,0.0,0.0,0.0,0.0,0.0,0.0,0.0,0.0,0.0,0.0,0.0,0.0,0.0,0.0,0.0,0.0,0.0,0.0,0.0,0.0,0.0,0.0,0.0,0.0,0.0,-1.0743,-1.0528,-1.0147,0.0,0.0,0.0,0.0,0.0,0.0,0.0,0.0,0.0,0.0,-1.1063,-1.2941,-1.4351,-1.5713,-1.6791,-1.7177,-1.7231,-1.727,-1.7234,-1.6582,-1.5999,0.0,0.0,0.0,0.0,0.0,0.0,0.0,0.0,0.0,0.0,0.0,0.0,0.0,0.0,0.0,0.0,0.0,0.0,0.0,0.0,0.0,0.0,0.0,0.0,0.0,0.0,0.0,-2.0704,-2.0748,0.0,0.0,0.0,0.0,0.0,0.0,0.0,0.0,0.0,0.0,0.0,-1.8814,-1.8206,0.0,0.0,0.0,0.0,0.0,0.0,0.0,0.0,0.0,0.0,0.0,0.0,-1.2774,-1.2129,-1.1901,-1.1653,-1.1404,-1.1321,-1.1329,-1.1403,-1.1361,-1.1427,-1.1549,0.0,0.0,0.0,0.0,0.0,0.0,0.0,0.0,0.0,0.0,0.0,0.0,0.0,0.0,0.0,0.0,0.0,0.0,0.0,0.0,0.0,0.0,0.0,0.0,0.0,-1.2906,0.0,0.0,0.0,0.0,0.0,0.0,0.0,0.0,0.0,0.0,0.0,-1.0448,-1.1977,-1.3489,-1.5087,-1.6784,-1.7617,-1.8248,0.0,0.0,0.0,0.0,0.0,0.0,0.0,0.0,0.0,0.0,0.0,0.0,0.0,0.0,-1.8943,-2.0556,-2.371,-2.6458,-2.7556,0.0,0.0,0.0,0.0,0.0,0.0,0.0,0.0,0.0,0.0,0.0,0.0,0.0,0.0,-2.1256,0.0,-2.1173,0.0,0.0,0.0,0.0,0.0,0.0,0.0,0.0,-2.0028,-1.9901,-1.9536,-1.9108,-1.8797,0.0,-1.8262,-1.758,0.0,0.0,0.0,0.0,0.0,0.0,0.0,0.0,-1.4558,-1.4007,-1.365,-1.3234,-1.2785,-1.2563,-1.2298,-1.2003,-1.1801,-1.1643,-1.1489,-1.1309,-1.1234,0.0,0.0,0.0,0.0,0.0,0.0,0.0,0.0,0.0,0.0,0.0,0.0,0.0,0.0,0.0,0.0,0.0,0.0,0.0,0.0,0.0,0.0,0.0,-1.4711,0.0,0.0,0.0,0.0,0.0,0.0,0.0,0.0,0.0,-1.1333,-1.2087,-1.3317,-1.4541,-1.5947,-1.7367,-1.8662,0.0,0.0,0.0,0.0,0.0,0.0,0.0,-1.7872,-1.792,-1.7687,-1.7529,-1.77,-1.7832,-1.8237,-1.9174,0.0,0.0,-2.2215,-2.3866,-2.548,-2.658,-2.7052,-2.722,-2.7109,-2.6943,-2.6819,0.0,0.0,0.0,0.0,0.0,0.0,0.0,0.0,-2.204,-2.1701,0.0,-2.1535,0.0,0.0,0.0,0.0,0.0,-2.1156,0.0,0.0,-2.0531,-2.024,-1.983,-1.9771,-1.9522,-1.9093,-1.8874,-1.8753,-1.8709,-1.7835,0.0,0.0,0.0,0.0,0.0,0.0,-1.5794,-1.5686,-1.4857,-1.4275,-1.381,-1.3404,-1.3046,-1.2586,-1.2168,-1.1737,-1.1443,-1.1149,-1.0862,-1.0595,-1.0568,0.0,0.0,0.0,0.0,0.0,0.0,0.0,0.0,0.0,0.0,0.0,0.0,0.0,0.0,0.0,0.0,0.0,0.0,0.0,0.0,-1.588,0.0,0.0,0.0,0.0,0.0,0.0,0.0,0.0,0.0,0.0,-1.4016,-1.4864,-1.5911,-1.6764,0.0,0.0,0.0,0.0,-2.1195,-2.1165,-2.0451,-1.9805,-1.9611,-1.8974,-1.8414,-1.8337,0.0,0.0,-1.871,-1.8913,-1.9429,-2.0517,-2.1567,-2.2511,-2.2986,-2.3822,-2.4695,-2.5546,-2.6129,-2.6327,-2.6329,-2.6397,-2.638,-3.2387,0.0,0.0,0.0,0.0,-2.4709,-2.3662,-2.2896,-2.2566,-2.2384,-2.2432,-2.2571,0.0,0.0,0.0,0.0,0.0,0.0,-2.1492,-2.1281,-2.1428,-2.1412,-2.1228,-2.0919,-2.0722,-2.0546,-2.0232,-2.0042,-1.9894,-1.9295,-1.8757,-1.8311,0.0,0.0,0.0,0.0,-1.7045,-1.6494,-1.5885,-1.5309,-1.4617,-1.3992,-1.3273,-1.2599,-1.2017,-1.1617,-1.1526,-1.0924,-1.0494,-1.0352,-1.0161,0.0,0.0,0.0,0.0,0.0,0.0,0.0,0.0,0.0,0.0,0.0,0.0,0.0,0.0,0.0,0.0,0.0,0.0,0.0,-1.7253,-1.7772,-1.8091,0.0,0.0,0.0,0.0,0.0,0.0,0.0,0.0,0.0,-1.7997,-1.776,-1.8084,0.0,0.0,-2.0771,-2.1624,-2.1649,-2.1542,-2.1148,-2.0533,0.0,0.0,-1.8853,-1.8549,-1.8607,-1.9008,-1.9431,-1.9836,-2.0362,-2.1058,-2.2017,-2.2801,-2.3514,-2.4362,-2.5,-2.5659,-2.6277,-2.6775,-2.6974,-2.6651,-2.6618,-2.664,-3.322,-3.1682,-2.963,-2.8008,-2.6569,-2.4932,-2.3876,-2.3219,-2.2764,-2.2629,-2.2739,-2.309,-2.3141,-2.3012,-2.307,0.0,0.0,0.0,-2.2114,-2.2006,-2.2041,-2.1987,-2.1862,-2.1549,-2.136,-2.1285,-2.0914,-2.0658,-2.054,-2.0176,-1.975,-1.9255,0.0,0.0,-1.8364,-1.8214,-1.7724,-1.7082,-1.6486,-1.5754,-1.4768,-1.392,-1.3193,-1.2746,-1.2131,-1.1696,-1.1508,-1.0798,-1.0245,-1.0013,-0.9687,-0.9408,0.0,0.0,0.0,0.0,0.0,0.0,0.0,0.0,0.0,0.0,0.0,-1.1503,-1.2473,0.0,0.0,0.0,-1.6925,-1.8164,-1.9369,-1.9667,0.0,0.0,0.0,0.0,0.0,0.0,0.0,-1.89,-1.9131,-1.961,-2.0404,-2.0049,-2.0118,-2.1199,-2.1629,-2.1999,-2.2446,0.0,-2.1808,-2.1292,-2.0586,-1.9939,-1.9393,-1.8978,-1.8808,-1.8952,-1.9407,-1.9868,-2.0399,-2.1083,-2.1939,-2.287,-2.3631,-2.4477,-2.5396,-2.6144,-2.6579,-2.6605,-2.7078,-2.7313,-2.7082,-2.7026,-2.6949,-3.324,-3.2078,-3.0406,-2.8754,-2.7042,-2.5284,-2.4191,-2.3616,-2.2812,-2.253,-2.2739,-2.3223,-2.345,-2.3628,-2.3616,0.0,-2.3569,-2.2982,-2.2678,-2.269,-2.2383,-2.2123,-2.1925,-2.1761,-2.1624,-2.14,-2.1083,-2.0839,-2.0669,-2.0475,-2.0281,-2.0064,-1.9193,-1.883,-1.8871,-1.8593,-1.8071,-1.7432,-1.6664,-1.5745,-1.4569,-1.3477,-1.2893,-1.2826,-1.2305,-1.1739,-1.1266,-1.0719,-1.0185,-0.972,-0.9259,-0.8975,-0.8958,0.0,0.0,0.0,0.0,0.0,0.0,0.0,0.0,0.0,0.0,0.0,0.0,0.0,0.0,-1.7057,-1.8829,0.0,-2.1332,-2.1392,0.0,0.0,0.0,-2.106,-2.0764,-2.0431,-2.0291,-2.0431,0.0,0.0,-2.1583,-2.1718,-2.1801,-2.2084,-2.2743,-2.3103,-2.2744,-2.2415,-2.2049,-2.1323,-2.0589,-1.9906,-1.9469,-1.9199,-1.9152,-1.9285,-1.9615,-1.9998,-2.0582,-2.125,-2.2175,-2.3135,-2.4253,-2.5259,-2.6108,-2.7012,-2.7546,-2.6885,-2.7214,-2.7666,-2.7786,-2.7611,-2.7458,-3.2725,-3.1332,-2.9964,-2.8532,-2.7042,-2.5408,-2.414,-2.3338,-2.295,-2.2735,-2.2751,-2.3163,-2.3582,-2.3832,-2.3688,-2.3582,-2.3403,-2.2921,-2.2678,-2.2678,-2.2371,-2.2197,-2.2123,-2.1824,-2.1698,-2.1624,-2.1094,-2.085,-2.0669,-2.0475,-2.0281,-1.9933,-1.9576,-1.9328,-1.9173,-1.8701,-1.814,-1.7373,-1.6612,-1.5417,-1.4008,-1.3266,-1.2753,-1.2452,-1.2003,-1.1601,-1.1163,-1.0689,-1.016,-0.9569,-0.9243,-0.8953,-0.8652,-0.8576,0.0,0.0,0.0,0.0,0.0,0.0,0.0,0.0,0.0,-1.2545,-1.4241,0.0,-1.7417,0.0,-2.072,-2.2272,-2.3119,-2.317,0.0,0.0,-2.2531,-2.2051,-2.1628,-2.1313,-2.1123,-2.1123,-2.1262,-2.1597,-2.2368,-2.245,-2.2608,-2.3003,-2.2777,-2.252,-2.2461,-2.2162,-2.1603,-2.0781,-2.0398,-1.9986,-1.9313,-1.9158,-1.9142,-1.9274,-1.9473,-1.9933,-2.07,-2.1262,-2.2063,-2.3255,-2.431,-2.5287,-2.6094,-2.71,-2.7853,-2.8155,-2.8629,-2.893,-2.8795,-2.886,-2.876,-3.2109,-3.0734,-2.9261,-2.7889,-2.662,-2.5413,-2.43,-2.3304,-2.3051,-2.2718,-2.2494,-2.303,-2.3463,-2.376,-2.3509,-2.3318,-2.3271,-2.2787,-2.2555,-2.2543,-2.2321,-2.2135,-2.2061,-2.1824,-2.1635,-2.1498,-2.1094,-2.0786,-2.0604,-2.0324,-2.0118,-1.9868,-1.9539,-1.9208,-1.8931,-1.8509,-1.7901,-1.7157,-1.5974,-1.4784,-1.3717,-1.3193,-1.2673,-1.2305,-1.1929,-1.1484,-1.1105,-1.0566,-1.0033,-0.9443,-0.9127,-0.8815,-0.8392,-0.8447,-0.8447,0.0,0.0,0.0,0.0,0.0,0.0,0.0,0.0,0.0,0.0,0.0,-1.9597,-2.1766,-2.3132,-2.4053,-2.4657,-2.4526,-2.4253,-2.3846,-2.3433,-2.2907,-2.2384,-2.2087,-2.1889,-2.1839,-2.1975,-2.2157,-2.2633,-2.2606,-2.2639,-2.281,-2.2379,-2.2102,-2.2287,-2.1935,-2.1338,-2.0428,-2.0137,-1.9723,-1.9096,-1.8942,-1.8926,-1.8937,-1.9156,-1.9554,-2.0155,-2.0714,-2.1416,-2.2591,-2.3612,-2.4449,-2.5299,-2.6182,-2.6983,-2.7612,-2.8113,-2.8737,-2.9534,-2.9376,-2.8941,-3.1345,-2.9986,-2.8451,-2.7005,-2.5758,-2.511,-2.4285,-2.338,-2.2989,-2.2603,-2.2247,-2.2836,-2.3271,-2.3509,-2.3198,-2.3078,-2.2957,-2.2543,-2.2359,-2.2359,-2.2185,-2.2073,-2.1862,-2.1686,-2.1498,-2.1221,-2.0903,-2.0635,-2.0335,-2.0118,-1.9922,-1.9802,-1.9274,-1.8787,-1.8375,-1.7959,-1.7404,-1.6655,-1.5125,-1.4072,-1.3492,-1.3046,-1.2673,-1.2224,-1.1855,-1.1484,-1.1031,-1.046,-0.9857,-0.9298,-0.9017,-0.8714,-0.8252,-0.8441,-0.8576,0.0,-0.8835,0.0,0.0,0.0,0.0,0.0,0.0,0.0,0.0,-1.983,-2.2443,-2.5135,-2.5522,-2.5714,-2.5972,-2.5605,-2.5175,-2.4681,-2.4221,-2.3695,-2.3078,-2.2774,-2.2567,-2.2531,-2.2421,-2.2457,-2.2751,-2.2616,-2.2371,-2.2246,-2.1862,-2.1667,-2.1922,-2.1554,-2.1019,-2.029,-1.9762,-1.9159,-1.8649,-1.8583,-1.8527,-1.8382,-1.8628,-1.9043,-1.9351,-1.9983,-2.0713,-2.1771,-2.2737,-2.3554,-2.4276,-2.5106,-2.5816,-2.65,-2.7001,-2.7865,-2.9353,-2.9201,-2.8657,-3.0259,-2.868,-2.718,-2.5679,-2.4224,-2.3571,-2.3133,-2.2842,-2.2344,-2.2209,-2.2371,-2.2787,-2.2969,-2.303,-2.2969,-2.2787,-2.2543,-2.2309,-2.2123,-2.1987,-2.1886,-2.1761,-2.1698,-2.1423,-2.1233,-2.1158,-2.0571,-2.0237,-2.0183,-1.966,-1.9407,-1.9198,-1.8741,-1.8259,-1.7833,0.0,0.0,0.0,-1.4625,-1.3848,-1.3266,-1.2826,-1.2378,-1.1855,-1.1558,0.0,-1.0663,-1.0173,-0.9653,-0.9103,-0.8959,0.0,0.0,0.0,0.0,0.0,0.0,0.0,0.0,0.0,0.0,0.0,-1.6765,-1.8419,-1.9216,-2.2495,-2.519,-2.6553,-2.6768,-2.6797,-2.6849,-2.6481,-2.6068,-2.555,-2.5048,-2.4478,-2.3708,-2.3076,-2.2799,-2.3148,-2.2689,-2.2589,-2.3037,-2.2921,-2.2531,-2.2212,-2.1483,-2.0827,-2.0522,-2.0549,-2.0391,-1.9777,-1.9002,-1.8274,-1.764,-1.763,-1.765,-1.7666,-1.7968,-1.8419,-1.9097,-1.9761,-2.0653,-2.1682,-2.2698,-2.3575,-2.4234,-2.5062,-2.5696,-2.6392,-2.6859,-2.7438,-2.8274,-2.85,-2.8461,-2.9094,0.0,-2.597,-2.4584,0.0,-2.2188,-2.1647,-2.1541,-2.1632,-2.1823,-2.2037,-2.2297,-2.2482,-2.2555,-2.2482,-2.2297,-2.2173,-2.1999,-2.1862,-2.1651,-2.1612,-2.1486,-2.1296,-2.1031,-2.0828,-2.0624,-2.0237,-1.9922,-1.9726,-1.9341,-1.9075,-1.8787,-1.825,-1.7784,-1.7304,-1.6219,-1.5367,-1.4832,-1.4129,-1.3557,-1.3046,-1.2673,-1.2231,-1.1706,0.0,0.0,0.0,0.0,0.0,0.0,0.0,0.0,0.0,0.0,0.0,-0.9414,-1.004,-1.0787,-1.1578,-1.2801,-1.4159,-1.5793,-1.8911,-2.1302,-2.2622,-2.5129,-2.6968,-2.7819,-2.7864,-2.7644,-2.7195,-2.6701,-2.6075,-2.5166,-2.4609,-2.4082,-2.349,-2.2851,-2.2575,-2.2649,-2.2312,-2.2135,-2.2412,-2.203,-2.1618,-2.1308,-2.0639,-1.9924,-1.9521,-1.9441,-1.9356,-1.8786,-1.8109,-1.7493,-1.7219,-1.7159,-1.7059,-1.7093,-1.7388,-1.7824,-1.838,-1.9055,-1.9879,-2.0907,-2.1847,-2.2705,-2.3373,-2.4095,-2.4791,-2.5318,-2.5801,-2.6254,-2.6769,-2.7453,-2.7955,-2.7811,-2.6342,-2.4623,-2.3341,-2.2317,-2.0993,-2.0264,-2.0133,0.0,0.0,0.0,-2.1737,-2.1862,-2.2011,-2.1862,-2.1737,-2.1737,-2.1624,-2.1423,-2.1262,-2.1273,-2.1083,-2.0775,-2.0571,-2.0257,-1.9922,-1.9673,-1.9369,-1.8968,-1.8761,-1.8497,-1.8088,-1.7697,-1.717,-1.6551,-1.5409,-1.4617,-1.4266,-1.3702,-1.3273,-1.282,-1.2452,-1.2083,-1.1626,-1.126,-1.0887,-1.0513,-1.0179,-0.9732,-0.9032,-0.9029,-0.8885,-0.8549,-0.8829,-0.928,-0.9862,-1.0555,-1.1421,-1.2389,-1.364,-1.5235,-1.7245,-2.0578,-2.3501,-2.5659,-2.6796,-2.7695,-2.8389,-2.8264,-2.7891,-2.7102,-2.6552,-2.5796,-2.4568,-2.3988,-2.3502,-2.3017,-2.2538,-2.2202,-2.213,-2.1818,-2.1546,-2.1574,-2.1124,-2.0607,-2.01,-1.9667,-1.9,-1.849,-1.844,-1.8315,-1.7585,-1.7121,-1.6822,-1.6671,-1.6631,-1.6594,-1.6447,-1.6804,-1.7233,-1.7712,-1.8344,-1.9133,-2.0118,-2.097,-2.1835,-2.2449,-2.3201,-2.3739,-2.4219,-2.4686,-2.5146,-2.5637,-2.6508,-2.7322,-2.5917,-2.4791,-2.3006,-2.1545,-2.0429,-1.9889,-1.9472,-1.9368,-2.0172,-2.0714,-2.1031,-2.1221,-2.1285,-2.1348,-2.1296,-2.1221,-2.1031,-2.1031,-2.0914,0.0,-2.0658,-2.0529,-2.0475,-1.9944,-1.9522,-1.9105,-1.8699,-1.8107,-1.7622,-1.7286,-1.6958,-1.6632,-1.6552,-1.6151,-1.5417,-1.4641,-1.4,-1.3594,-1.3346,-1.2973,-1.2378,-1.215,-1.1855,-1.1484,-1.1031,-1.0738,-1.0513,-0.9802,-0.928,-0.9022,-0.8817,-0.859,-0.8538,-0.9017,-0.953,-1.018,-1.0989,-1.1911,-1.3086,-1.4323,-1.6462,-1.9817,-2.1827,-2.3581,-2.5213,-2.6074,-2.6717,-2.7237,-2.7152,-2.6805,-2.6427,-2.5968,-2.5342,-2.4595,-2.4148,-2.3719,-2.3002,-2.2325,-2.1944,-2.2055,-2.1568,-2.125,-2.1305,-2.09,-2.0351,-1.989,-1.8928,-1.806,-1.7249,-1.7413,-1.743,-1.6617,-1.6274,-1.5945,-1.5561,-1.5398,-1.5595,-1.5781,-1.6199,-1.6764,-1.7568,-1.8398,-1.9186,-2.0016,-2.1006,-2.1888,-2.242,-2.3098,-2.3724,-2.4219,-2.4751,-2.5208,-2.561,-2.6234,-2.674,-2.4032,-2.2868,-2.1399,-2.027,-1.9461,-1.9021,-1.8788,-1.8798,-1.9341,-1.9857,-2.0324,-2.0506,-2.0624,-2.0602,-2.0344,-2.0158,-2.0083,-1.985,-1.9665,-1.9467,-1.9364,-1.9176,-1.905,-1.8596,-1.829,-1.804,-1.7661,-1.7169,-1.6792,-1.6583,-1.6265,-1.5689,-1.5226,-1.4732,-1.4207,-1.3592,-1.3042,-1.2565,-1.2659,-1.2599,-1.2298,-1.178,-1.1338,-1.1192,-1.0556,-1.0191,-1.0119,-0.9575,-0.9129,-0.8965,-0.8921,-0.8887,-0.8975,-0.9402,-0.9983,-1.0681,-1.1553,-1.2474,-1.3442,-1.5352,-1.7512,-1.997,-2.1326,-2.2586,-2.3795,-2.5425,-2.6694,-2.7383,-2.6977,-2.6448,-2.5906,-2.5273,-2.4496,-2.3502,-2.3062,-2.2622,-2.2173,-2.1568,-2.1235,-2.1238,-2.0784,-2.0406,-2.0337,-1.9873,-1.9321,-1.8737,-1.7796,-1.6791,-1.5982,-1.6167,-1.6258,-1.5811,-1.5594,-1.5358,-1.5067,-1.5088,-1.5332,-1.5624,-1.6019,-1.6684,-1.7512,-1.8387,-1.9186,-2.008,-2.097,-2.1746,-2.2374,-2.3054,-2.3681,-2.4317,-2.4791,-2.5262,-2.5775,-2.6367,-2.6923,-2.2263,-2.1021,-1.9806,-1.9032,-1.8546,-1.8203,-1.8114,-1.8307,-1.8529,-1.888,-1.9391,-1.9619,-1.9684,-1.9706,-1.9241,-1.9024,-1.8992,-1.8689,-1.8527,-1.8323,-1.815,-1.7976,-1.7781,-1.7346,-1.7046,-1.6894,-1.6562,-1.621,-1.5873,-1.5801,-1.5469,-1.481,-1.4065,-1.3513,-1.3251,-1.2661,-1.2194,-1.1744,-1.1813,-1.1893,-1.188,-1.124,-1.0848,-1.0759,-1.0166,-0.9788,-0.9712,-0.9372,-0.9044,-0.894,-0.9008,-0.9079,-0.935,-0.9728,-1.0364,-1.1122,-1.1988,-1.3025,-1.4213,-1.627,-1.8101,-1.953,-2.0594,-2.1561,-2.2491,-2.4343,-2.592,-2.6611,-2.614,-2.5584,-2.4941,-2.4297,-2.3487,-2.2427,-2.1935,-2.1622,-2.1277,-2.0809,-2.0459,-2.0409,-2.0003,-1.9617,-1.9251,-1.8774,-1.8173,-1.7423,-1.6503,-1.5816,-1.542,-1.5196,-1.5137,-1.5186,-1.5079,-1.4921,-1.4921,-1.5039,-1.5274,-1.5556,-1.6009,-1.6673,-1.7501,-1.8321,-1.9121,-2.0016,-2.0871,-2.165,-2.2388,-2.3009,-2.3638,-2.4317,-2.4831,-2.5362,-2.6066,-2.6691,-2.7244,-2.059,-1.9627,-1.8419,-1.7705,-1.737,-1.7332,-1.7501,-1.7765,-1.7988,-1.7974,-1.7871,-1.8315,-1.8551,-1.851,-1.8166,-1.7957,-1.7957,-1.7915,-1.7873,-1.7791,-1.7523,-1.7399,-1.7234,-1.6699,-1.6191,-1.5742,-1.5396,-1.4983,-1.4499,-1.4282,-1.4057,-1.3713,-1.3188,-1.281,-1.2594,-1.2098,-1.1635,-1.1224,-1.0798,-1.0621,-1.0748,-1.0653,-1.0508,-1.0166,-0.9927,-0.9718,-0.9539,-0.9155,-0.895,-0.9041,-0.892,-0.9045,-0.9466,-0.9786,-1.0364,-1.124,-1.205,-1.3442,-1.5459,-1.6641,-1.7852,-1.9307,-2.0156,-2.0979,-2.1636,-2.2301,-2.3049,-2.3806,-2.3834,-2.3674,-2.3334,-2.2929,-2.2502,-2.201,-2.1554,-2.1118,-2.0858,-2.0472,-2.0169,-1.9914,-1.9604,-1.9263,-1.8893,-1.829,-1.7512,-1.6513,-1.5884,-1.542,-1.5196,-1.4961,-1.4775,-1.4765,-1.4706,-1.4666,-1.4616,-1.4793,-1.5147,-1.542,-1.5941,-1.6684,-1.7501,-1.8321,-1.9133,-2.0029,-2.0835,-2.1589,-2.2328,-2.3009,-2.3638,-2.4343,-2.4934,-2.5481,-2.6367,-2.6923,-2.7276,-1.8829,-1.8065,-1.7222,-1.6751,-1.6551,-1.6621,-1.6693,-1.6754,-1.7024,-1.6978,-1.6696,-1.6762,-1.7096,-1.7696,-1.7277,-1.7002,-1.687,-1.6678,-1.6497,-1.6357,-1.6077,-1.5957,-1.5906,-1.5228,-1.483,-1.4623,-1.4301,-1.397,-1.3657,-1.3346,-1.2993,-1.268,-1.2193,-1.176,-1.1553,-1.0981,-1.0581,-1.018,-0.9922,-0.9723,-0.9675,-0.9805,-0.982,-0.9672,-0.9349,-0.9203,-0.9064,-0.8838,-0.8717,-0.8909,-0.8944,-0.9151,-0.9664,-1.011,-1.0681,-1.1498,-1.2658,-1.4052,-1.5584,-1.6482,-1.7424,-1.8578,-1.9359,-2.0029,-2.0683,-2.1091,-2.15,-2.196,-2.2392,-2.2409,-2.1927,-2.1824,-2.1698,-2.1251,-2.0908,-2.0623,-2.0346,-1.9952,-1.9668,-1.9448,-1.9133,-1.8774,-1.8278,-1.749,-1.6719,-1.5951,-1.543,-1.5147,-1.4902,-1.4666,-1.4497,-1.4428,-1.4497,-1.4497,-1.4506,-1.4803,-1.5079,-1.542,-1.5884,-1.6627,-1.7501,-1.8213,-1.9028,-2.0029,-2.0709,-2.1479,-2.2314,-2.2979,-2.3566,-2.4369,-2.5323,-2.5977,-2.659,-2.6956,-2.7289,-1.7354,-1.6655,-1.6018,-1.5765,-1.5748,-1.5791,-1.5804,-1.5833,-1.6129,-1.603,-1.5687,-1.5523,-1.5856,-1.6412,-1.6257,-1.6068,-1.5909,-1.5566,-1.5362,-1.5177,-1.4843,-1.4734,-1.4675,-1.407,-1.3709,-1.3649,-1.3398,-1.3155,-1.2972,-1.2613,-1.2243,-1.1809,-1.131,-1.0863,-1.0498,-0.9989,-0.9594,-0.9338,-0.9075,-0.8952,-0.8922,-0.8997,-0.9086,-0.9202,-0.8989,-0.877,-0.8705,-0.8576,-0.8582,-0.8835,-0.8958,-0.928,-0.9798,-1.0308,-1.0996,-1.1988,-1.3277,-1.4478,-1.5526,-1.6322,-1.7112,-1.7995,-1.8643,-1.9279,-1.9837,-2.0207,-2.0409,-2.0646,-2.1126,-2.1143,-2.0979,-2.0913,-2.0809,-2.0409,-2.0207,-2.0003,-1.9759,-1.9408,-1.9081,-1.891,-1.8548,-1.8061,-1.7457,-1.6662,-1.5999,-1.5488,-1.5088,-1.4784,-1.4547,-1.4318,-1.4207,-1.4198,-1.4207,-1.4267,-1.4446,-1.4734,-1.5079,-1.542,-1.5941,-1.6627,-1.7512,-1.817,-1.891,-1.9901,-2.0547,-2.1321,-2.2267,-2.2934,-2.3696,-2.4583,-2.5497,-2.6279,-2.6657,-2.7021,-2.7338,-1.6385,-1.55,-1.4763,-1.4616,-1.4728,-1.4681,-1.4775,-1.502,-1.5189,-1.5159,-1.4961,-1.5031,-1.4943,-1.4708,-1.4987,-1.5067,-1.5067,-1.4852,-1.4765,-1.4647,-1.424,-1.401,-1.401,-1.3346,-1.3042,-1.3042,-1.2728,-1.2421,-1.2189,-1.212,-1.1809,-1.1129,-1.0744,-1.0301,-0.9862,-0.9338,-0.8952,-0.8829,-0.8501,-0.8371,-0.8447,-0.8322,-0.8468,-0.8803,-0.8781,-0.8705,-0.8576,-0.8517,-0.8641,-0.8952,-0.9022,-0.9274,-0.9919,-1.0364,-1.1296,-1.2765,-1.3571,-1.4478,-1.5478,-1.6228,-1.6955,-1.7788,-1.8278,-1.8827,-1.9356,-1.9565,-1.9656,-1.9708,-1.9798,-1.9991,-2.0383,-2.0219,-2.0042,-1.985,-1.9488,-1.9226,-1.904,-1.8815,-1.8494,-1.8159,-1.7788,-1.7179,-1.6332,-1.5961,-1.542,-1.4951,-1.4656,-1.4419,-1.4181,-1.407,-1.401,-1.4001,-1.4001,-1.407,-1.4258,-1.4523,-1.4944,-1.5332,-1.5733,-1.6507,-1.7335,-1.8127,-1.8951,-1.9773,-2.0534,-2.1321,-2.2235,-2.3098,-2.3921,-2.4768,-2.5631,-2.6314,-2.6691,-2.7103,-2.7448,-1.4838,-1.3813,-1.3575,-1.352,-1.3684,-1.3765,-1.386,-1.3978,-1.4089,-1.4067,-1.3943,-1.4022,-1.4004,-1.3872,-1.4001,-1.4181,-1.4428,-1.43,-1.4181,-1.407,-1.3588,-1.3346,-1.3285,-1.2736,-1.2428,-1.2367,-1.205,-1.1809,-1.1622,-1.1498,-1.1185,-1.0618,-1.0238,-0.9798,-0.928,-0.8888,-0.8624,-0.8431,-0.8187,-0.8127,-0.8187,-0.8112,-0.8177,-0.8436,-0.8571,-0.8582,-0.8517,-0.8517,-0.8641,-0.9022,-0.9145,-0.9402,-0.9983,-1.0807,-1.1732,-1.2887,-1.364,-1.4419,-1.5352,-1.5999,-1.657,-1.7234,-1.7744,-1.8236,-1.8655,-1.8922,-1.9093,-1.9146,-1.9028,-1.9133,-1.9239,-1.9331,-1.9291,-1.9081,-1.8815,-1.8548,-1.8344,-1.8127,-1.7854,-1.739,-1.6888,-1.6208,-1.57,-1.5235,-1.4893,-1.4478,-1.424,-1.413,-1.401,-1.3941,-1.389,-1.3846,-1.3688,-1.3529,-1.3714,-1.4045,-1.443,-1.483,-1.5319,-1.6032,-1.6765,-1.7901,-1.8814,-1.9673,-2.0455,-2.1417,-2.2314,-2.3493,-2.4256,-2.4942,-2.5795,-2.6349,-2.6725,-2.7135,-2.7448,-1.3316,-1.2571,-1.2483,-1.2498,-1.2609,-1.2775,-1.293,-1.2972,-1.3145,-1.314,-1.3058,-1.3147,-1.3147,-1.3147,-1.3147,-1.3329,-1.364,-1.3649,-1.3649,-1.3467,-1.2981,-1.2683,-1.2621,-1.2058,-1.1817,-1.1747,-1.1435,-1.1185,-1.0989,-1.0807,-1.0491,-0.9983,-0.967,-0.9215,-0.8753,-0.8361,-0.8102,-0.7977,-0.7797,-0.7731,-0.7857,-0.7857,-0.7987,-0.8112,-0.8312,-0.8441,-0.8511,-0.8517,-0.8635,-0.8958,-0.921,-0.9594,-1.0231,-1.1122,-1.1988,-1.2895,-1.3571,-1.4369,-1.5186,-1.5768,-1.6285,-1.6909,-1.7312,-1.7755,-1.8116,-1.8398,-1.8506,-1.856,-1.8506,-1.8333,-1.829,-1.8344,-1.841,-1.829,-1.8061,-1.7843,-1.7567,-1.7468,-1.7123,-1.6549,-1.5989,-1.542,-1.4942,-1.4647,-1.4291,-1.3941,-1.3821,-1.3761,-1.3709,-1.3649,-1.358,-1.3467,-1.326,-1.3177,-1.3134,-1.3273,-1.3765,-1.4217,-1.478,-1.5475,-1.6276,-1.7429,-1.8529,-1.942,-2.0463,-2.1445,-2.256,-2.3736,-2.4558,-2.5114,-2.5758,-2.6383,-2.6758,-2.7135,-2.7448,-1.1962,-1.1736,-1.1567,-1.1507,-1.1544,-1.175,-1.1902,-1.2096,-1.2274,-1.239,-1.2482,-1.2544,-1.2544,-1.2544,-1.2544,-1.2544,-1.2605,-1.2789,-1.292,-1.2928,-1.2367,-1.212,-1.2058,-1.1435,-1.1122,-1.1059,-1.0751,-1.0491,-1.0301,-1.011,-0.9786,-0.9338,-0.9022,-0.8635,-0.8236,-0.7777,-0.7521,-0.7461,-0.7335,-0.7335,-0.7526,-0.7596,-0.7782,-0.7962,-0.8081,-0.827,-0.8479,-0.8501,-0.8635,-0.8952,-0.921,-0.9786,-1.064,-1.126,-1.1903,-1.2647,-1.3347,-1.4145,-1.4904,-1.5428,-1.6017,-1.6546,-1.7045,-1.7401,-1.7698,-1.7918,-1.7963,-1.7952,-1.7975,-1.7799,-1.7579,-1.7423,-1.749,-1.7656,-1.7468,-1.7145,-1.692,-1.6807,-1.64,-1.5642,-1.5196,-1.4725,-1.4189,-1.395,-1.3761,-1.345,-1.3329,-1.3243,-1.3089,-1.3132,-1.31,-1.289,-1.2702,-1.2668,-1.252,-1.2457,-1.3057,-1.3603,-1.4178,-1.4872,-1.5655,-1.6694,-1.778,-1.8784,-2.043,-2.1481,-2.277,-2.3894,-2.4614,-2.5208,-2.5848,-2.64,-2.6758,-2.7085,-2.7448,-1.0678,-1.0282,-1.04,-1.0431,-1.0553,-1.0898,-1.1247,-1.1435,-1.156,-1.174,-1.1988,-1.1988,-1.212,-1.2182,-1.2112,-1.1988,-1.1988,-1.1926,-1.205,-1.2236,-1.1809,-1.1498,-1.131,-1.0807,-1.0428,-1.0174,-0.9977,-0.9843,-0.9716,-0.9466,-0.9215,-0.8894,-0.8441,-0.8112,-0.7712,-0.7451,-0.7256,-0.7073,-0.7012,-0.7073,-0.7265,-0.7335,-0.7459,-0.758,-0.7623,-0.7751,-0.787,-0.8276,-0.863,-0.8941,-0.9268,-0.9819,-1.0595,-1.1102,-1.1592,-1.2035,-1.2626,-1.3307,-1.4044,-1.4615,-1.5083,-1.5592,-1.6191,-1.6678,-1.7025,-1.7433,-1.7655,-1.7623,-1.7678,-1.7545,-1.72,-1.6874,-1.6853,-1.719,-1.6965,-1.6694,-1.6477,-1.6056,-1.5459,-1.4883,-1.4478,-1.4001,-1.3528,-1.3346,-1.3155,-1.2903,-1.2842,-1.2846,-1.2633,-1.2627,-1.2589,-1.2314,-1.2217,-1.2125,-1.2049,-1.2053,-1.2416,-1.2983,-1.3552,-1.4195,-1.502,-1.6014,-1.7102,-1.8557,-2.0127,-2.1563,-2.2893,-2.3937,-2.4614,-2.5262,-2.5828,-2.6314,-2.6725,-2.7085,-2.74,-0.9622,-0.9145,-0.9466,-0.96,-0.9728,-1.0238,-1.0555,-1.0744,-1.0996,-1.124,-1.1428,-1.1498,-1.1622,-1.1685,-1.1615,-1.149,-1.1428,-1.1178,-1.1178,-1.1303,-1.1185,-1.0933,-1.0688,-1.0238,-0.9798,-0.9472,-0.921,-0.9139,-0.9145,-0.8823,-0.8571,-0.8317,-0.7922,-0.7526,-0.7195,-0.6994,-0.6868,-0.6745,-0.6683,-0.678,-0.6914,-0.703,-0.7062,-0.713,-0.722,-0.734,-0.754,-0.7917,-0.8378,-0.8748,-0.9178,-0.9762,-1.0377,-1.0887,-1.1249,-1.1664,-1.2223,-1.2839,-1.3495,-1.3974,-1.4417,-1.4944,-1.5458,-1.5882,-1.6158,-1.6644,-1.6808,-1.6961,-1.695,-1.6948,-1.6765,-1.6357,-1.6171,-1.6242,-1.6306,-1.6171,-1.5846,-1.5254,-1.4706,-1.43,-1.389,-1.3407,-1.2989,-1.2736,-1.2613,-1.2421,-1.2379,-1.2321,-1.2177,-1.2149,-1.1939,-1.1806,-1.1781,-1.1679,-1.1565,-1.1687,-1.1822,-1.2373,-1.2955,-1.361,-1.4331,-1.547,-1.6617,-1.8528,-2.0183,-2.1375,-2.2657,-2.3869,-2.4735,-2.5285,-2.5726,-2.6243,-2.6691,-2.6989,-2.7324,-0.8765,-0.8517,-0.8829,-0.8947,-0.9017,-0.9658,-0.9919,-1.0047,-1.0491,-1.0744,-1.0807,-1.0933,-1.1066,-1.1059,-1.1066,-1.0933,-1.0807,-1.0744,-1.0421,-1.0238,-1.0238,-1.0238,-0.9919,-0.9542,-0.9221,-0.8829,-0.856,-0.8431,-0.8441,-0.8112,-0.7852,-0.7666,-0.7335,-0.7003,-0.6732,-0.6474,-0.6379,-0.631,-0.6367,-0.6338,-0.6396,-0.6643,-0.6794,-0.6657,-0.6887,-0.7101,-0.7234,-0.7506,-0.7849,-0.8345,-0.9054,-0.9623,-1.0064,-1.0501,-1.0997,-1.136,-1.1972,-1.2534,-1.3122,-1.3512,-1.3945,-1.4469,-1.4821,-1.506,-1.533,-1.5551,-1.5764,-1.602,-1.603,-1.6025,-1.6098,-1.5644,-1.5255,-1.5064,-1.5292,-1.5262,-1.4915,-1.4418,-1.3951,-1.3656,-1.3243,-1.2842,-1.252,-1.2336,-1.2112,-1.1936,-1.1722,-1.1626,-1.1523,-1.1461,-1.1384,-1.1323,-1.128,-1.1339,-1.125,-1.1464,-1.1669,-1.2054,-1.2624,-1.3223,-1.3947,-1.5118,-1.6374,-1.8305,-1.9884,-2.1096,-2.226,-2.3412,-2.4326,-2.4888,-2.546,-2.6108,-2.6624,-2.694,-2.7198,-0.8047,-0.7787,-0.8112,-0.8247,-0.8376,-0.9017,-0.9274,-0.9338,-0.9862,-1.0117,-1.0244,-1.0428,-1.0561,-1.0688,-1.0561,-1.0428,-1.0238,-1.011,-0.9792,-0.9338,-0.9338,-0.928,-0.9087,-0.8899,-0.8641,-0.8306,-0.7977,-0.7787,-0.7862,-0.7591,-0.7265,-0.7082,-0.6793,-0.6531,-0.6334,-0.6016,-0.5901,-0.5878,-0.5892,-0.5956,-0.6035,-0.6197,-0.6344,-0.6415,-0.6446,-0.6659,-0.6855,-0.7279,-0.7858,-0.8534,-0.9162,-0.9573,-0.982,-1.0173,-1.053,-1.0836,-1.1237,-1.1688,-1.2211,-1.2688,-1.3082,-1.3402,-1.4043,-1.445,-1.4591,-1.4945,-1.5164,-1.5342,-1.5458,-1.5425,-1.506,-1.4488,-1.4032,-1.3872,-1.4031,-1.4107,-1.37,-1.3318,-1.2963,-1.2756,-1.2451,-1.2137,-1.189,-1.1585,-1.133,-1.109,-1.0931,-1.0818,-1.0854,-1.0862,-1.0848,-1.0711,-1.0745,-1.0859,-1.1014,-1.1251,-1.1519,-1.1868,-1.2391,-1.2949,-1.3889,-1.5016,-1.6384,-1.7937,-1.913,-2.0344,-2.1542,-2.2707,-2.3476,-2.4435,-2.5314,-2.6044,-2.6522,-2.6875,-2.707,-0.7335,-0.7068,-0.74,-0.7531,-0.7596,-0.8306,-0.8565,-0.8694,-0.9215,-0.9536,-0.9594,-0.9856,-1.0034,-1.0104,-1.004,-0.9786,-0.96,-0.9472,-0.9145,-0.8689,-0.8431,-0.8371,-0.8382,-0.8322,-0.8122,-0.7782,-0.7451,-0.726,-0.7269,-0.7007,-0.6772,-0.6505,-0.6238,-0.6004,-0.5784,-0.5598,-0.5476,-0.5523,-0.5498,-0.5555,-0.5664,-0.583,-0.5964,-0.6115,-0.6183,-0.6332,-0.6722,-0.709,-0.7663,-0.8279,-0.8858,-0.9239,-0.9512,-0.9853,-1.0189,-1.0419,-1.082,-1.1335,-1.1778,-1.2135,-1.2529,-1.2871,-1.3441,-1.366,-1.3848,-1.4173,-1.4327,-1.4532,-1.4614,-1.455,-1.4357,-1.3662,-1.306,-1.273,-1.2668,-1.2689,-1.2714,-1.2534,-1.2156,-1.1856,-1.1581,-1.1335,-1.1136,-1.0863,-1.0673,-1.0463,-1.0308,-1.0248,-1.0232,-1.0294,-1.0325,-1.0306,-1.0419,-1.0632,-1.0836,-1.1074,-1.1427,-1.1778,-1.2403,-1.2949,-1.3884,-1.4937,-1.6078,-1.7355,-1.8449,-1.9569,-2.0743,-2.1976,-2.3157,-2.4122,-2.5089,-2.5876,-2.6353,-2.6792,-2.6973,-0.658,-0.6298,-0.6624,-0.6755,-0.6867,-0.7524,-0.7802,-0.7965,-0.844,-0.877,-0.8828,-0.9168,-0.9235,-0.9313,-0.9217,-0.9093,-0.8845,-0.873,-0.8435,-0.7973,-0.7595,-0.7466,-0.759,-0.7767,-0.7596,-0.719,-0.6915,-0.6689,-0.6603,-0.6416,-0.6137,-0.584,-0.5675,-0.5479,-0.5218,-0.5093,-0.5129,-0.5122,-0.5135,-0.5174,-0.5324,-0.5469,-0.5628,-0.5806,-0.5991,-0.6251,-0.6657,-0.7031,-0.7376,-0.7883,-0.8321,-0.8798,-0.9127,-0.9539,-0.9955,-1.0324,-1.0777,-1.1226,-1.1628,-1.1927,-1.2283,-1.2695,-1.2842,-1.2968,-1.3153,-1.3272,-1.3401,-1.3751,-1.3529,-1.3594,-1.3665,-1.3096,-1.2413,-1.1882,-1.1395,-1.1419,-1.1747,-1.1781,-1.1456,-1.1053,-1.0706,-1.0486,-1.0358,-1.0172,-1.0093,-0.9893,-0.9792,-0.9686,-0.9714,-0.9833,-0.9963,-0.9993,-1.0154,-1.0419,-1.0675,-1.0871,-1.1276,-1.1678,-1.2491,-1.317,-1.3978,-1.4937,-1.5832,-1.6824,-1.8001,-1.8957,-1.9924,-2.1189,-2.2512,-2.359,-2.4449,-2.5359,-2.6185,-2.659,-2.6908,-0.5679,-0.5312,-0.562,-0.5805,-0.5928,-0.6476,-0.6725,-0.6796,-0.7345,-0.768,-0.777,-0.8012,-0.8149,-0.821,-0.8171,-0.7941,-0.7801,-0.7619,-0.7264,-0.6843,-0.6607,-0.6362,-0.644,-0.677,-0.692,-0.6689,-0.6245,-0.6069,-0.5994,-0.5782,-0.5489,-0.5211,-0.5135,-0.4996,-0.4706,-0.4542,-0.4503,-0.4598,-0.4687,-0.4798,-0.4994,-0.5143,-0.5345,-0.5622,-0.5955,-0.6337,-0.6652,-0.6972,-0.7295,-0.7723,-0.8103,-0.8487,-0.8956,-0.9316,-0.9732,-1.0205,-1.0565,-1.0972,-1.1377,-1.1728,-1.2026,-1.2283,-1.248,-1.2627,-1.2774,-1.2715,-1.2754,-1.2909,-1.2811,-1.2757,-1.2591,-1.2236,-1.1734,-1.1251,-1.082,-1.0502,-1.0368,-1.0385,-1.0363,-1.025,-1.0048,-0.9862,-0.9836,-0.9588,-0.9471,-0.9305,-0.9261,-0.9198,-0.9288,-0.9463,-0.9598,-0.9681,-0.994,-1.0205,-1.0419,-1.0718,-1.1226,-1.1719,-1.2442,-1.3246,-1.4061,-1.4903,-1.5744,-1.6612,-1.7528,-1.8474,-1.9416,-2.0474,-2.1812,-2.2824,-2.3811,-2.4678,-2.5481,-2.6101,-2.6622,-0.4921,-0.4543,-0.484,-0.4961,-0.509,-0.5566,-0.5872,-0.6053,-0.6469,-0.6713,-0.6842,-0.7071,-0.72,-0.7265,-0.7141,-0.7021,-0.6837,-0.6713,-0.6413,-0.6061,-0.5884,-0.5699,-0.5468,-0.5732,-0.597,-0.5888,-0.556,-0.5337,-0.525,-0.5135,-0.4951,-0.4631,-0.4624,-0.4516,-0.4299,-0.4171,-0.4191,-0.4292,-0.4347,-0.4467,-0.468,-0.4904,-0.5179,-0.5563,-0.5896,-0.6223,-0.644,-0.6761,-0.7085,-0.7402,-0.7777,-0.8268,-0.8804,-0.9159,-0.9577,-0.9999,-1.0522,-1.082,-1.1226,-1.1528,-1.1828,-1.2076,-1.2224,-1.2382,-1.2529,-1.2539,-1.2529,-1.2471,-1.2382,-1.2184,-1.1769,-1.1477,-1.1167,-1.071,-1.0293,-0.9873,-0.9621,-0.9577,-0.9568,-0.9468,-0.9295,-0.9146,-0.9084,-0.8974,-0.8928,-0.8821,-0.8815,-0.8785,-0.895,-0.9127,-0.9323,-0.9472,-0.9681,-0.9888,-1.0154,-1.0565,-1.1175,-1.1769,-1.2442,-1.316,-1.392,-1.4789,-1.5656,-1.6527,-1.7365,-1.8201,-1.9147,-2.0167,-2.1104,-2.215,-2.3124,-2.3934,-2.4713,-2.5396,-2.5831,-0.414,-0.3821,-0.4057,-0.4177,-0.436,-0.465,-0.4998,-0.5303,-0.5612,-0.5805,-0.5969,-0.6151,-0.6213,-0.6252,-0.618,-0.6083,-0.596,-0.583,-0.5553,-0.5262,-0.5199,-0.4963,-0.4802,-0.4823,-0.4843,-0.4906,-0.48,-0.475,-0.4629,-0.4546,-0.4333,-0.4094,-0.4079,-0.3981,-0.3884,-0.3858,-0.3872,-0.3931,-0.4036,-0.4249,-0.4519,-0.4739,-0.5066,-0.5508,-0.5782,-0.6005,-0.6228,-0.6495,-0.6761,-0.7085,-0.7456,-0.7996,-0.8586,-0.9008,-0.9368,-0.9792,-1.0316,-1.0718,-1.1023,-1.1326,-1.1628,-1.1977,-1.2026,-1.2126,-1.2323,-1.2332,-1.2283,-1.2184,-1.2026,-1.1728,-1.1276,-1.0922,-1.0616,-1.0146,-0.9777,-0.9361,-0.9106,-0.9001,-0.8804,-0.8818,-0.8652,-0.8489,-0.8422,-0.835,-0.8353,-0.8315,-0.8368,-0.848,-0.8646,-0.8804,-0.9008,-0.9211,-0.9472,-0.9844,-1.0162,-1.0423,-1.1032,-1.1683,-1.2316,-1.3054,-1.3815,-1.4663,-1.5534,-1.6411,-1.7256,-1.8094,-1.8884,-1.9824,-2.0756,-2.1618,-2.2441,-2.326,-2.4,-2.4645,-2.5059,-0.3379,-0.3124,-0.3239,-0.3295,-0.3411,-0.3803,-0.41,-0.4254,-0.4442,-0.4703,-0.4945,-0.4994,-0.5121,-0.5113,-0.505,-0.4938,-0.4862,-0.4816,-0.4572,-0.4345,-0.4292,-0.4122,-0.3963,-0.3915,-0.3724,-0.3664,-0.3897,-0.4133,-0.3934,-0.3809,-0.3727,-0.3567,-0.3564,-0.3482,-0.3363,-0.3297,-0.3469,-0.3638,-0.3749,-0.3971,-0.4301,-0.4574,-0.4794,-0.5293,-0.5567,-0.5841,-0.6069,-0.6228,-0.6549,-0.7031,-0.7257,-0.767,-0.8212,-0.8685,-0.9155,-0.9695,-1.0108,-1.0493,-1.0797,-1.1107,-1.136,-1.1578,-1.1648,-1.1733,-1.1841,-1.1868,-1.1891,-1.1728,-1.1469,-1.1167,-1.0972,-1.0454,-1.0043,-0.9673,-0.9249,-0.8778,-0.8421,-0.8103,-0.8049,-0.8156,-0.799,-0.7883,-0.7883,-0.7889,-0.7949,-0.8049,-0.8156,-0.8215,-0.8374,-0.8593,-0.8804,-0.9008,-0.9211,-0.9688,-1.0162,-1.0458,-1.0872,-1.1463,-1.2162,-1.288,-1.3653,-1.4536,-1.5412,-1.6324,-1.7214,-1.8054,-1.8869,-1.9639,-2.0331,-2.1173,-2.1891,-2.2605,-2.3175,-2.3732,-2.4258,-0.2669,-0.246,-0.2404,-0.2517,-0.2685,-0.2852,-0.3186,-0.3519,-0.3627,-0.3796,-0.4024,-0.4138,-0.419,-0.419,-0.419,-0.4079,-0.3968,-0.391,-0.3741,-0.3463,-0.3408,-0.3355,-0.3135,-0.3137,-0.2912,-0.2811,-0.3013,-0.3266,-0.3206,-0.3168,-0.3135,-0.3135,-0.3132,-0.3132,-0.3132,-0.3132,-0.3188,-0.3357,-0.3471,-0.3638,-0.4079,-0.4301,-0.4688,-0.4963,-0.5293,-0.5517,-0.5736,-0.6119,-0.6274,-0.6564,-0.6855,-0.7206,-0.7599,-0.8081,-0.8618,-0.9228,-0.9733,-1.0047,-1.0246,-1.0494,-1.0668,-1.0859,-1.0941,-1.1142,-1.1323,-1.1461,-1.1402,-1.1099,-1.0854,-1.0557,-1.0344,-0.988,-0.9465,-0.9093,-0.862,-0.8196,-0.7777,-0.7354,-0.7295,-0.7456,-0.7402,-0.7348,-0.7408,-0.7467,-0.7574,-0.7681,-0.7889,-0.7996,-0.8162,-0.8283,-0.8475,-0.8768,-0.8933,-0.9278,-0.9718,-1.0006,-1.0475,-1.1155,-1.1935,-1.2656,-1.3575,-1.4446,-1.5389,-1.6337,-1.7201,-1.8068,-1.8846,-1.9617,-2.0189,-2.0745,-2.1392,-2.2003,-2.234,-2.2791,-2.3345,-0.1961,-0.1792,-0.1734,-0.179,-0.2015,-0.2071,-0.2406,-0.2796,-0.2905,-0.3021,-0.3304,-0.3302,-0.3302,-0.3302,-0.3302,-0.3246,-0.3135,-0.3132,-0.2965,-0.2794,-0.2738,-0.2629,-0.2577,-0.2465,-0.2354,-0.2074,-0.2076,-0.2184,-0.2475,-0.2579,-0.2631,-0.2685,-0.2738,-0.2796,-0.2854,-0.2854,-0.291,-0.3021,-0.3135,-0.336,-0.3694,-0.4079,-0.4463,-0.4622,-0.4992,-0.5179,-0.5333,-0.5588,-0.5882,-0.6093,-0.6345,-0.6684,-0.6964,-0.7356,-0.7907,-0.8574,-0.9193,-0.9455,-0.9665,-0.9831,-1.009,-1.0274,-1.0234,-1.0473,-1.0672,-1.0833,-1.0776,-1.0306,-1.0151,-0.9984,-0.9673,-0.9256,-0.8837,-0.8468,-0.7984,-0.7557,-0.7122,-0.675,-0.6426,-0.6534,-0.6647,-0.6756,-0.6864,-0.7085,-0.7198,-0.7413,-0.7568,-0.7783,-0.7871,-0.7915,-0.8119,-0.8433,-0.8648,-0.8834,-0.9152,-0.9391,-0.9922,-1.0583,-1.146,-1.2308,-1.3377,-1.4391,-1.5374,-1.6324,-1.7214,-1.8068,-1.8846,-1.9581,-2.017,-2.0662,-2.1023,-2.1454,-2.19,-2.2233,-2.2651,-0.1346,-0.1178,-0.1178,-0.129,-0.1402,-0.1567,-0.1846,-0.2071,-0.2127,-0.2238,-0.2406,-0.2406,-0.2406,-0.2408,-0.2408,-0.235,-0.235,-0.2352,-0.224,-0.2125,-0.2071,-0.2015,-0.1903,-0.1903,-0.1737,-0.1458,-0.1401,-0.1625,-0.1847,-0.1959,-0.2071,-0.2125,-0.2238,-0.2296,-0.235,-0.2408,-0.241,-0.2575,-0.2745,-0.3021,-0.3516,-0.3843,-0.4171,-0.4406,-0.4552,-0.4741,-0.4992,-0.5165,-0.5294,-0.5651,-0.5922,-0.6298,-0.6809,-0.735,-0.7589,-0.7967,-0.8485,-0.9128,-0.935,-0.953,-0.9612,-0.9723,-0.9773,-0.9889,-0.9989,-1.012,-0.9995,-0.9271,-0.9445,-0.9436,-0.9033,-0.8639,-0.8215,-0.7783,-0.7295,-0.6804,-0.6372,-0.615,-0.5828,-0.5609,-0.5719,-0.6046,-0.6268,-0.6593,-0.6869,-0.709,-0.7246,-0.745,-0.7588,-0.7598,-0.7721,-0.8009,-0.82,-0.8371,-0.8601,-0.8829,-0.9372,-1.0035,-1.0949,-1.1943,-1.3103,-1.4203,-1.5318,-1.6287,-1.7175,-1.8054,-1.8846,-1.953,-2.015,-2.061,-2.1006,-2.1294,-2.1591,-2.1842,-2.2126,-0.0336,-0.0561,-0.0505,-0.0561,-0.0673,-0.084,-0.112,-0.1345,-0.1456,-0.1569,-0.1681,-0.1681,-0.1682,-0.1681,-0.1681,-0.1681,-0.157,-0.1569,-0.1513,-0.14,-0.1401,-0.1345,-0.1288,-0.1288,-0.1121,-0.1009,-0.0954,-0.0897,-0.112,-0.1344,-0.1569,-0.1737,-0.1849,-0.1906,-0.1959,-0.1959,-0.2071,-0.224,-0.2462,-0.2717,-0.3009,-0.3312,-0.3551,-0.3801,-0.3994,-0.4223,-0.4448,-0.4727,-0.4897,-0.5223,-0.5514,-0.5872,-0.6287,-0.6648,-0.6995,-0.7311,-0.7758,-0.8281,-0.868,-0.8885,-0.9039,-0.9144,-0.9117,-0.9055,-0.9156,-0.9337,-0.9404,-0.8976,-0.884,-0.868,-0.841,-0.7931,-0.7456,-0.7031,-0.6598,-0.6159,-0.5719,-0.5445,-0.5171,-0.5007,-0.4901,-0.523,-0.5555,-0.5882,-0.6213,-0.6593,-0.6817,-0.7014,-0.7149,-0.7259,-0.7382,-0.7611,-0.7735,-0.7845,-0.8065,-0.8327,-0.8885,-0.9552,-1.0319,-1.1465,-1.2813,-1.4005,-1.5116,-1.6213,-1.7188,-1.804,-1.8831,-1.9515,-2.0115,-2.0577,-2.099,-2.1215,-2.145,-2.168,-2.1913,0.0672,0.028,0.0224,0.0168,0.0,-0.0112,-0.028,-0.0561,-0.0729,-0.0841,-0.0898,-0.0954,-0.0954,-0.0898,-0.0897,-0.0785,-0.0729,-0.0729,-0.0729,-0.0673,-0.0673,-0.0673,-0.0673,-0.0673,-0.0617,-0.0505,-0.0449,-0.0393,-0.0393,-0.0617,-0.0953,-0.1347,-0.1402,-0.1458,-0.1569,-0.1621,-0.1672,-0.1861,-0.2067,-0.2307,-0.253,-0.2674,-0.2943,-0.3192,-0.3389,-0.3569,-0.3912,-0.4149,-0.4392,-0.4747,-0.5029,-0.537,-0.5755,-0.6136,-0.6557,-0.6904,-0.7327,-0.7659,-0.8036,-0.8279,-0.8398,-0.8472,-0.8447,-0.838,-0.8308,-0.8588,-0.8604,-0.8242,-0.8134,-0.786,-0.7587,-0.7184,-0.6742,-0.6288,-0.5891,-0.5395,-0.4956,-0.4732,-0.4512,-0.4353,-0.4298,-0.4408,-0.4736,-0.5062,-0.55,-0.5991,-0.6304,-0.6545,-0.6699,-0.6807,-0.6943,-0.7096,-0.7212,-0.7331,-0.7577,-0.7888,-0.845,-0.9098,-0.9873,-1.0858,-1.2212,-1.364,-1.4869,-1.5981,-1.7083,-1.8001,-1.8793,-1.9479,-2.008,-2.0494,-2.0843,-2.1103,-2.1325,-2.1556,-2.1768,0.1566,0.1623,0.1065,0.0785,0.0617,0.0617,0.0505,0.028,0.0168,0.0112,0.0056,0.0,0.0,0.0056,0.0056,0.0112,0.028,0.0168,0.0112,0.0056,0.0,0.0,0.0,0.0,0.0,0.0112,0.0112,0.0112,0.0168,0.0112,-0.028,-0.0673,-0.0841,-0.0898,-0.1003,-0.1103,-0.1245,-0.1429,-0.1613,-0.1795,-0.2027,-0.217,-0.2359,-0.2783,-0.2866,-0.2958,-0.3381,-0.353,-0.3788,-0.4199,-0.4555,-0.4949,-0.5376,-0.5804,-0.6227,-0.6683,-0.6985,-0.7321,-0.7565,-0.7855,-0.8021,-0.8021,-0.7995,-0.7844,-0.761,-0.7699,-0.7598,-0.7308,-0.7222,-0.6991,-0.6659,-0.6261,-0.588,-0.5524,-0.5085,-0.4677,-0.4291,-0.4015,-0.3852,-0.3691,-0.3688,-0.379,-0.3917,-0.4226,-0.488,-0.5416,-0.577,-0.5997,-0.6192,-0.6302,-0.6423,-0.6522,-0.6575,-0.6759,-0.7088,-0.7504,-0.8059,-0.8749,-0.9506,-1.0476,-1.1542,-1.299,-1.4552,-1.577,-1.686,-1.7822,-1.8703,-1.9332,-1.9904,-2.0357,-2.0695,-2.099,-2.1309,-2.1587,-2.1781,0.217,0.223,0.2055,0.1737,0.1399,0.1287,0.1231,0.1119,0.0953,0.0897,0.0841,0.0841,0.0841,0.084,0.0841,0.0897,0.0954,0.0897,0.0896,0.0841,0.0841,0.0785,0.0785,0.0729,0.0729,0.0729,0.0673,0.0617,0.0617,0.0615,0.056,0.0224,-0.0112,-0.0331,-0.0437,-0.0586,-0.0827,-0.0966,-0.1104,-0.1299,-0.1463,-0.1553,-0.178,-0.2154,-0.2187,-0.2386,-0.2789,-0.3027,-0.3357,-0.3737,-0.4164,-0.4591,-0.5014,-0.5497,-0.5967,-0.6379,-0.6674,-0.6926,-0.7196,-0.7509,-0.7746,-0.7614,-0.7579,-0.7412,-0.6985,-0.6976,-0.6818,-0.6582,-0.6314,-0.6113,-0.5819,-0.5413,-0.5008,-0.4709,-0.4267,-0.3862,-0.3498,-0.3214,-0.2996,-0.2879,-0.2938,-0.2994,-0.3175,-0.3348,-0.4151,-0.4888,-0.5165,-0.5419,-0.5631,-0.5866,-0.5974,-0.6131,-0.6251,-0.6441,-0.6774,-0.7238,-0.7712,-0.8429,-0.9153,-1.0134,-1.1186,-1.2707,-1.4211,-1.5446,-1.6703,-1.7702,-1.8545,-1.9147,-1.9675,-2.022,-2.0613,-2.0942,-2.1261,-2.1631,-2.184,0.267,0.2676,0.2797,0.2528,0.2068,0.1959,0.1959,0.1903,0.1737,0.1626,0.1568,0.1556,0.1602,0.1599,0.1525,0.1572,0.1566,0.157,0.1584,0.1537,0.1542,0.1556,0.1509,0.1513,0.1401,0.1401,0.1289,0.1233,0.1232,0.1166,0.1103,0.0988,0.071,0.0429,0.016,-0.0051,-0.0294,-0.0433,-0.0577,-0.0772,-0.0938,-0.0982,-0.1162,-0.1536,-0.1621,-0.1823,-0.2209,-0.2488,-0.281,-0.3253,-0.37,-0.4135,-0.4605,-0.5074,-0.55,-0.5873,-0.6155,-0.636,-0.6665,-0.712,-0.7356,-0.7238,-0.7112,-0.6859,-0.6513,-0.6258,-0.6023,-0.5668,-0.541,-0.5135,-0.4847,-0.4462,-0.4155,-0.3791,-0.3371,-0.2927,-0.2659,-0.2346,-0.2189,-0.2027,-0.2133,-0.228,-0.253,-0.2738,-0.347,-0.4228,-0.473,-0.4956,-0.5174,-0.539,-0.5597,-0.5777,-0.5933,-0.6221,-0.652,-0.7027,-0.753,-0.8126,-0.8921,-0.9815,-1.0985,-1.244,-1.3778,-1.5005,-1.6257,-1.7475,-1.8363,-1.9072,-1.9603,-2.008,-2.0512,-2.0942,-2.1261,-2.157,-2.184,0.3121,0.3121,0.3132,0.2947,0.272,0.2689,0.2685,0.2685,0.2567,0.2393,0.2263,0.2157,0.2183,0.2276,0.223,0.2263,0.2259,0.2201,0.2225,0.228,0.2237,0.217,0.2198,0.2154,0.2136,0.2119,0.1992,0.1923,0.1938,0.1783,0.171,0.1689,0.1508,0.1184,0.079,0.0495,0.0281,0.0136,0.0,-0.0182,-0.0363,-0.0407,-0.067,-0.0978,-0.1098,-0.1336,-0.1694,-0.1935,-0.2282,-0.2676,-0.3096,-0.3529,-0.392,-0.43,-0.4718,-0.5061,-0.5269,-0.548,-0.5669,-0.6518,-0.6739,-0.6725,-0.6605,-0.6307,-0.5916,-0.5529,-0.5183,-0.4914,-0.4449,-0.4108,-0.3833,-0.3538,-0.3237,-0.2849,-0.2436,-0.2067,-0.1793,-0.1544,-0.1331,-0.1225,-0.1381,-0.1576,-0.1874,-0.2207,-0.2886,-0.3529,-0.4185,-0.4517,-0.4661,-0.496,-0.5193,-0.541,-0.5626,-0.597,-0.6307,-0.6852,-0.7391,-0.7979,-0.8692,-0.9591,-1.0627,-1.1933,-1.3251,-1.4555,-1.5919,-1.7259,-1.8184,-1.9011,-1.9566,-2.0115,-2.0545,-2.0974,-2.1261,-2.154,-2.1857,0.3764,0.3771,0.387,0.3818,0.3709,0.3425,0.3335,0.3442,0.3384,0.3255,0.3084,0.3034,0.3077,0.3059,0.3039,0.3003,0.3058,0.3071,0.3062,0.3069,0.3026,0.299,0.2925,0.284,0.2776,0.2663,0.2559,0.2469,0.2449,0.2374,0.2368,0.234,0.223,0.1821,0.1326,0.0992,0.086,0.0674,0.0583,0.0493,0.0223,0.0087,-0.0129,-0.0472,-0.0588,-0.082,-0.1207,-0.1406,-0.1741,-0.2135,-0.2548,-0.2933,-0.3322,-0.3737,-0.4134,-0.4489,-0.4721,-0.4964,-0.5137,-0.5625,-0.5955,-0.6012,-0.6007,-0.575,-0.5404,-0.5048,-0.4613,-0.4136,-0.3697,-0.3385,-0.3004,-0.2581,-0.2259,-0.1895,-0.1531,-0.121,-0.0923,-0.0667,-0.0462,-0.0411,-0.0513,-0.0906,-0.1218,-0.152,-0.2139,-0.2718,-0.3315,-0.3855,-0.4124,-0.4504,-0.4836,-0.5058,-0.5323,-0.5712,-0.6099,-0.6598,-0.7189,-0.778,-0.8561,-0.9426,-1.0479,-1.1513,-1.2892,-1.4305,-1.5673,-1.6992,-1.8061,-1.9049,-1.9654,-2.0185,-2.0579,-2.0942,-2.1246,-2.1556,-2.1886,0.4306,0.4272,0.4377,0.4466,0.4394,0.4043,0.3902,0.3959,0.3991,0.3897,0.3776,0.3726,0.3694,0.3684,0.3694,0.372,0.3716,0.3716,0.3775,0.3782,0.3743,0.3686,0.3611,0.3556,0.3494,0.336,0.326,0.3174,0.3232,0.3082,0.3034,0.2979,0.2926,0.2581,0.2143,0.1823,0.1481,0.1292,0.1196,0.1003,0.0777,0.0592,0.037,0.0082,-0.012,-0.0352,-0.0655,-0.0954,-0.1175,-0.1616,-0.1976,-0.2344,-0.2713,-0.3081,-0.3448,-0.3776,-0.4103,-0.4308,-0.448,-0.4512,-0.4779,-0.5062,-0.5214,-0.5193,-0.4845,-0.4403,-0.41,-0.3707,-0.3129,-0.2593,-0.2072,-0.1672,-0.1307,-0.0944,-0.0618,-0.0291,-0.0049,0.0198,0.0296,0.0395,0.0246,-0.0145,-0.0565,-0.0923,-0.1354,-0.1885,-0.2417,-0.299,-0.3571,-0.4005,-0.4399,-0.4666,-0.4975,-0.5323,-0.575,-0.6264,-0.6894,-0.7621,-0.8398,-0.9208,-1.0147,-1.1201,-1.2628,-1.4033,-1.5261,-1.6579,-1.8072,-1.9072,-1.9639,-2.0115,-2.0512,-2.0877,-2.1214,-2.1556,-2.1886,0.4757,0.4661,0.4618,0.4736,0.4777,0.4554,0.439,0.4356,0.4352,0.439,0.4319,0.42,0.4198,0.4168,0.4178,0.418,0.4191,0.4188,0.4274,0.4311,0.4287,0.4285,0.4304,0.4286,0.42,0.4244,0.4147,0.3986,0.4101,0.3938,0.376,0.3677,0.3667,0.3436,0.3152,0.276,0.2299,0.2014,0.1728,0.1526,0.1332,0.1083,0.0865,0.0622,0.0384,0.015,-0.011,-0.0327,-0.0568,-0.0869,-0.1155,-0.1522,-0.1852,-0.2178,-0.2543,-0.2915,-0.3307,-0.3479,-0.3581,-0.3572,-0.3538,-0.383,-0.4087,-0.431,-0.4192,-0.3656,-0.3258,-0.2862,-0.2328,-0.1746,-0.117,-0.0765,-0.0316,0.0,0.0316,0.0599,0.0896,0.1044,0.1139,0.1092,0.0855,0.0515,0.0137,-0.0269,-0.067,-0.1207,-0.1743,-0.2235,-0.2857,-0.3524,-0.3873,-0.4184,-0.4495,-0.4932,-0.5404,-0.5959,-0.6689,-0.7412,-0.8234,-0.9039,-0.9922,-1.0874,-1.2173,-1.3502,-1.4752,-1.6142,-1.7815,-1.8898,-1.9603,-2.003,-2.0444,-2.086,-2.123,-2.1556,-2.1886,0.5631,0.5583,0.5583,0.5625,0.5645,0.5529,0.5413,0.526,0.5227,0.5158,0.4997,0.4986,0.4932,0.4949,0.4985,0.4961,0.4957,0.4966,0.4994,0.4997,0.499,0.4924,0.4911,0.4911,0.4843,0.4802,0.4757,0.4783,0.4739,0.4661,0.4612,0.4583,0.453,0.4439,0.4172,0.3844,0.3262,0.2713,0.2416,0.2127,0.1905,0.1637,0.1423,0.1221,0.0976,0.0742,0.0488,0.0277,0.0034,-0.0304,-0.0571,-0.0906,-0.1305,-0.1673,-0.2009,-0.2408,-0.2613,-0.2666,-0.2676,-0.2695,-0.2649,-0.2495,-0.2609,-0.289,-0.295,-0.2716,-0.2184,-0.1654,-0.1298,-0.0671,-0.0134,0.0313,0.067,0.0983,0.1295,0.1578,0.1794,0.1886,0.1978,0.184,0.1611,0.1284,0.0851,0.0403,0.0,-0.0537,-0.103,-0.1521,-0.2146,-0.2812,-0.3391,-0.3704,-0.4096,-0.4535,-0.5096,-0.5701,-0.6471,-0.728,-0.8021,-0.8829,-0.9755,-1.072,-1.1817,-1.3162,-1.47,-1.6221,-1.7789,-1.8579,-1.9099,-1.9884,-2.0361,-2.0811,-2.123,-2.1556,-2.1886,0.6435,0.6398,0.6398,0.6441,0.6477,0.6483,0.6409,0.6263,0.5963,0.5738,0.5663,0.5653,0.569,0.5701,0.5739,0.5782,0.5782,0.5782,0.5798,0.5755,0.5733,0.5674,0.5615,0.5567,0.555,0.5524,0.5486,0.5548,0.5524,0.5524,0.548,0.5518,0.548,0.529,0.5065,0.4749,0.4306,0.3663,0.3098,0.276,0.2489,0.2208,0.2023,0.1894,0.1629,0.1382,0.1141,0.0938,0.067,0.0402,0.0134,-0.0168,-0.0569,-0.0971,-0.1338,-0.1669,-0.1802,-0.1769,-0.172,-0.1716,-0.1587,-0.1393,-0.1129,-0.1153,-0.1334,-0.1274,-0.071,-0.0179,0.0089,0.0447,0.0938,0.1385,0.1698,0.201,0.2277,0.2541,0.2682,0.2773,0.2729,0.264,0.2328,0.2018,0.1609,0.1163,0.0716,0.0313,-0.0134,-0.0582,-0.1341,-0.2144,-0.2768,-0.3217,-0.37,-0.4184,-0.4787,-0.5351,-0.6124,-0.6888,-0.7675,-0.8529,-0.954,-1.0623,-1.1762,-1.325,-1.4859,-1.6132,-1.7184,-1.7869,-1.8475,-1.925,-1.998,-2.0445,-2.0958,-2.1556,-2.1886,0.7224,0.7105,0.7105,0.7189,0.7266,0.7308,0.7328,0.737,0.6757,0.6349,0.6349,0.6343,0.6416,0.6459,0.6513,0.6556,0.6598,0.6592,0.6592,0.6598,0.6507,0.6459,0.6452,0.641,0.6452,0.6428,0.6398,0.6435,0.6416,0.6459,0.6459,0.6416,0.6319,0.6139,0.592,0.5578,0.5148,0.4677,0.398,0.3456,0.3173,0.2863,0.2573,0.2517,0.2308,0.207,0.1873,0.1673,0.1471,0.1206,0.1005,0.0737,0.0268,-0.0134,-0.0501,-0.0701,-0.08,-0.0734,-0.0667,-0.0607,-0.0447,-0.0215,0.0076,0.0397,0.0414,0.0044,0.0444,0.0847,0.1115,0.1649,0.2184,0.2534,0.2846,0.3114,0.3378,0.3598,0.3774,0.3778,0.369,0.3514,0.3252,0.2896,0.2455,0.2008,0.1564,0.1163,0.0716,0.0224,-0.0402,-0.1294,-0.201,-0.2593,-0.317,-0.3656,-0.4268,-0.4874,-0.5647,-0.6452,-0.7245,-0.8195,-0.9213,-1.0448,-1.1696,-1.3118,-1.4464,-1.5301,-1.6229,-1.7006,-1.7837,-1.8542,-1.9265,-1.9938,-2.0575,-2.1269,-2.1827,0.8028,0.7979,0.7979,0.7979,0.8028,0.8021,0.807,0.807,0.8021,0.7607,0.7196,0.7154,0.7189,0.7224,0.7266,0.7314,0.7391,0.7391,0.7384,0.7384,0.7342,0.7342,0.7384,0.7342,0.7342,0.7391,0.7398,0.7398,0.7419,0.7467,0.7509,0.7515,0.7337,0.699,0.6772,0.6424,0.5916,0.5584,0.5142,0.4477,0.4054,0.3672,0.3388,0.3323,0.3159,0.2987,0.2794,0.2633,0.2405,0.2139,0.2006,0.164,0.1071,0.0801,0.06,0.0434,0.04,0.0466,0.0532,0.0665,0.0809,0.1151,0.15,0.1914,0.1935,0.1419,0.1378,0.1777,0.2222,0.289,0.3422,0.3683,0.3986,0.4256,0.4522,0.4696,0.487,0.4739,0.4652,0.4395,0.4136,0.3785,0.3341,0.2854,0.241,0.1921,0.1432,0.0985,0.0537,-0.0223,-0.0983,-0.1654,-0.2506,-0.3081,-0.3693,-0.4395,-0.513,-0.6027,-0.6868,-0.79,-0.8973,-1.0293,-1.1678,-1.2758,-1.3935,-1.4695,-1.5503,-1.6422,-1.7214,-1.784,-1.8553,-1.9217,-2.013,-2.087,-2.1523,0.8869,0.8869,0.8869,0.8869,0.8869,0.8869,0.8869,0.891,0.8958,0.8788,0.8341,0.8103,0.7987,0.8013,0.8021,0.8054,0.8136,0.817,0.817,0.8211,0.8259,0.8259,0.8267,0.8259,0.8259,0.8267,0.8341,0.8423,0.8472,0.8496,0.8537,0.8544,0.8257,0.7886,0.7658,0.7174,0.6713,0.6474,0.6238,0.5852,0.521,0.4809,0.4413,0.4258,0.4194,0.4023,0.3894,0.3737,0.3542,0.3282,0.3114,0.2754,0.2323,0.2123,0.1958,0.1826,0.176,0.1762,0.1892,0.2021,0.2186,0.253,0.2989,0.3464,0.3884,0.3461,0.334,0.3662,0.3621,0.416,0.4552,0.4899,0.5158,0.5422,0.5637,0.5851,0.5899,0.5776,0.5642,0.547,0.5173,0.4831,0.4391,0.3906,0.3419,0.2943,0.241,0.1878,0.1385,0.0938,0.0134,-0.0626,-0.1431,-0.2368,-0.312,-0.3822,-0.457,-0.5508,-0.6446,-0.7852,-0.9076,-1.0369,-1.1649,-1.2555,-1.3328,-1.3994,-1.4823,-1.5638,-1.635,-1.6919,-1.771,-1.8501,-1.9467,-2.0408,-2.1141,0.9776,0.9776,0.9776,0.9776,0.9767,0.9776,0.9776,0.9776,0.9776,0.9776,0.9658,0.9191,0.8999,0.8837,0.8846,0.8837,0.8878,0.899,0.8981,0.903,0.9128,0.9159,0.9168,0.9177,0.9159,0.9239,0.9319,0.9442,0.9515,0.9552,0.9543,0.9529,0.9179,0.872,0.8431,0.8038,0.7607,0.7414,0.7259,0.724,0.67,0.6082,0.5574,0.5369,0.5307,0.5269,0.5098,0.4998,0.4872,0.4619,0.4385,0.4061,0.38,0.3635,0.3442,0.3345,0.328,0.3377,0.3478,0.3543,0.3708,0.4016,0.45,0.5022,0.5462,0.5669,0.5549,0.5551,0.5471,0.5444,0.5882,0.6095,0.6355,0.6615,0.6868,0.7036,0.6959,0.6881,0.6706,0.6537,0.6246,0.5905,0.547,0.4947,0.447,0.3949,0.3426,0.2896,0.2408,0.1919,0.1339,0.058,-0.0223,-0.1203,-0.2273,-0.3158,-0.3909,-0.4952,-0.5967,-0.7665,-0.9138,-1.0215,-1.1196,-1.2066,-1.2804,-1.3471,-1.4,-1.4716,-1.5382,-1.6145,-1.6997,-1.7854,-1.8776,-1.9723,-2.0662,1.0639,1.0649,1.0639,1.0639,1.0639,1.0639,1.0639,1.0639,1.0639,1.0639,1.0601,1.0524,1.0215,0.9628,0.9588,0.9628,0.9686,0.9795,0.9843,0.9883,0.9991,1.004,1.004,1.003,1.0069,1.0186,1.0302,1.0495,1.0578,1.0588,1.0474,1.0303,0.9929,0.9495,0.9036,0.8671,0.8387,0.8291,0.828,0.8231,0.7996,0.7357,0.6687,0.6515,0.6515,0.6477,0.6438,0.6422,0.6241,0.6029,0.58,0.5571,0.5411,0.5243,0.5119,0.5014,0.4958,0.5033,0.5095,0.5126,0.5325,0.5606,0.6154,0.6743,0.7247,0.7849,0.7832,0.7964,0.7784,0.7328,0.7473,0.7507,0.768,0.7975,0.8228,0.8317,0.8285,0.8113,0.7941,0.7694,0.7453,0.7078,0.6615,0.6137,0.5631,0.5115,0.4609,0.4077,0.351,0.3028,0.2497,0.1784,0.1026,-0.0179,-0.1341,-0.2364,-0.3243,-0.4291,-0.554,-0.721,-0.8658,-0.9845,-1.0781,-1.1605,-1.2389,-1.3072,-1.3568,-1.4098,-1.4725,-1.5552,-1.6379,-1.7213,-1.8139,-1.9026,-1.9984]}]]